<?xml version="1.0" encoding="UTF-8" standalone="no" ?>
<gpx xmlns="http://www.topografix.com/GPX/1/1" xmlns:xsi="http://www.w3.org/2001/XMLSchema-instance" xsi:schemaLocation="http://www.topografix.com/GPX/1/1 http://www.topografix.com/GPX/1/1/gpx.xsd" version="1.1" creator="VisuGPX - https://www.visugpx.com">
  <metadata>
    <name>Les Hauts de Ceyreste</name>
    <desc><![CDATA[Itinéraire facile, départ cimetière de Ceyreste.]]></desc>
  </metadata>
  <trk>
    <name><![CDATA[Les Hauts de Ceyreste_1]]></name>
    <trkseg>
      <trkpt lat="43.2161" lon="5.62438">
        <ele>105.1</ele>
        <time>2022-09-21T08:11:11Z</time>
      </trkpt>
      <trkpt lat="43.21608" lon="5.62444">
        <ele>105.9</ele>
        <time>2022-09-21T08:11:36Z</time>
      </trkpt>
      <trkpt lat="43.21612" lon="5.62449">
        <ele>106.1</ele>
        <time>2022-09-21T08:15:16Z</time>
      </trkpt>
      <trkpt lat="43.21616" lon="5.62454">
        <ele>106</ele>
        <time>2022-09-21T08:15:24Z</time>
      </trkpt>
      <trkpt lat="43.2162" lon="5.6246">
        <ele>106.3</ele>
        <time>2022-09-21T08:15:32Z</time>
      </trkpt>
      <trkpt lat="43.21623" lon="5.62465">
        <ele>106.7</ele>
        <time>2022-09-21T08:15:38Z</time>
      </trkpt>
      <trkpt lat="43.21626" lon="5.6247">
        <ele>107.3</ele>
        <time>2022-09-21T08:15:44Z</time>
      </trkpt>
      <trkpt lat="43.2163" lon="5.62474">
        <ele>107.7</ele>
        <time>2022-09-21T08:15:50Z</time>
      </trkpt>
      <trkpt lat="43.21634" lon="5.62479">
        <ele>108.1</ele>
        <time>2022-09-21T08:15:56Z</time>
      </trkpt>
      <trkpt lat="43.21638" lon="5.62484">
        <ele>108.4</ele>
        <time>2022-09-21T08:16:02Z</time>
      </trkpt>
      <trkpt lat="43.21643" lon="5.62489">
        <ele>108.6</ele>
        <time>2022-09-21T08:16:08Z</time>
      </trkpt>
      <trkpt lat="43.21648" lon="5.62493">
        <ele>108.8</ele>
        <time>2022-09-21T08:16:14Z</time>
      </trkpt>
      <trkpt lat="43.21654" lon="5.62497">
        <ele>109.3</ele>
        <time>2022-09-21T08:16:20Z</time>
      </trkpt>
      <trkpt lat="43.21658" lon="5.62501">
        <ele>109.7</ele>
        <time>2022-09-21T08:16:26Z</time>
      </trkpt>
      <trkpt lat="43.21662" lon="5.62506">
        <ele>110</ele>
        <time>2022-09-21T08:16:32Z</time>
      </trkpt>
      <trkpt lat="43.21667" lon="5.62512">
        <ele>110.4</ele>
        <time>2022-09-21T08:16:38Z</time>
      </trkpt>
      <trkpt lat="43.21671" lon="5.62516">
        <ele>110.8</ele>
        <time>2022-09-21T08:16:44Z</time>
      </trkpt>
      <trkpt lat="43.21676" lon="5.6252">
        <ele>111.3</ele>
        <time>2022-09-21T08:16:50Z</time>
      </trkpt>
      <trkpt lat="43.21681" lon="5.62525">
        <ele>111.8</ele>
        <time>2022-09-21T08:16:56Z</time>
      </trkpt>
      <trkpt lat="43.21685" lon="5.62529">
        <ele>112.4</ele>
        <time>2022-09-21T08:17:02Z</time>
      </trkpt>
      <trkpt lat="43.21689" lon="5.62535">
        <ele>113.2</ele>
        <time>2022-09-21T08:17:08Z</time>
      </trkpt>
      <trkpt lat="43.21694" lon="5.6254">
        <ele>113.8</ele>
        <time>2022-09-21T08:17:14Z</time>
      </trkpt>
      <trkpt lat="43.21699" lon="5.62544">
        <ele>114.6</ele>
        <time>2022-09-21T08:17:20Z</time>
      </trkpt>
      <trkpt lat="43.21704" lon="5.62548">
        <ele>115.4</ele>
        <time>2022-09-21T08:17:26Z</time>
      </trkpt>
      <trkpt lat="43.21709" lon="5.62552">
        <ele>116.2</ele>
        <time>2022-09-21T08:17:32Z</time>
      </trkpt>
      <trkpt lat="43.21713" lon="5.62557">
        <ele>117.1</ele>
        <time>2022-09-21T08:17:38Z</time>
      </trkpt>
      <trkpt lat="43.21718" lon="5.6256">
        <ele>117.9</ele>
        <time>2022-09-21T08:17:44Z</time>
      </trkpt>
      <trkpt lat="43.21724" lon="5.6256">
        <ele>118.4</ele>
        <time>2022-09-21T08:17:50Z</time>
      </trkpt>
      <trkpt lat="43.21728" lon="5.62562">
        <ele>118.9</ele>
        <time>2022-09-21T08:17:56Z</time>
      </trkpt>
      <trkpt lat="43.21733" lon="5.62565">
        <ele>119.3</ele>
        <time>2022-09-21T08:18:02Z</time>
      </trkpt>
      <trkpt lat="43.2174" lon="5.62566">
        <ele>119.8</ele>
        <time>2022-09-21T08:18:08Z</time>
      </trkpt>
      <trkpt lat="43.21745" lon="5.62568">
        <ele>120.2</ele>
        <time>2022-09-21T08:18:14Z</time>
      </trkpt>
      <trkpt lat="43.21751" lon="5.62568">
        <ele>120.6</ele>
        <time>2022-09-21T08:18:20Z</time>
      </trkpt>
      <trkpt lat="43.21758" lon="5.62566">
        <ele>121.1</ele>
        <time>2022-09-21T08:18:26Z</time>
      </trkpt>
      <trkpt lat="43.21763" lon="5.62567">
        <ele>121.6</ele>
        <time>2022-09-21T08:18:32Z</time>
      </trkpt>
      <trkpt lat="43.21769" lon="5.62566">
        <ele>122.2</ele>
        <time>2022-09-21T08:18:38Z</time>
      </trkpt>
      <trkpt lat="43.21774" lon="5.62566">
        <ele>122.7</ele>
        <time>2022-09-21T08:18:44Z</time>
      </trkpt>
      <trkpt lat="43.2178" lon="5.62566">
        <ele>123.2</ele>
        <time>2022-09-21T08:18:50Z</time>
      </trkpt>
      <trkpt lat="43.21785" lon="5.62565">
        <ele>123.8</ele>
        <time>2022-09-21T08:18:56Z</time>
      </trkpt>
      <trkpt lat="43.2179" lon="5.62565">
        <ele>124.3</ele>
        <time>2022-09-21T08:19:02Z</time>
      </trkpt>
      <trkpt lat="43.21796" lon="5.62566">
        <ele>125</ele>
        <time>2022-09-21T08:19:10Z</time>
      </trkpt>
      <trkpt lat="43.21802" lon="5.62566">
        <ele>125.6</ele>
        <time>2022-09-21T08:19:16Z</time>
      </trkpt>
      <trkpt lat="43.21808" lon="5.62564">
        <ele>126.4</ele>
        <time>2022-09-21T08:19:22Z</time>
      </trkpt>
      <trkpt lat="43.21814" lon="5.62563">
        <ele>127.2</ele>
        <time>2022-09-21T08:19:28Z</time>
      </trkpt>
      <trkpt lat="43.21819" lon="5.62563">
        <ele>127.9</ele>
        <time>2022-09-21T08:19:34Z</time>
      </trkpt>
      <trkpt lat="43.21824" lon="5.62564">
        <ele>128.6</ele>
        <time>2022-09-21T08:19:40Z</time>
      </trkpt>
      <trkpt lat="43.21829" lon="5.62566">
        <ele>129.3</ele>
        <time>2022-09-21T08:19:46Z</time>
      </trkpt>
      <trkpt lat="43.21834" lon="5.62565">
        <ele>130.1</ele>
        <time>2022-09-21T08:19:52Z</time>
      </trkpt>
      <trkpt lat="43.2184" lon="5.62566">
        <ele>130.8</ele>
        <time>2022-09-21T08:19:58Z</time>
      </trkpt>
      <trkpt lat="43.21845" lon="5.62565">
        <ele>131.4</ele>
        <time>2022-09-21T08:20:04Z</time>
      </trkpt>
      <trkpt lat="43.2185" lon="5.62566">
        <ele>132</ele>
        <time>2022-09-21T08:20:10Z</time>
      </trkpt>
      <trkpt lat="43.21854" lon="5.62567">
        <ele>132.6</ele>
        <time>2022-09-21T08:20:16Z</time>
      </trkpt>
      <trkpt lat="43.2186" lon="5.62569">
        <ele>133.3</ele>
        <time>2022-09-21T08:20:24Z</time>
      </trkpt>
      <trkpt lat="43.21865" lon="5.62568">
        <ele>134</ele>
        <time>2022-09-21T08:20:30Z</time>
      </trkpt>
      <trkpt lat="43.2187" lon="5.62567">
        <ele>134.7</ele>
        <time>2022-09-21T08:20:36Z</time>
      </trkpt>
      <trkpt lat="43.21875" lon="5.62564">
        <ele>135.3</ele>
        <time>2022-09-21T08:20:42Z</time>
      </trkpt>
      <trkpt lat="43.2188" lon="5.62561">
        <ele>135.9</ele>
        <time>2022-09-21T08:20:48Z</time>
      </trkpt>
      <trkpt lat="43.21886" lon="5.62562">
        <ele>136.8</ele>
        <time>2022-09-21T08:21:08Z</time>
      </trkpt>
      <trkpt lat="43.21891" lon="5.62565">
        <ele>137.5</ele>
        <time>2022-09-21T08:21:14Z</time>
      </trkpt>
      <trkpt lat="43.21896" lon="5.62567">
        <ele>138.2</ele>
        <time>2022-09-21T08:21:20Z</time>
      </trkpt>
      <trkpt lat="43.21901" lon="5.62566">
        <ele>138.8</ele>
        <time>2022-09-21T08:21:26Z</time>
      </trkpt>
      <trkpt lat="43.21906" lon="5.62564">
        <ele>139.3</ele>
        <time>2022-09-21T08:21:32Z</time>
      </trkpt>
      <trkpt lat="43.21911" lon="5.62562">
        <ele>139.9</ele>
        <time>2022-09-21T08:21:38Z</time>
      </trkpt>
      <trkpt lat="43.21917" lon="5.62561">
        <ele>140.5</ele>
        <time>2022-09-21T08:21:44Z</time>
      </trkpt>
      <trkpt lat="43.21923" lon="5.6256">
        <ele>141.1</ele>
        <time>2022-09-21T08:21:50Z</time>
      </trkpt>
      <trkpt lat="43.21929" lon="5.62559">
        <ele>141.6</ele>
        <time>2022-09-21T08:21:56Z</time>
      </trkpt>
      <trkpt lat="43.21933" lon="5.62558">
        <ele>142.1</ele>
        <time>2022-09-21T08:22:02Z</time>
      </trkpt>
      <trkpt lat="43.21939" lon="5.6256">
        <ele>142.8</ele>
        <time>2022-09-21T08:22:08Z</time>
      </trkpt>
      <trkpt lat="43.21944" lon="5.62559">
        <ele>143.4</ele>
        <time>2022-09-21T08:22:14Z</time>
      </trkpt>
      <trkpt lat="43.21949" lon="5.62557">
        <ele>143.7</ele>
        <time>2022-09-21T08:22:20Z</time>
      </trkpt>
      <trkpt lat="43.21956" lon="5.62557">
        <ele>144.4</ele>
        <time>2022-09-21T08:22:26Z</time>
      </trkpt>
      <trkpt lat="43.21961" lon="5.62557">
        <ele>144.9</ele>
        <time>2022-09-21T08:22:32Z</time>
      </trkpt>
      <trkpt lat="43.21966" lon="5.62557">
        <ele>145.4</ele>
        <time>2022-09-21T08:22:38Z</time>
      </trkpt>
      <trkpt lat="43.21971" lon="5.62557">
        <ele>146</ele>
        <time>2022-09-21T08:22:44Z</time>
      </trkpt>
      <trkpt lat="43.21977" lon="5.62558">
        <ele>146.6</ele>
        <time>2022-09-21T08:22:52Z</time>
      </trkpt>
      <trkpt lat="43.21981" lon="5.62558">
        <ele>147</ele>
        <time>2022-09-21T08:22:58Z</time>
      </trkpt>
      <trkpt lat="43.21986" lon="5.6256">
        <ele>147.6</ele>
        <time>2022-09-21T08:23:04Z</time>
      </trkpt>
      <trkpt lat="43.21991" lon="5.62562">
        <ele>148.2</ele>
        <time>2022-09-21T08:23:10Z</time>
      </trkpt>
      <trkpt lat="43.21995" lon="5.62564">
        <ele>148.9</ele>
        <time>2022-09-21T08:23:16Z</time>
      </trkpt>
      <trkpt lat="43.22" lon="5.62565">
        <ele>149.3</ele>
        <time>2022-09-21T08:23:22Z</time>
      </trkpt>
      <trkpt lat="43.22004" lon="5.62567">
        <ele>150.2</ele>
        <time>2022-09-21T08:23:28Z</time>
      </trkpt>
      <trkpt lat="43.2201" lon="5.62568">
        <ele>150.9</ele>
        <time>2022-09-21T08:23:34Z</time>
      </trkpt>
      <trkpt lat="43.22016" lon="5.62567">
        <ele>151.3</ele>
        <time>2022-09-21T08:23:40Z</time>
      </trkpt>
      <trkpt lat="43.22021" lon="5.62568">
        <ele>152</ele>
        <time>2022-09-21T08:23:46Z</time>
      </trkpt>
      <trkpt lat="43.22026" lon="5.62568">
        <ele>152.7</ele>
        <time>2022-09-21T08:23:52Z</time>
      </trkpt>
      <trkpt lat="43.22032" lon="5.62568">
        <ele>153.2</ele>
        <time>2022-09-21T08:23:58Z</time>
      </trkpt>
      <trkpt lat="43.22036" lon="5.62567">
        <ele>153.8</ele>
        <time>2022-09-21T08:24:04Z</time>
      </trkpt>
      <trkpt lat="43.22042" lon="5.62566">
        <ele>154.3</ele>
        <time>2022-09-21T08:24:10Z</time>
      </trkpt>
      <trkpt lat="43.22047" lon="5.62564">
        <ele>154.9</ele>
        <time>2022-09-21T08:24:16Z</time>
      </trkpt>
      <trkpt lat="43.22052" lon="5.62563">
        <ele>155.4</ele>
        <time>2022-09-21T08:24:22Z</time>
      </trkpt>
      <trkpt lat="43.22057" lon="5.62562">
        <ele>155.9</ele>
        <time>2022-09-21T08:24:28Z</time>
      </trkpt>
      <trkpt lat="43.22062" lon="5.62561">
        <ele>156.3</ele>
        <time>2022-09-21T08:24:34Z</time>
      </trkpt>
      <trkpt lat="43.22068" lon="5.62558">
        <ele>156.6</ele>
        <time>2022-09-21T08:24:40Z</time>
      </trkpt>
      <trkpt lat="43.22073" lon="5.62556">
        <ele>156.9</ele>
        <time>2022-09-21T08:24:44Z</time>
      </trkpt>
      <trkpt lat="43.22078" lon="5.62556">
        <ele>157.4</ele>
        <time>2022-09-21T08:24:50Z</time>
      </trkpt>
      <trkpt lat="43.22083" lon="5.62556">
        <ele>158</ele>
        <time>2022-09-21T08:24:56Z</time>
      </trkpt>
      <trkpt lat="43.22088" lon="5.62558">
        <ele>158.5</ele>
        <time>2022-09-21T08:25:04Z</time>
      </trkpt>
      <trkpt lat="43.22093" lon="5.6256">
        <ele>159.1</ele>
        <time>2022-09-21T08:25:10Z</time>
      </trkpt>
      <trkpt lat="43.22097" lon="5.62564">
        <ele>159.8</ele>
        <time>2022-09-21T08:25:16Z</time>
      </trkpt>
      <trkpt lat="43.22101" lon="5.62568">
        <ele>160.4</ele>
        <time>2022-09-21T08:25:20Z</time>
      </trkpt>
      <trkpt lat="43.22106" lon="5.6257">
        <ele>161.1</ele>
        <time>2022-09-21T08:25:26Z</time>
      </trkpt>
      <trkpt lat="43.22112" lon="5.62573">
        <ele>161.8</ele>
        <time>2022-09-21T08:25:32Z</time>
      </trkpt>
      <trkpt lat="43.22117" lon="5.62576">
        <ele>162</ele>
        <time>2022-09-21T08:25:38Z</time>
      </trkpt>
      <trkpt lat="43.22121" lon="5.6258">
        <ele>162.5</ele>
        <time>2022-09-21T08:25:44Z</time>
      </trkpt>
      <trkpt lat="43.22126" lon="5.62585">
        <ele>163.1</ele>
        <time>2022-09-21T08:25:50Z</time>
      </trkpt>
      <trkpt lat="43.22131" lon="5.6259">
        <ele>163.6</ele>
        <time>2022-09-21T08:25:56Z</time>
      </trkpt>
      <trkpt lat="43.22137" lon="5.62596">
        <ele>164.3</ele>
        <time>2022-09-21T08:26:02Z</time>
      </trkpt>
      <trkpt lat="43.22142" lon="5.62599">
        <ele>164.8</ele>
        <time>2022-09-21T08:26:08Z</time>
      </trkpt>
      <trkpt lat="43.22147" lon="5.62602">
        <ele>165.3</ele>
        <time>2022-09-21T08:26:14Z</time>
      </trkpt>
      <trkpt lat="43.22153" lon="5.62606">
        <ele>165.9</ele>
        <time>2022-09-21T08:26:22Z</time>
      </trkpt>
      <trkpt lat="43.22157" lon="5.62608">
        <ele>166.3</ele>
        <time>2022-09-21T08:26:28Z</time>
      </trkpt>
      <trkpt lat="43.22163" lon="5.62611">
        <ele>166.9</ele>
        <time>2022-09-21T08:26:36Z</time>
      </trkpt>
      <trkpt lat="43.22168" lon="5.62614">
        <ele>167</ele>
        <time>2022-09-21T08:26:40Z</time>
      </trkpt>
      <trkpt lat="43.22174" lon="5.62617">
        <ele>167.1</ele>
        <time>2022-09-21T08:26:46Z</time>
      </trkpt>
      <trkpt lat="43.22179" lon="5.6262">
        <ele>167.2</ele>
        <time>2022-09-21T08:26:52Z</time>
      </trkpt>
      <trkpt lat="43.22184" lon="5.62626">
        <ele>167.6</ele>
        <time>2022-09-21T08:26:58Z</time>
      </trkpt>
      <trkpt lat="43.22188" lon="5.62632">
        <ele>168.2</ele>
        <time>2022-09-21T08:27:04Z</time>
      </trkpt>
      <trkpt lat="43.22192" lon="5.62637">
        <ele>168.7</ele>
        <time>2022-09-21T08:27:10Z</time>
      </trkpt>
      <trkpt lat="43.22196" lon="5.62643">
        <ele>169.1</ele>
        <time>2022-09-21T08:27:16Z</time>
      </trkpt>
      <trkpt lat="43.22199" lon="5.6265">
        <ele>169.3</ele>
        <time>2022-09-21T08:27:24Z</time>
      </trkpt>
      <trkpt lat="43.22201" lon="5.62655">
        <ele>169.5</ele>
        <time>2022-09-21T08:27:30Z</time>
      </trkpt>
      <trkpt lat="43.22205" lon="5.62662">
        <ele>169.8</ele>
        <time>2022-09-21T08:27:36Z</time>
      </trkpt>
      <trkpt lat="43.22208" lon="5.62667">
        <ele>170.1</ele>
        <time>2022-09-21T08:27:42Z</time>
      </trkpt>
      <trkpt lat="43.2221" lon="5.62674">
        <ele>170.2</ele>
        <time>2022-09-21T08:27:48Z</time>
      </trkpt>
      <trkpt lat="43.2221" lon="5.62683">
        <ele>170.5</ele>
        <time>2022-09-21T08:27:54Z</time>
      </trkpt>
      <trkpt lat="43.22211" lon="5.62691">
        <ele>170.9</ele>
        <time>2022-09-21T08:28:00Z</time>
      </trkpt>
      <trkpt lat="43.22214" lon="5.62696">
        <ele>171.1</ele>
        <time>2022-09-21T08:28:04Z</time>
      </trkpt>
      <trkpt lat="43.22216" lon="5.62702">
        <ele>171.5</ele>
        <time>2022-09-21T08:28:10Z</time>
      </trkpt>
      <trkpt lat="43.2222" lon="5.62707">
        <ele>171.8</ele>
        <time>2022-09-21T08:29:18Z</time>
      </trkpt>
      <trkpt lat="43.22218" lon="5.62714">
        <ele>172.2</ele>
        <time>2022-09-21T08:29:26Z</time>
      </trkpt>
      <trkpt lat="43.22218" lon="5.6272">
        <ele>172.6</ele>
        <time>2022-09-21T08:29:32Z</time>
      </trkpt>
      <trkpt lat="43.22221" lon="5.62726">
        <ele>173.2</ele>
        <time>2022-09-21T08:29:38Z</time>
      </trkpt>
      <trkpt lat="43.22224" lon="5.62732">
        <ele>173.5</ele>
        <time>2022-09-21T08:29:52Z</time>
      </trkpt>
      <trkpt lat="43.22228" lon="5.62737">
        <ele>173.6</ele>
        <time>2022-09-21T08:30:06Z</time>
      </trkpt>
      <trkpt lat="43.22231" lon="5.62742">
        <ele>174</ele>
        <time>2022-09-21T08:30:12Z</time>
      </trkpt>
      <trkpt lat="43.22235" lon="5.62747">
        <ele>174.7</ele>
        <time>2022-09-21T08:30:20Z</time>
      </trkpt>
      <trkpt lat="43.22238" lon="5.62752">
        <ele>175</ele>
        <time>2022-09-21T08:30:26Z</time>
      </trkpt>
      <trkpt lat="43.22241" lon="5.62757">
        <ele>175.3</ele>
        <time>2022-09-21T08:30:32Z</time>
      </trkpt>
      <trkpt lat="43.22244" lon="5.62763">
        <ele>175.8</ele>
        <time>2022-09-21T08:30:38Z</time>
      </trkpt>
      <trkpt lat="43.22248" lon="5.62768">
        <ele>176.7</ele>
        <time>2022-09-21T08:30:44Z</time>
      </trkpt>
      <trkpt lat="43.2225" lon="5.62776">
        <ele>177.8</ele>
        <time>2022-09-21T08:30:52Z</time>
      </trkpt>
      <trkpt lat="43.2225" lon="5.62784">
        <ele>178.2</ele>
        <time>2022-09-21T08:30:58Z</time>
      </trkpt>
      <trkpt lat="43.22252" lon="5.6279">
        <ele>178.5</ele>
        <time>2022-09-21T08:31:04Z</time>
      </trkpt>
      <trkpt lat="43.22251" lon="5.62797">
        <ele>178.7</ele>
        <time>2022-09-21T08:31:10Z</time>
      </trkpt>
      <trkpt lat="43.22251" lon="5.62806">
        <ele>179</ele>
        <time>2022-09-21T08:31:16Z</time>
      </trkpt>
      <trkpt lat="43.22252" lon="5.62814">
        <ele>179.7</ele>
        <time>2022-09-21T08:31:22Z</time>
      </trkpt>
      <trkpt lat="43.22254" lon="5.6282">
        <ele>180.2</ele>
        <time>2022-09-21T08:31:26Z</time>
      </trkpt>
      <trkpt lat="43.22255" lon="5.62826">
        <ele>180.7</ele>
        <time>2022-09-21T08:31:30Z</time>
      </trkpt>
      <trkpt lat="43.22258" lon="5.62834">
        <ele>181.3</ele>
        <time>2022-09-21T08:31:36Z</time>
      </trkpt>
      <trkpt lat="43.2226" lon="5.6284">
        <ele>181.6</ele>
        <time>2022-09-21T08:31:40Z</time>
      </trkpt>
      <trkpt lat="43.22262" lon="5.62849">
        <ele>182</ele>
        <time>2022-09-21T08:31:46Z</time>
      </trkpt>
      <trkpt lat="43.22264" lon="5.62856">
        <ele>182.3</ele>
        <time>2022-09-21T08:31:52Z</time>
      </trkpt>
      <trkpt lat="43.22267" lon="5.62865">
        <ele>182.7</ele>
        <time>2022-09-21T08:31:58Z</time>
      </trkpt>
      <trkpt lat="43.22269" lon="5.62872">
        <ele>182.9</ele>
        <time>2022-09-21T08:32:04Z</time>
      </trkpt>
      <trkpt lat="43.2227" lon="5.62879">
        <ele>183.2</ele>
        <time>2022-09-21T08:32:10Z</time>
      </trkpt>
      <trkpt lat="43.22271" lon="5.62887">
        <ele>183.5</ele>
        <time>2022-09-21T08:32:16Z</time>
      </trkpt>
      <trkpt lat="43.22272" lon="5.62897">
        <ele>183.9</ele>
        <time>2022-09-21T08:32:22Z</time>
      </trkpt>
      <trkpt lat="43.22276" lon="5.62902">
        <ele>184.4</ele>
        <time>2022-09-21T08:32:28Z</time>
      </trkpt>
      <trkpt lat="43.22281" lon="5.62906">
        <ele>184.6</ele>
        <time>2022-09-21T08:32:34Z</time>
      </trkpt>
      <trkpt lat="43.22285" lon="5.62912">
        <ele>184.8</ele>
        <time>2022-09-21T08:32:40Z</time>
      </trkpt>
      <trkpt lat="43.22289" lon="5.62917">
        <ele>185</ele>
        <time>2022-09-21T08:32:46Z</time>
      </trkpt>
      <trkpt lat="43.22293" lon="5.62922">
        <ele>185.1</ele>
        <time>2022-09-21T08:32:54Z</time>
      </trkpt>
      <trkpt lat="43.22296" lon="5.62927">
        <ele>185.3</ele>
        <time>2022-09-21T08:33:00Z</time>
      </trkpt>
      <trkpt lat="43.22299" lon="5.62932">
        <ele>185.4</ele>
        <time>2022-09-21T08:33:08Z</time>
      </trkpt>
      <trkpt lat="43.22304" lon="5.62937">
        <ele>185.7</ele>
        <time>2022-09-21T08:34:20Z</time>
      </trkpt>
      <trkpt lat="43.22306" lon="5.62944">
        <ele>185.9</ele>
        <time>2022-09-21T08:34:30Z</time>
      </trkpt>
      <trkpt lat="43.22308" lon="5.6295">
        <ele>186</ele>
        <time>2022-09-21T08:34:34Z</time>
      </trkpt>
      <trkpt lat="43.2231" lon="5.62956">
        <ele>186.1</ele>
        <time>2022-09-21T08:34:38Z</time>
      </trkpt>
      <trkpt lat="43.22312" lon="5.62963">
        <ele>186.1</ele>
        <time>2022-09-21T08:34:44Z</time>
      </trkpt>
      <trkpt lat="43.22313" lon="5.62969">
        <ele>186.2</ele>
        <time>2022-09-21T08:34:48Z</time>
      </trkpt>
      <trkpt lat="43.22315" lon="5.62978">
        <ele>186</ele>
        <time>2022-09-21T08:34:54Z</time>
      </trkpt>
      <trkpt lat="43.22316" lon="5.62985">
        <ele>185.8</ele>
        <time>2022-09-21T08:35:00Z</time>
      </trkpt>
      <trkpt lat="43.22315" lon="5.62994">
        <ele>185.9</ele>
        <time>2022-09-21T08:35:08Z</time>
      </trkpt>
      <trkpt lat="43.22313" lon="5.63">
        <ele>186.3</ele>
        <time>2022-09-21T08:35:12Z</time>
      </trkpt>
      <trkpt lat="43.22312" lon="5.63007">
        <ele>186.5</ele>
        <time>2022-09-21T08:35:16Z</time>
      </trkpt>
      <trkpt lat="43.22312" lon="5.63015">
        <ele>186.3</ele>
        <time>2022-09-21T08:35:20Z</time>
      </trkpt>
      <trkpt lat="43.22311" lon="5.63023">
        <ele>186.3</ele>
        <time>2022-09-21T08:35:26Z</time>
      </trkpt>
      <trkpt lat="43.22312" lon="5.63029">
        <ele>186.1</ele>
        <time>2022-09-21T08:35:30Z</time>
      </trkpt>
      <trkpt lat="43.22315" lon="5.63037">
        <ele>185.9</ele>
        <time>2022-09-21T08:35:36Z</time>
      </trkpt>
      <trkpt lat="43.22318" lon="5.63043">
        <ele>185.7</ele>
        <time>2022-09-21T08:35:42Z</time>
      </trkpt>
      <trkpt lat="43.22321" lon="5.6305">
        <ele>185.6</ele>
        <time>2022-09-21T08:35:48Z</time>
      </trkpt>
      <trkpt lat="43.22323" lon="5.63058">
        <ele>185.8</ele>
        <time>2022-09-21T08:35:54Z</time>
      </trkpt>
      <trkpt lat="43.22325" lon="5.63065">
        <ele>186</ele>
        <time>2022-09-21T08:36:00Z</time>
      </trkpt>
      <trkpt lat="43.22327" lon="5.63073">
        <ele>186.3</ele>
        <time>2022-09-21T08:36:06Z</time>
      </trkpt>
      <trkpt lat="43.22329" lon="5.63081">
        <ele>186.7</ele>
        <time>2022-09-21T08:36:12Z</time>
      </trkpt>
      <trkpt lat="43.2233" lon="5.63089">
        <ele>186.9</ele>
        <time>2022-09-21T08:36:18Z</time>
      </trkpt>
      <trkpt lat="43.2233" lon="5.63098">
        <ele>186.8</ele>
        <time>2022-09-21T08:36:24Z</time>
      </trkpt>
      <trkpt lat="43.22333" lon="5.63106">
        <ele>187</ele>
        <time>2022-09-21T08:36:30Z</time>
      </trkpt>
      <trkpt lat="43.22334" lon="5.63113">
        <ele>187</ele>
        <time>2022-09-21T08:36:34Z</time>
      </trkpt>
      <trkpt lat="43.22336" lon="5.6312">
        <ele>187.2</ele>
        <time>2022-09-21T08:36:40Z</time>
      </trkpt>
      <trkpt lat="43.22339" lon="5.63126">
        <ele>187.3</ele>
        <time>2022-09-21T08:36:46Z</time>
      </trkpt>
      <trkpt lat="43.2234" lon="5.63132">
        <ele>187.6</ele>
        <time>2022-09-21T08:36:50Z</time>
      </trkpt>
      <trkpt lat="43.22341" lon="5.63139">
        <ele>188</ele>
        <time>2022-09-21T08:36:56Z</time>
      </trkpt>
      <trkpt lat="43.22344" lon="5.63147">
        <ele>188.4</ele>
        <time>2022-09-21T08:37:02Z</time>
      </trkpt>
      <trkpt lat="43.22346" lon="5.63156">
        <ele>188.9</ele>
        <time>2022-09-21T08:37:08Z</time>
      </trkpt>
      <trkpt lat="43.22348" lon="5.63162">
        <ele>189.3</ele>
        <time>2022-09-21T08:37:12Z</time>
      </trkpt>
      <trkpt lat="43.2235" lon="5.63168">
        <ele>189.6</ele>
        <time>2022-09-21T08:37:16Z</time>
      </trkpt>
      <trkpt lat="43.22353" lon="5.63175">
        <ele>189.9</ele>
        <time>2022-09-21T08:37:22Z</time>
      </trkpt>
      <trkpt lat="43.22354" lon="5.63181">
        <ele>190.1</ele>
        <time>2022-09-21T08:37:28Z</time>
      </trkpt>
      <trkpt lat="43.22356" lon="5.63188">
        <ele>190.4</ele>
        <time>2022-09-21T08:37:34Z</time>
      </trkpt>
      <trkpt lat="43.2236" lon="5.63194">
        <ele>190.9</ele>
        <time>2022-09-21T08:37:40Z</time>
      </trkpt>
      <trkpt lat="43.2236" lon="5.63201">
        <ele>191.4</ele>
        <time>2022-09-21T08:37:46Z</time>
      </trkpt>
      <trkpt lat="43.22362" lon="5.63207">
        <ele>191.8</ele>
        <time>2022-09-21T08:37:52Z</time>
      </trkpt>
      <trkpt lat="43.22366" lon="5.63213">
        <ele>192.1</ele>
        <time>2022-09-21T08:37:58Z</time>
      </trkpt>
      <trkpt lat="43.22368" lon="5.6322">
        <ele>192.7</ele>
        <time>2022-09-21T08:38:04Z</time>
      </trkpt>
      <trkpt lat="43.2237" lon="5.63226">
        <ele>193.4</ele>
        <time>2022-09-21T08:38:10Z</time>
      </trkpt>
      <trkpt lat="43.22373" lon="5.63232">
        <ele>194</ele>
        <time>2022-09-21T08:38:16Z</time>
      </trkpt>
      <trkpt lat="43.22375" lon="5.63238">
        <ele>194.7</ele>
        <time>2022-09-21T08:38:22Z</time>
      </trkpt>
      <trkpt lat="43.22375" lon="5.63246">
        <ele>195.6</ele>
        <time>2022-09-21T08:38:30Z</time>
      </trkpt>
      <trkpt lat="43.22374" lon="5.63253">
        <ele>196</ele>
        <time>2022-09-21T08:38:36Z</time>
      </trkpt>
      <trkpt lat="43.22374" lon="5.6326">
        <ele>196.3</ele>
        <time>2022-09-21T08:38:42Z</time>
      </trkpt>
      <trkpt lat="43.22377" lon="5.63268">
        <ele>196.9</ele>
        <time>2022-09-21T08:38:48Z</time>
      </trkpt>
      <trkpt lat="43.2238" lon="5.63275">
        <ele>197.6</ele>
        <time>2022-09-21T08:38:54Z</time>
      </trkpt>
      <trkpt lat="43.22382" lon="5.63281">
        <ele>198</ele>
        <time>2022-09-21T08:39:00Z</time>
      </trkpt>
      <trkpt lat="43.22385" lon="5.63286">
        <ele>198.4</ele>
        <time>2022-09-21T08:39:06Z</time>
      </trkpt>
      <trkpt lat="43.2239" lon="5.6329">
        <ele>199.1</ele>
        <time>2022-09-21T08:39:12Z</time>
      </trkpt>
      <trkpt lat="43.22394" lon="5.63293">
        <ele>199.6</ele>
        <time>2022-09-21T08:39:18Z</time>
      </trkpt>
      <trkpt lat="43.22399" lon="5.63295">
        <ele>200.2</ele>
        <time>2022-09-21T08:39:24Z</time>
      </trkpt>
      <trkpt lat="43.22403" lon="5.63298">
        <ele>200.8</ele>
        <time>2022-09-21T08:39:32Z</time>
      </trkpt>
      <trkpt lat="43.22408" lon="5.63302">
        <ele>201.5</ele>
        <time>2022-09-21T08:39:38Z</time>
      </trkpt>
      <trkpt lat="43.22411" lon="5.63305">
        <ele>202.2</ele>
        <time>2022-09-21T08:39:44Z</time>
      </trkpt>
      <trkpt lat="43.22415" lon="5.63309">
        <ele>202.9</ele>
        <time>2022-09-21T08:39:52Z</time>
      </trkpt>
      <trkpt lat="43.22417" lon="5.63316">
        <ele>203.4</ele>
        <time>2022-09-21T08:40:02Z</time>
      </trkpt>
      <trkpt lat="43.22418" lon="5.63322">
        <ele>203.7</ele>
        <time>2022-09-21T08:40:08Z</time>
      </trkpt>
      <trkpt lat="43.22417" lon="5.63329">
        <ele>203.9</ele>
        <time>2022-09-21T08:40:14Z</time>
      </trkpt>
      <trkpt lat="43.22415" lon="5.63336">
        <ele>203.7</ele>
        <time>2022-09-21T08:40:22Z</time>
      </trkpt>
      <trkpt lat="43.22413" lon="5.63342">
        <ele>203.2</ele>
        <time>2022-09-21T08:40:28Z</time>
      </trkpt>
      <trkpt lat="43.22412" lon="5.63349">
        <ele>203.1</ele>
        <time>2022-09-21T08:40:34Z</time>
      </trkpt>
      <trkpt lat="43.22411" lon="5.63357">
        <ele>203</ele>
        <time>2022-09-21T08:40:40Z</time>
      </trkpt>
      <trkpt lat="43.22411" lon="5.63363">
        <ele>203</ele>
        <time>2022-09-21T08:40:46Z</time>
      </trkpt>
      <trkpt lat="43.22412" lon="5.63371">
        <ele>203</ele>
        <time>2022-09-21T08:40:52Z</time>
      </trkpt>
      <trkpt lat="43.2241" lon="5.63378">
        <ele>202.7</ele>
        <time>2022-09-21T08:40:58Z</time>
      </trkpt>
      <trkpt lat="43.22411" lon="5.63387">
        <ele>202.7</ele>
        <time>2022-09-21T08:41:04Z</time>
      </trkpt>
      <trkpt lat="43.2241" lon="5.63395">
        <ele>201.6</ele>
        <time>2022-09-21T08:41:10Z</time>
      </trkpt>
      <trkpt lat="43.2241" lon="5.63402">
        <ele>200.6</ele>
        <time>2022-09-21T08:41:18Z</time>
      </trkpt>
      <trkpt lat="43.22411" lon="5.6341">
        <ele>199.7</ele>
        <time>2022-09-21T08:41:26Z</time>
      </trkpt>
      <trkpt lat="43.22412" lon="5.63416">
        <ele>198.9</ele>
        <time>2022-09-21T08:41:32Z</time>
      </trkpt>
      <trkpt lat="43.22414" lon="5.63422">
        <ele>197.3</ele>
        <time>2022-09-21T08:41:38Z</time>
      </trkpt>
      <trkpt lat="43.22416" lon="5.63429">
        <ele>195.3</ele>
        <time>2022-09-21T08:41:48Z</time>
      </trkpt>
      <trkpt lat="43.2242" lon="5.63434">
        <ele>194.6</ele>
        <time>2022-09-21T08:41:56Z</time>
      </trkpt>
      <trkpt lat="43.22424" lon="5.63439">
        <ele>194</ele>
        <time>2022-09-21T08:42:02Z</time>
      </trkpt>
      <trkpt lat="43.22429" lon="5.63444">
        <ele>193.5</ele>
        <time>2022-09-21T08:42:08Z</time>
      </trkpt>
      <trkpt lat="43.22432" lon="5.63449">
        <ele>193.1</ele>
        <time>2022-09-21T08:42:12Z</time>
      </trkpt>
      <trkpt lat="43.22435" lon="5.63454">
        <ele>192.2</ele>
        <time>2022-09-21T08:42:20Z</time>
      </trkpt>
      <trkpt lat="43.22439" lon="5.63462">
        <ele>191.2</ele>
        <time>2022-09-21T08:42:28Z</time>
      </trkpt>
      <trkpt lat="43.22441" lon="5.63468">
        <ele>190.2</ele>
        <time>2022-09-21T08:42:32Z</time>
      </trkpt>
      <trkpt lat="43.22445" lon="5.63474">
        <ele>189.8</ele>
        <time>2022-09-21T08:42:38Z</time>
      </trkpt>
      <trkpt lat="43.22449" lon="5.63478">
        <ele>190.2</ele>
        <time>2022-09-21T08:42:44Z</time>
      </trkpt>
      <trkpt lat="43.22452" lon="5.63485">
        <ele>189.6</ele>
        <time>2022-09-21T08:42:52Z</time>
      </trkpt>
      <trkpt lat="43.22454" lon="5.63491">
        <ele>188.9</ele>
        <time>2022-09-21T08:42:58Z</time>
      </trkpt>
      <trkpt lat="43.22455" lon="5.63485">
        <ele>190.9</ele>
        <time>2022-09-21T08:43:10Z</time>
      </trkpt>
      <trkpt lat="43.22456" lon="5.63478">
        <ele>192.7</ele>
        <time>2022-09-21T08:43:18Z</time>
      </trkpt>
      <trkpt lat="43.22451" lon="5.63474">
        <ele>192.2</ele>
        <time>2022-09-21T08:43:26Z</time>
      </trkpt>
      <trkpt lat="43.22447" lon="5.6347">
        <ele>191.6</ele>
        <time>2022-09-21T08:43:36Z</time>
      </trkpt>
      <trkpt lat="43.22443" lon="5.63464">
        <ele>191.8</ele>
        <time>2022-09-21T08:43:46Z</time>
      </trkpt>
      <trkpt lat="43.22437" lon="5.63462">
        <ele>190.7</ele>
        <time>2022-09-21T08:43:52Z</time>
      </trkpt>
      <trkpt lat="43.22432" lon="5.63459">
        <ele>190.1</ele>
        <time>2022-09-21T08:43:58Z</time>
      </trkpt>
      <trkpt lat="43.22428" lon="5.63456">
        <ele>189.5</ele>
        <time>2022-09-21T08:44:02Z</time>
      </trkpt>
      <trkpt lat="43.22423" lon="5.63455">
        <ele>188.5</ele>
        <time>2022-09-21T08:44:08Z</time>
      </trkpt>
      <trkpt lat="43.22417" lon="5.63453">
        <ele>187.5</ele>
        <time>2022-09-21T08:44:18Z</time>
      </trkpt>
      <trkpt lat="43.22412" lon="5.6345">
        <ele>187</ele>
        <time>2022-09-21T08:44:28Z</time>
      </trkpt>
      <trkpt lat="43.22405" lon="5.63447">
        <ele>185.7</ele>
        <time>2022-09-21T08:44:38Z</time>
      </trkpt>
      <trkpt lat="43.22399" lon="5.63446">
        <ele>184.5</ele>
        <time>2022-09-21T08:44:42Z</time>
      </trkpt>
      <trkpt lat="43.22394" lon="5.63449">
        <ele>182.2</ele>
        <time>2022-09-21T08:44:46Z</time>
      </trkpt>
      <trkpt lat="43.22394" lon="5.63456">
        <ele>179.7</ele>
        <time>2022-09-21T08:44:54Z</time>
      </trkpt>
      <trkpt lat="43.22397" lon="5.63462">
        <ele>178.7</ele>
        <time>2022-09-21T08:45:00Z</time>
      </trkpt>
      <trkpt lat="43.22399" lon="5.63468">
        <ele>177.3</ele>
        <time>2022-09-21T08:45:04Z</time>
      </trkpt>
      <trkpt lat="43.22401" lon="5.63474">
        <ele>176</ele>
        <time>2022-09-21T08:45:08Z</time>
      </trkpt>
      <trkpt lat="43.22404" lon="5.63481">
        <ele>175.4</ele>
        <time>2022-09-21T08:45:14Z</time>
      </trkpt>
      <trkpt lat="43.22407" lon="5.63487">
        <ele>174.9</ele>
        <time>2022-09-21T08:45:20Z</time>
      </trkpt>
      <trkpt lat="43.22411" lon="5.63492">
        <ele>174.8</ele>
        <time>2022-09-21T08:45:26Z</time>
      </trkpt>
      <trkpt lat="43.22414" lon="5.63497">
        <ele>174.3</ele>
        <time>2022-09-21T08:45:30Z</time>
      </trkpt>
      <trkpt lat="43.22415" lon="5.63504">
        <ele>174.2</ele>
        <time>2022-09-21T08:45:34Z</time>
      </trkpt>
      <trkpt lat="43.22418" lon="5.6351">
        <ele>175.6</ele>
        <time>2022-09-21T08:45:40Z</time>
      </trkpt>
      <trkpt lat="43.22419" lon="5.63504">
        <ele>175.2</ele>
        <time>2022-09-21T08:46:16Z</time>
      </trkpt>
      <trkpt lat="43.22414" lon="5.63503">
        <ele>173.9</ele>
        <time>2022-09-21T08:46:22Z</time>
      </trkpt>
      <trkpt lat="43.22409" lon="5.635">
        <ele>172.4</ele>
        <time>2022-09-21T08:46:34Z</time>
      </trkpt>
      <trkpt lat="43.22404" lon="5.63497">
        <ele>171.9</ele>
        <time>2022-09-21T08:46:40Z</time>
      </trkpt>
      <trkpt lat="43.224" lon="5.63495">
        <ele>171.5</ele>
        <time>2022-09-21T08:46:48Z</time>
      </trkpt>
      <trkpt lat="43.22396" lon="5.63493">
        <ele>170.9</ele>
        <time>2022-09-21T08:46:58Z</time>
      </trkpt>
      <trkpt lat="43.22392" lon="5.63489">
        <ele>170.6</ele>
        <time>2022-09-21T08:47:08Z</time>
      </trkpt>
      <trkpt lat="43.22386" lon="5.63488">
        <ele>169.7</ele>
        <time>2022-09-21T08:47:22Z</time>
      </trkpt>
      <trkpt lat="43.22382" lon="5.63491">
        <ele>168.5</ele>
        <time>2022-09-21T08:47:32Z</time>
      </trkpt>
      <trkpt lat="43.22376" lon="5.63492">
        <ele>167.5</ele>
        <time>2022-09-21T08:48:02Z</time>
      </trkpt>
      <trkpt lat="43.22369" lon="5.63488">
        <ele>166.8</ele>
        <time>2022-09-21T08:48:06Z</time>
      </trkpt>
      <trkpt lat="43.22364" lon="5.63484">
        <ele>166.2</ele>
        <time>2022-09-21T08:48:14Z</time>
      </trkpt>
      <trkpt lat="43.22359" lon="5.63481">
        <ele>165.4</ele>
        <time>2022-09-21T08:48:22Z</time>
      </trkpt>
      <trkpt lat="43.22355" lon="5.6348">
        <ele>164.7</ele>
        <time>2022-09-21T08:48:28Z</time>
      </trkpt>
      <trkpt lat="43.22349" lon="5.63478">
        <ele>163.8</ele>
        <time>2022-09-21T08:48:34Z</time>
      </trkpt>
      <trkpt lat="43.22344" lon="5.63474">
        <ele>162.6</ele>
        <time>2022-09-21T08:48:42Z</time>
      </trkpt>
      <trkpt lat="43.2234" lon="5.63471">
        <ele>161.8</ele>
        <time>2022-09-21T08:48:56Z</time>
      </trkpt>
      <trkpt lat="43.22334" lon="5.63473">
        <ele>160.4</ele>
        <time>2022-09-21T08:49:20Z</time>
      </trkpt>
      <trkpt lat="43.22328" lon="5.63474">
        <ele>159.3</ele>
        <time>2022-09-21T08:49:26Z</time>
      </trkpt>
      <trkpt lat="43.22324" lon="5.63474">
        <ele>158.6</ele>
        <time>2022-09-21T08:49:32Z</time>
      </trkpt>
      <trkpt lat="43.22319" lon="5.63476">
        <ele>158</ele>
        <time>2022-09-21T08:49:56Z</time>
      </trkpt>
      <trkpt lat="43.22315" lon="5.63475">
        <ele>156.9</ele>
        <time>2022-09-21T08:50:08Z</time>
      </trkpt>
      <trkpt lat="43.22308" lon="5.63475">
        <ele>155.8</ele>
        <time>2022-09-21T08:50:12Z</time>
      </trkpt>
      <trkpt lat="43.22302" lon="5.63474">
        <ele>154.8</ele>
        <time>2022-09-21T08:50:16Z</time>
      </trkpt>
      <trkpt lat="43.22296" lon="5.63473">
        <ele>154.1</ele>
        <time>2022-09-21T08:50:22Z</time>
      </trkpt>
      <trkpt lat="43.22291" lon="5.63474">
        <ele>153.7</ele>
        <time>2022-09-21T08:50:26Z</time>
      </trkpt>
      <trkpt lat="43.22287" lon="5.63477">
        <ele>153.4</ele>
        <time>2022-09-21T08:50:30Z</time>
      </trkpt>
      <trkpt lat="43.22282" lon="5.6348">
        <ele>153.2</ele>
        <time>2022-09-21T08:50:34Z</time>
      </trkpt>
      <trkpt lat="43.22278" lon="5.63484">
        <ele>152.9</ele>
        <time>2022-09-21T08:50:38Z</time>
      </trkpt>
      <trkpt lat="43.22273" lon="5.63483">
        <ele>152.1</ele>
        <time>2022-09-21T08:50:44Z</time>
      </trkpt>
      <trkpt lat="43.22268" lon="5.63484">
        <ele>151.5</ele>
        <time>2022-09-21T08:50:54Z</time>
      </trkpt>
      <trkpt lat="43.22263" lon="5.63487">
        <ele>151.2</ele>
        <time>2022-09-21T08:51:04Z</time>
      </trkpt>
      <trkpt lat="43.22257" lon="5.63489">
        <ele>150.8</ele>
        <time>2022-09-21T08:51:12Z</time>
      </trkpt>
      <trkpt lat="43.22252" lon="5.63491">
        <ele>150.6</ele>
        <time>2022-09-21T08:51:16Z</time>
      </trkpt>
      <trkpt lat="43.22247" lon="5.63494">
        <ele>150.5</ele>
        <time>2022-09-21T08:51:22Z</time>
      </trkpt>
      <trkpt lat="43.22241" lon="5.63496">
        <ele>150</ele>
        <time>2022-09-21T08:51:28Z</time>
      </trkpt>
      <trkpt lat="43.22237" lon="5.63497">
        <ele>149.6</ele>
        <time>2022-09-21T08:51:32Z</time>
      </trkpt>
      <trkpt lat="43.22233" lon="5.63502">
        <ele>149.9</ele>
        <time>2022-09-21T08:51:38Z</time>
      </trkpt>
      <trkpt lat="43.22232" lon="5.63509">
        <ele>150.8</ele>
        <time>2022-09-21T08:51:44Z</time>
      </trkpt>
      <trkpt lat="43.22228" lon="5.63515">
        <ele>151.1</ele>
        <time>2022-09-21T08:51:50Z</time>
      </trkpt>
      <trkpt lat="43.22225" lon="5.63524">
        <ele>152</ele>
        <time>2022-09-21T08:51:56Z</time>
      </trkpt>
      <trkpt lat="43.22225" lon="5.6353">
        <ele>152.4</ele>
        <time>2022-09-21T08:52:00Z</time>
      </trkpt>
      <trkpt lat="43.22225" lon="5.63537">
        <ele>152.2</ele>
        <time>2022-09-21T08:52:04Z</time>
      </trkpt>
      <trkpt lat="43.22226" lon="5.63544">
        <ele>152.2</ele>
        <time>2022-09-21T08:52:08Z</time>
      </trkpt>
      <trkpt lat="43.22227" lon="5.63552">
        <ele>152.1</ele>
        <time>2022-09-21T08:52:12Z</time>
      </trkpt>
      <trkpt lat="43.22227" lon="5.6356">
        <ele>151.1</ele>
        <time>2022-09-21T08:52:18Z</time>
      </trkpt>
      <trkpt lat="43.22228" lon="5.63567">
        <ele>149.6</ele>
        <time>2022-09-21T08:52:22Z</time>
      </trkpt>
      <trkpt lat="43.2223" lon="5.63573">
        <ele>148.7</ele>
        <time>2022-09-21T08:52:26Z</time>
      </trkpt>
      <trkpt lat="43.22232" lon="5.63579">
        <ele>147.9</ele>
        <time>2022-09-21T08:52:30Z</time>
      </trkpt>
      <trkpt lat="43.22235" lon="5.63584">
        <ele>147.5</ele>
        <time>2022-09-21T08:52:34Z</time>
      </trkpt>
      <trkpt lat="43.22238" lon="5.63591">
        <ele>145.8</ele>
        <time>2022-09-21T08:52:38Z</time>
      </trkpt>
      <trkpt lat="43.2224" lon="5.63597">
        <ele>144.5</ele>
        <time>2022-09-21T08:52:42Z</time>
      </trkpt>
      <trkpt lat="43.22243" lon="5.63602">
        <ele>143.8</ele>
        <time>2022-09-21T08:52:46Z</time>
      </trkpt>
      <trkpt lat="43.22247" lon="5.63608">
        <ele>143.1</ele>
        <time>2022-09-21T08:52:52Z</time>
      </trkpt>
      <trkpt lat="43.22251" lon="5.63613">
        <ele>143.1</ele>
        <time>2022-09-21T08:53:00Z</time>
      </trkpt>
      <trkpt lat="43.22254" lon="5.63618">
        <ele>143</ele>
        <time>2022-09-21T08:53:08Z</time>
      </trkpt>
      <trkpt lat="43.22257" lon="5.63624">
        <ele>142.4</ele>
        <time>2022-09-21T08:53:16Z</time>
      </trkpt>
      <trkpt lat="43.22259" lon="5.6363">
        <ele>141.7</ele>
        <time>2022-09-21T08:53:24Z</time>
      </trkpt>
      <trkpt lat="43.22262" lon="5.63637">
        <ele>140.4</ele>
        <time>2022-09-21T08:53:36Z</time>
      </trkpt>
      <trkpt lat="43.22265" lon="5.63643">
        <ele>140.9</ele>
        <time>2022-09-21T08:53:42Z</time>
      </trkpt>
      <trkpt lat="43.22268" lon="5.63647">
        <ele>141.9</ele>
        <time>2022-09-21T08:53:52Z</time>
      </trkpt>
      <trkpt lat="43.2227" lon="5.63654">
        <ele>142.8</ele>
        <time>2022-09-21T08:53:58Z</time>
      </trkpt>
      <trkpt lat="43.22274" lon="5.63657">
        <ele>142.7</ele>
        <time>2022-09-21T08:54:20Z</time>
      </trkpt>
      <trkpt lat="43.22279" lon="5.63656">
        <ele>142.4</ele>
        <time>2022-09-21T08:54:46Z</time>
      </trkpt>
      <trkpt lat="43.22282" lon="5.63661">
        <ele>143.1</ele>
        <time>2022-09-21T08:55:22Z</time>
      </trkpt>
      <trkpt lat="43.22283" lon="5.63667">
        <ele>143.4</ele>
        <time>2022-09-21T08:55:36Z</time>
      </trkpt>
      <trkpt lat="43.22288" lon="5.63673">
        <ele>144.8</ele>
        <time>2022-09-21T08:55:42Z</time>
      </trkpt>
      <trkpt lat="43.22293" lon="5.63676">
        <ele>145.2</ele>
        <time>2022-09-21T08:55:48Z</time>
      </trkpt>
      <trkpt lat="43.22297" lon="5.63681">
        <ele>145</ele>
        <time>2022-09-21T08:55:54Z</time>
      </trkpt>
      <trkpt lat="43.22301" lon="5.63686">
        <ele>144.6</ele>
        <time>2022-09-21T08:56:00Z</time>
      </trkpt>
      <trkpt lat="43.22302" lon="5.63693">
        <ele>144.1</ele>
        <time>2022-09-21T08:56:10Z</time>
      </trkpt>
      <trkpt lat="43.22305" lon="5.63699">
        <ele>144.3</ele>
        <time>2022-09-21T08:56:16Z</time>
      </trkpt>
      <trkpt lat="43.22307" lon="5.63705">
        <ele>146.1</ele>
        <time>2022-09-21T08:56:22Z</time>
      </trkpt>
      <trkpt lat="43.22311" lon="5.63712">
        <ele>147.7</ele>
        <time>2022-09-21T08:56:28Z</time>
      </trkpt>
      <trkpt lat="43.22314" lon="5.63717">
        <ele>148.5</ele>
        <time>2022-09-21T08:56:32Z</time>
      </trkpt>
      <trkpt lat="43.22318" lon="5.63724">
        <ele>149.1</ele>
        <time>2022-09-21T08:56:38Z</time>
      </trkpt>
      <trkpt lat="43.22321" lon="5.63729">
        <ele>149.6</ele>
        <time>2022-09-21T08:56:42Z</time>
      </trkpt>
      <trkpt lat="43.22325" lon="5.63734">
        <ele>149.9</ele>
        <time>2022-09-21T08:56:46Z</time>
      </trkpt>
      <trkpt lat="43.2233" lon="5.63737">
        <ele>149.3</ele>
        <time>2022-09-21T08:56:52Z</time>
      </trkpt>
      <trkpt lat="43.22334" lon="5.6374">
        <ele>148.9</ele>
        <time>2022-09-21T08:56:56Z</time>
      </trkpt>
      <trkpt lat="43.22339" lon="5.63744">
        <ele>149.8</ele>
        <time>2022-09-21T08:57:02Z</time>
      </trkpt>
      <trkpt lat="43.22344" lon="5.63748">
        <ele>150</ele>
        <time>2022-09-21T08:57:08Z</time>
      </trkpt>
      <trkpt lat="43.22349" lon="5.63752">
        <ele>150.4</ele>
        <time>2022-09-21T08:57:14Z</time>
      </trkpt>
      <trkpt lat="43.22352" lon="5.63757">
        <ele>151.4</ele>
        <time>2022-09-21T08:57:20Z</time>
      </trkpt>
      <trkpt lat="43.22356" lon="5.63761">
        <ele>151.7</ele>
        <time>2022-09-21T08:57:26Z</time>
      </trkpt>
      <trkpt lat="43.2236" lon="5.63767">
        <ele>152.1</ele>
        <time>2022-09-21T08:57:32Z</time>
      </trkpt>
      <trkpt lat="43.22363" lon="5.63773">
        <ele>152.7</ele>
        <time>2022-09-21T08:57:42Z</time>
      </trkpt>
      <trkpt lat="43.22367" lon="5.63779">
        <ele>153.8</ele>
        <time>2022-09-21T08:57:50Z</time>
      </trkpt>
      <trkpt lat="43.22373" lon="5.6378">
        <ele>154.8</ele>
        <time>2022-09-21T08:57:56Z</time>
      </trkpt>
      <trkpt lat="43.22379" lon="5.6378">
        <ele>155.1</ele>
        <time>2022-09-21T08:58:02Z</time>
      </trkpt>
      <trkpt lat="43.22384" lon="5.63779">
        <ele>154.9</ele>
        <time>2022-09-21T08:58:08Z</time>
      </trkpt>
      <trkpt lat="43.22389" lon="5.63779">
        <ele>155.5</ele>
        <time>2022-09-21T08:58:16Z</time>
      </trkpt>
      <trkpt lat="43.22394" lon="5.63779">
        <ele>156.1</ele>
        <time>2022-09-21T08:58:22Z</time>
      </trkpt>
      <trkpt lat="43.22399" lon="5.6378">
        <ele>156.9</ele>
        <time>2022-09-21T08:58:28Z</time>
      </trkpt>
      <trkpt lat="43.22405" lon="5.63779">
        <ele>157</ele>
        <time>2022-09-21T08:58:34Z</time>
      </trkpt>
      <trkpt lat="43.2241" lon="5.6378">
        <ele>157.9</ele>
        <time>2022-09-21T08:58:40Z</time>
      </trkpt>
      <trkpt lat="43.22415" lon="5.63781">
        <ele>158.8</ele>
        <time>2022-09-21T08:58:48Z</time>
      </trkpt>
      <trkpt lat="43.22419" lon="5.63784">
        <ele>160</ele>
        <time>2022-09-21T08:58:56Z</time>
      </trkpt>
      <trkpt lat="43.22424" lon="5.63786">
        <ele>161.2</ele>
        <time>2022-09-21T08:59:02Z</time>
      </trkpt>
      <trkpt lat="43.22429" lon="5.6379">
        <ele>162.6</ele>
        <time>2022-09-21T08:59:06Z</time>
      </trkpt>
      <trkpt lat="43.22436" lon="5.63797">
        <ele>164.4</ele>
        <time>2022-09-21T08:59:10Z</time>
      </trkpt>
      <trkpt lat="43.2244" lon="5.638">
        <ele>165.1</ele>
        <time>2022-09-21T08:59:16Z</time>
      </trkpt>
      <trkpt lat="43.22447" lon="5.63797">
        <ele>164.9</ele>
        <time>2022-09-21T08:59:30Z</time>
      </trkpt>
      <trkpt lat="43.22452" lon="5.63795">
        <ele>165.4</ele>
        <time>2022-09-21T08:59:34Z</time>
      </trkpt>
      <trkpt lat="43.22458" lon="5.63793">
        <ele>166.1</ele>
        <time>2022-09-21T08:59:40Z</time>
      </trkpt>
      <trkpt lat="43.22462" lon="5.63798">
        <ele>166.1</ele>
        <time>2022-09-21T08:59:50Z</time>
      </trkpt>
      <trkpt lat="43.22464" lon="5.63804">
        <ele>165.5</ele>
        <time>2022-09-21T08:59:56Z</time>
      </trkpt>
      <trkpt lat="43.22468" lon="5.6381">
        <ele>165.5</ele>
        <time>2022-09-21T09:00:10Z</time>
      </trkpt>
      <trkpt lat="43.22471" lon="5.63818">
        <ele>165.6</ele>
        <time>2022-09-21T09:00:18Z</time>
      </trkpt>
      <trkpt lat="43.22472" lon="5.63825">
        <ele>165.7</ele>
        <time>2022-09-21T09:00:24Z</time>
      </trkpt>
      <trkpt lat="43.22473" lon="5.63832">
        <ele>166.1</ele>
        <time>2022-09-21T09:00:32Z</time>
      </trkpt>
      <trkpt lat="43.22472" lon="5.63839">
        <ele>166.7</ele>
        <time>2022-09-21T09:00:42Z</time>
      </trkpt>
      <trkpt lat="43.22475" lon="5.63848">
        <ele>168.2</ele>
        <time>2022-09-21T09:00:52Z</time>
      </trkpt>
      <trkpt lat="43.22476" lon="5.63854">
        <ele>169</ele>
        <time>2022-09-21T09:00:56Z</time>
      </trkpt>
      <trkpt lat="43.22476" lon="5.63861">
        <ele>169.8</ele>
        <time>2022-09-21T09:01:04Z</time>
      </trkpt>
      <trkpt lat="43.22475" lon="5.63868">
        <ele>169.9</ele>
        <time>2022-09-21T09:01:14Z</time>
      </trkpt>
      <trkpt lat="43.22472" lon="5.63874">
        <ele>170.2</ele>
        <time>2022-09-21T09:01:22Z</time>
      </trkpt>
      <trkpt lat="43.22474" lon="5.63882">
        <ele>170.7</ele>
        <time>2022-09-21T09:01:30Z</time>
      </trkpt>
      <trkpt lat="43.22478" lon="5.63889">
        <ele>171.4</ele>
        <time>2022-09-21T09:01:36Z</time>
      </trkpt>
      <trkpt lat="43.2248" lon="5.63895">
        <ele>172.6</ele>
        <time>2022-09-21T09:01:48Z</time>
      </trkpt>
      <trkpt lat="43.22484" lon="5.639">
        <ele>173.3</ele>
        <time>2022-09-21T09:01:52Z</time>
      </trkpt>
      <trkpt lat="43.22489" lon="5.63904">
        <ele>173.4</ele>
        <time>2022-09-21T09:01:56Z</time>
      </trkpt>
      <trkpt lat="43.22493" lon="5.63907">
        <ele>173.1</ele>
        <time>2022-09-21T09:02:00Z</time>
      </trkpt>
      <trkpt lat="43.22496" lon="5.63913">
        <ele>172.9</ele>
        <time>2022-09-21T09:02:06Z</time>
      </trkpt>
      <trkpt lat="43.22498" lon="5.63918">
        <ele>172.8</ele>
        <time>2022-09-21T09:02:16Z</time>
      </trkpt>
      <trkpt lat="43.22501" lon="5.63925">
        <ele>173.9</ele>
        <time>2022-09-21T09:02:22Z</time>
      </trkpt>
      <trkpt lat="43.22503" lon="5.6393">
        <ele>175</ele>
        <time>2022-09-21T09:02:26Z</time>
      </trkpt>
      <trkpt lat="43.22506" lon="5.63937">
        <ele>176</ele>
        <time>2022-09-21T09:02:32Z</time>
      </trkpt>
      <trkpt lat="43.22508" lon="5.63944">
        <ele>176.6</ele>
        <time>2022-09-21T09:02:42Z</time>
      </trkpt>
      <trkpt lat="43.22512" lon="5.63949">
        <ele>177.1</ele>
        <time>2022-09-21T09:02:46Z</time>
      </trkpt>
      <trkpt lat="43.22516" lon="5.63952">
        <ele>177.1</ele>
        <time>2022-09-21T09:02:50Z</time>
      </trkpt>
      <trkpt lat="43.22521" lon="5.63955">
        <ele>176.7</ele>
        <time>2022-09-21T09:02:54Z</time>
      </trkpt>
      <trkpt lat="43.22526" lon="5.63957">
        <ele>176</ele>
        <time>2022-09-21T09:02:58Z</time>
      </trkpt>
      <trkpt lat="43.22531" lon="5.63959">
        <ele>176.5</ele>
        <time>2022-09-21T09:03:02Z</time>
      </trkpt>
      <trkpt lat="43.22535" lon="5.63962">
        <ele>177.5</ele>
        <time>2022-09-21T09:03:06Z</time>
      </trkpt>
      <trkpt lat="43.2254" lon="5.63965">
        <ele>178.6</ele>
        <time>2022-09-21T09:03:12Z</time>
      </trkpt>
      <trkpt lat="43.22547" lon="5.63965">
        <ele>179.2</ele>
        <time>2022-09-21T09:03:18Z</time>
      </trkpt>
      <trkpt lat="43.22552" lon="5.63964">
        <ele>179.5</ele>
        <time>2022-09-21T09:03:24Z</time>
      </trkpt>
      <trkpt lat="43.22558" lon="5.63964">
        <ele>179.9</ele>
        <time>2022-09-21T09:03:30Z</time>
      </trkpt>
      <trkpt lat="43.22563" lon="5.63968">
        <ele>180.2</ele>
        <time>2022-09-21T09:03:36Z</time>
      </trkpt>
      <trkpt lat="43.22568" lon="5.63968">
        <ele>180.2</ele>
        <time>2022-09-21T09:03:44Z</time>
      </trkpt>
      <trkpt lat="43.22573" lon="5.6397">
        <ele>179.9</ele>
        <time>2022-09-21T09:03:52Z</time>
      </trkpt>
      <trkpt lat="43.22576" lon="5.63976">
        <ele>180.1</ele>
        <time>2022-09-21T09:04:04Z</time>
      </trkpt>
      <trkpt lat="43.2258" lon="5.63981">
        <ele>180.2</ele>
        <time>2022-09-21T09:04:12Z</time>
      </trkpt>
      <trkpt lat="43.22579" lon="5.63987">
        <ele>181.1</ele>
        <time>2022-09-21T09:04:30Z</time>
      </trkpt>
      <trkpt lat="43.22582" lon="5.63994">
        <ele>180.8</ele>
        <time>2022-09-21T09:04:36Z</time>
      </trkpt>
      <trkpt lat="43.22586" lon="5.64">
        <ele>181.9</ele>
        <time>2022-09-21T09:04:44Z</time>
      </trkpt>
      <trkpt lat="43.22588" lon="5.64006">
        <ele>183.3</ele>
        <time>2022-09-21T09:04:50Z</time>
      </trkpt>
      <trkpt lat="43.22588" lon="5.64014">
        <ele>184.5</ele>
        <time>2022-09-21T09:04:58Z</time>
      </trkpt>
      <trkpt lat="43.22591" lon="5.64022">
        <ele>185.7</ele>
        <time>2022-09-21T09:05:16Z</time>
      </trkpt>
      <trkpt lat="43.22592" lon="5.64028">
        <ele>186.6</ele>
        <time>2022-09-21T09:05:22Z</time>
      </trkpt>
      <trkpt lat="43.22596" lon="5.64034">
        <ele>187.5</ele>
        <time>2022-09-21T09:05:28Z</time>
      </trkpt>
      <trkpt lat="43.22601" lon="5.64037">
        <ele>187.8</ele>
        <time>2022-09-21T09:05:32Z</time>
      </trkpt>
      <trkpt lat="43.22605" lon="5.6404">
        <ele>187.7</ele>
        <time>2022-09-21T09:05:38Z</time>
      </trkpt>
      <trkpt lat="43.22609" lon="5.64044">
        <ele>187.8</ele>
        <time>2022-09-21T09:05:44Z</time>
      </trkpt>
      <trkpt lat="43.22613" lon="5.64048">
        <ele>188.1</ele>
        <time>2022-09-21T09:05:50Z</time>
      </trkpt>
      <trkpt lat="43.22617" lon="5.64049">
        <ele>188.6</ele>
        <time>2022-09-21T09:05:58Z</time>
      </trkpt>
      <trkpt lat="43.22622" lon="5.6405">
        <ele>189</ele>
        <time>2022-09-21T09:06:06Z</time>
      </trkpt>
      <trkpt lat="43.22626" lon="5.64052">
        <ele>189.4</ele>
        <time>2022-09-21T09:06:12Z</time>
      </trkpt>
      <trkpt lat="43.22632" lon="5.64052">
        <ele>189.8</ele>
        <time>2022-09-21T09:06:18Z</time>
      </trkpt>
      <trkpt lat="43.22637" lon="5.64053">
        <ele>190.1</ele>
        <time>2022-09-21T09:06:24Z</time>
      </trkpt>
      <trkpt lat="43.22643" lon="5.64053">
        <ele>190.3</ele>
        <time>2022-09-21T09:06:30Z</time>
      </trkpt>
      <trkpt lat="43.22648" lon="5.64055">
        <ele>190.4</ele>
        <time>2022-09-21T09:06:36Z</time>
      </trkpt>
      <trkpt lat="43.22654" lon="5.64056">
        <ele>190.8</ele>
        <time>2022-09-21T09:06:42Z</time>
      </trkpt>
      <trkpt lat="43.22659" lon="5.64059">
        <ele>192</ele>
        <time>2022-09-21T09:06:48Z</time>
      </trkpt>
      <trkpt lat="43.22663" lon="5.64062">
        <ele>193.5</ele>
        <time>2022-09-21T09:06:54Z</time>
      </trkpt>
      <trkpt lat="43.22669" lon="5.64062">
        <ele>193.6</ele>
        <time>2022-09-21T09:07:04Z</time>
      </trkpt>
      <trkpt lat="43.22675" lon="5.64063">
        <ele>194.3</ele>
        <time>2022-09-21T09:07:10Z</time>
      </trkpt>
      <trkpt lat="43.2268" lon="5.64064">
        <ele>194.8</ele>
        <time>2022-09-21T09:07:16Z</time>
      </trkpt>
      <trkpt lat="43.22685" lon="5.64065">
        <ele>195.5</ele>
        <time>2022-09-21T09:07:36Z</time>
      </trkpt>
      <trkpt lat="43.22691" lon="5.64064">
        <ele>195.1</ele>
        <time>2022-09-21T09:07:46Z</time>
      </trkpt>
      <trkpt lat="43.22696" lon="5.64064">
        <ele>195.4</ele>
        <time>2022-09-21T09:07:52Z</time>
      </trkpt>
      <trkpt lat="43.22702" lon="5.64067">
        <ele>196.8</ele>
        <time>2022-09-21T09:07:58Z</time>
      </trkpt>
      <trkpt lat="43.22706" lon="5.64074">
        <ele>198.2</ele>
        <time>2022-09-21T09:08:08Z</time>
      </trkpt>
      <trkpt lat="43.2271" lon="5.64077">
        <ele>198.3</ele>
        <time>2022-09-21T09:08:20Z</time>
      </trkpt>
      <trkpt lat="43.22714" lon="5.6408">
        <ele>198</ele>
        <time>2022-09-21T09:08:30Z</time>
      </trkpt>
      <trkpt lat="43.22718" lon="5.64077">
        <ele>197.1</ele>
        <time>2022-09-21T09:09:52Z</time>
      </trkpt>
      <trkpt lat="43.22721" lon="5.64085">
        <ele>196.9</ele>
        <time>2022-09-21T09:11:04Z</time>
      </trkpt>
      <trkpt lat="43.22725" lon="5.64091">
        <ele>199.2</ele>
        <time>2022-09-21T09:11:08Z</time>
      </trkpt>
      <trkpt lat="43.2273" lon="5.64101">
        <ele>202.5</ele>
        <time>2022-09-21T09:11:12Z</time>
      </trkpt>
      <trkpt lat="43.22733" lon="5.64106">
        <ele>203.3</ele>
        <time>2022-09-21T09:11:14Z</time>
      </trkpt>
      <trkpt lat="43.22737" lon="5.64113">
        <ele>203.9</ele>
        <time>2022-09-21T09:11:18Z</time>
      </trkpt>
      <trkpt lat="43.2274" lon="5.64118">
        <ele>204.8</ele>
        <time>2022-09-21T09:11:22Z</time>
      </trkpt>
      <trkpt lat="43.22744" lon="5.64124">
        <ele>205.5</ele>
        <time>2022-09-21T09:11:28Z</time>
      </trkpt>
      <trkpt lat="43.22749" lon="5.64128">
        <ele>205.6</ele>
        <time>2022-09-21T09:11:34Z</time>
      </trkpt>
      <trkpt lat="43.22753" lon="5.64133">
        <ele>206.6</ele>
        <time>2022-09-21T09:11:42Z</time>
      </trkpt>
      <trkpt lat="43.22757" lon="5.64138">
        <ele>207.2</ele>
        <time>2022-09-21T09:11:54Z</time>
      </trkpt>
      <trkpt lat="43.22763" lon="5.64141">
        <ele>207.7</ele>
        <time>2022-09-21T09:12:02Z</time>
      </trkpt>
      <trkpt lat="43.22765" lon="5.64147">
        <ele>208.3</ele>
        <time>2022-09-21T09:12:14Z</time>
      </trkpt>
      <trkpt lat="43.22767" lon="5.64153">
        <ele>208.4</ele>
        <time>2022-09-21T09:12:20Z</time>
      </trkpt>
      <trkpt lat="43.22769" lon="5.64159">
        <ele>208.4</ele>
        <time>2022-09-21T09:12:24Z</time>
      </trkpt>
      <trkpt lat="43.22772" lon="5.64167">
        <ele>207.4</ele>
        <time>2022-09-21T09:12:34Z</time>
      </trkpt>
      <trkpt lat="43.22774" lon="5.64173">
        <ele>207.8</ele>
        <time>2022-09-21T09:12:38Z</time>
      </trkpt>
      <trkpt lat="43.22775" lon="5.6418">
        <ele>208.7</ele>
        <time>2022-09-21T09:12:44Z</time>
      </trkpt>
      <trkpt lat="43.22778" lon="5.64185">
        <ele>208.5</ele>
        <time>2022-09-21T09:12:50Z</time>
      </trkpt>
      <trkpt lat="43.22783" lon="5.6419">
        <ele>210</ele>
        <time>2022-09-21T09:12:58Z</time>
      </trkpt>
      <trkpt lat="43.22789" lon="5.64191">
        <ele>211</ele>
        <time>2022-09-21T09:13:08Z</time>
      </trkpt>
      <trkpt lat="43.22795" lon="5.64191">
        <ele>211.8</ele>
        <time>2022-09-21T09:13:14Z</time>
      </trkpt>
      <trkpt lat="43.22801" lon="5.64192">
        <ele>212.5</ele>
        <time>2022-09-21T09:13:20Z</time>
      </trkpt>
      <trkpt lat="43.22806" lon="5.64193">
        <ele>213.1</ele>
        <time>2022-09-21T09:13:26Z</time>
      </trkpt>
      <trkpt lat="43.2281" lon="5.64193">
        <ele>213.4</ele>
        <time>2022-09-21T09:13:32Z</time>
      </trkpt>
      <trkpt lat="43.22816" lon="5.64195">
        <ele>213.6</ele>
        <time>2022-09-21T09:13:38Z</time>
      </trkpt>
      <trkpt lat="43.22821" lon="5.642">
        <ele>215.3</ele>
        <time>2022-09-21T09:13:46Z</time>
      </trkpt>
      <trkpt lat="43.22826" lon="5.64201">
        <ele>215.8</ele>
        <time>2022-09-21T09:13:52Z</time>
      </trkpt>
      <trkpt lat="43.2283" lon="5.64204">
        <ele>216.9</ele>
        <time>2022-09-21T09:13:58Z</time>
      </trkpt>
      <trkpt lat="43.22834" lon="5.64206">
        <ele>217.8</ele>
        <time>2022-09-21T09:14:02Z</time>
      </trkpt>
      <trkpt lat="43.22839" lon="5.64208">
        <ele>218.9</ele>
        <time>2022-09-21T09:14:08Z</time>
      </trkpt>
      <trkpt lat="43.22844" lon="5.64212">
        <ele>219.8</ele>
        <time>2022-09-21T09:14:16Z</time>
      </trkpt>
      <trkpt lat="43.2285" lon="5.64214">
        <ele>219.8</ele>
        <time>2022-09-21T09:14:22Z</time>
      </trkpt>
      <trkpt lat="43.22854" lon="5.64217">
        <ele>219.5</ele>
        <time>2022-09-21T09:14:28Z</time>
      </trkpt>
      <trkpt lat="43.22858" lon="5.6422">
        <ele>218.8</ele>
        <time>2022-09-21T09:14:34Z</time>
      </trkpt>
      <trkpt lat="43.22863" lon="5.64225">
        <ele>219.4</ele>
        <time>2022-09-21T09:14:44Z</time>
      </trkpt>
      <trkpt lat="43.22866" lon="5.6423">
        <ele>221.4</ele>
        <time>2022-09-21T09:14:50Z</time>
      </trkpt>
      <trkpt lat="43.22871" lon="5.64236">
        <ele>223.4</ele>
        <time>2022-09-21T09:15:00Z</time>
      </trkpt>
      <trkpt lat="43.22872" lon="5.64242">
        <ele>224.2</ele>
        <time>2022-09-21T09:15:06Z</time>
      </trkpt>
      <trkpt lat="43.22876" lon="5.64249">
        <ele>225</ele>
        <time>2022-09-21T09:15:14Z</time>
      </trkpt>
      <trkpt lat="43.22879" lon="5.64256">
        <ele>225.3</ele>
        <time>2022-09-21T09:15:24Z</time>
      </trkpt>
      <trkpt lat="43.22881" lon="5.64263">
        <ele>225.4</ele>
        <time>2022-09-21T09:15:32Z</time>
      </trkpt>
      <trkpt lat="43.22883" lon="5.64269">
        <ele>225</ele>
        <time>2022-09-21T09:15:38Z</time>
      </trkpt>
      <trkpt lat="43.22885" lon="5.64277">
        <ele>224.3</ele>
        <time>2022-09-21T09:15:44Z</time>
      </trkpt>
      <trkpt lat="43.22888" lon="5.64283">
        <ele>224.7</ele>
        <time>2022-09-21T09:15:48Z</time>
      </trkpt>
      <trkpt lat="43.22892" lon="5.64289">
        <ele>226.5</ele>
        <time>2022-09-21T09:15:54Z</time>
      </trkpt>
      <trkpt lat="43.22896" lon="5.64295">
        <ele>228.2</ele>
        <time>2022-09-21T09:16:02Z</time>
      </trkpt>
      <trkpt lat="43.22899" lon="5.64301">
        <ele>229.2</ele>
        <time>2022-09-21T09:16:12Z</time>
      </trkpt>
      <trkpt lat="43.22901" lon="5.64306">
        <ele>229.7</ele>
        <time>2022-09-21T09:16:26Z</time>
      </trkpt>
      <trkpt lat="43.22904" lon="5.64313">
        <ele>230.4</ele>
        <time>2022-09-21T09:16:30Z</time>
      </trkpt>
      <trkpt lat="43.22906" lon="5.64318">
        <ele>230.7</ele>
        <time>2022-09-21T09:16:36Z</time>
      </trkpt>
      <trkpt lat="43.22908" lon="5.64324">
        <ele>230.8</ele>
        <time>2022-09-21T09:16:44Z</time>
      </trkpt>
      <trkpt lat="43.22911" lon="5.64333">
        <ele>230.2</ele>
        <time>2022-09-21T09:16:48Z</time>
      </trkpt>
      <trkpt lat="43.22914" lon="5.64338">
        <ele>230.1</ele>
        <time>2022-09-21T09:16:52Z</time>
      </trkpt>
      <trkpt lat="43.22917" lon="5.64342">
        <ele>230.1</ele>
        <time>2022-09-21T09:16:56Z</time>
      </trkpt>
      <trkpt lat="43.2292" lon="5.64348">
        <ele>231.9</ele>
        <time>2022-09-21T09:17:02Z</time>
      </trkpt>
      <trkpt lat="43.22925" lon="5.64354">
        <ele>233.2</ele>
        <time>2022-09-21T09:17:08Z</time>
      </trkpt>
      <trkpt lat="43.22929" lon="5.64359">
        <ele>233.6</ele>
        <time>2022-09-21T09:17:14Z</time>
      </trkpt>
      <trkpt lat="43.22933" lon="5.64364">
        <ele>234.1</ele>
        <time>2022-09-21T09:17:20Z</time>
      </trkpt>
      <trkpt lat="43.22936" lon="5.6437">
        <ele>235</ele>
        <time>2022-09-21T09:17:28Z</time>
      </trkpt>
      <trkpt lat="43.22941" lon="5.64374">
        <ele>234.9</ele>
        <time>2022-09-21T09:17:44Z</time>
      </trkpt>
      <trkpt lat="43.22945" lon="5.6438">
        <ele>235.2</ele>
        <time>2022-09-21T09:17:48Z</time>
      </trkpt>
      <trkpt lat="43.2295" lon="5.64385">
        <ele>235.7</ele>
        <time>2022-09-21T09:17:52Z</time>
      </trkpt>
      <trkpt lat="43.22954" lon="5.64388">
        <ele>235.7</ele>
        <time>2022-09-21T09:17:56Z</time>
      </trkpt>
      <trkpt lat="43.22958" lon="5.64391">
        <ele>236.3</ele>
        <time>2022-09-21T09:18:02Z</time>
      </trkpt>
      <trkpt lat="43.22962" lon="5.64394">
        <ele>236.9</ele>
        <time>2022-09-21T09:18:10Z</time>
      </trkpt>
      <trkpt lat="43.22967" lon="5.64398">
        <ele>237.9</ele>
        <time>2022-09-21T09:18:16Z</time>
      </trkpt>
      <trkpt lat="43.22971" lon="5.64401">
        <ele>238.3</ele>
        <time>2022-09-21T09:18:22Z</time>
      </trkpt>
      <trkpt lat="43.22977" lon="5.64404">
        <ele>240.5</ele>
        <time>2022-09-21T09:18:38Z</time>
      </trkpt>
      <trkpt lat="43.22981" lon="5.64409">
        <ele>242.3</ele>
        <time>2022-09-21T09:18:44Z</time>
      </trkpt>
      <trkpt lat="43.22982" lon="5.64416">
        <ele>243.4</ele>
        <time>2022-09-21T09:18:52Z</time>
      </trkpt>
      <trkpt lat="43.22984" lon="5.64422">
        <ele>244.3</ele>
        <time>2022-09-21T09:19:00Z</time>
      </trkpt>
      <trkpt lat="43.22987" lon="5.64428">
        <ele>245.1</ele>
        <time>2022-09-21T09:19:08Z</time>
      </trkpt>
      <trkpt lat="43.22989" lon="5.64435">
        <ele>245.8</ele>
        <time>2022-09-21T09:19:14Z</time>
      </trkpt>
      <trkpt lat="43.22987" lon="5.64441">
        <ele>246.2</ele>
        <time>2022-09-21T09:19:22Z</time>
      </trkpt>
      <trkpt lat="43.22985" lon="5.64448">
        <ele>246.6</ele>
        <time>2022-09-21T09:19:30Z</time>
      </trkpt>
      <trkpt lat="43.22986" lon="5.64454">
        <ele>246.9</ele>
        <time>2022-09-21T09:19:40Z</time>
      </trkpt>
      <trkpt lat="43.22985" lon="5.6446">
        <ele>247.1</ele>
        <time>2022-09-21T09:19:58Z</time>
      </trkpt>
      <trkpt lat="43.22987" lon="5.64466">
        <ele>247.1</ele>
        <time>2022-09-21T09:20:04Z</time>
      </trkpt>
      <trkpt lat="43.22991" lon="5.64471">
        <ele>246.7</ele>
        <time>2022-09-21T09:20:10Z</time>
      </trkpt>
      <trkpt lat="43.22992" lon="5.64477">
        <ele>246.9</ele>
        <time>2022-09-21T09:20:16Z</time>
      </trkpt>
      <trkpt lat="43.22995" lon="5.64484">
        <ele>246.7</ele>
        <time>2022-09-21T09:20:20Z</time>
      </trkpt>
      <trkpt lat="43.22999" lon="5.6449">
        <ele>246</ele>
        <time>2022-09-21T09:20:24Z</time>
      </trkpt>
      <trkpt lat="43.23002" lon="5.64496">
        <ele>246.1</ele>
        <time>2022-09-21T09:20:30Z</time>
      </trkpt>
      <trkpt lat="43.23005" lon="5.64501">
        <ele>246.8</ele>
        <time>2022-09-21T09:20:36Z</time>
      </trkpt>
      <trkpt lat="43.23009" lon="5.64505">
        <ele>248.2</ele>
        <time>2022-09-21T09:20:46Z</time>
      </trkpt>
      <trkpt lat="43.23012" lon="5.64511">
        <ele>249.8</ele>
        <time>2022-09-21T09:20:52Z</time>
      </trkpt>
      <trkpt lat="43.23019" lon="5.64514">
        <ele>250.4</ele>
        <time>2022-09-21T09:20:58Z</time>
      </trkpt>
      <trkpt lat="43.23024" lon="5.64518">
        <ele>250.8</ele>
        <time>2022-09-21T09:21:02Z</time>
      </trkpt>
      <trkpt lat="43.23028" lon="5.64522">
        <ele>251.3</ele>
        <time>2022-09-21T09:21:10Z</time>
      </trkpt>
      <trkpt lat="43.23034" lon="5.64525">
        <ele>252.3</ele>
        <time>2022-09-21T09:21:18Z</time>
      </trkpt>
      <trkpt lat="43.23039" lon="5.6453">
        <ele>253.1</ele>
        <time>2022-09-21T09:21:24Z</time>
      </trkpt>
      <trkpt lat="43.23043" lon="5.64534">
        <ele>253.5</ele>
        <time>2022-09-21T09:21:36Z</time>
      </trkpt>
      <trkpt lat="43.23046" lon="5.64539">
        <ele>253.7</ele>
        <time>2022-09-21T09:21:46Z</time>
      </trkpt>
      <trkpt lat="43.23048" lon="5.64544">
        <ele>253.4</ele>
        <time>2022-09-21T09:21:52Z</time>
      </trkpt>
      <trkpt lat="43.23052" lon="5.64549">
        <ele>252.6</ele>
        <time>2022-09-21T09:21:56Z</time>
      </trkpt>
      <trkpt lat="43.23056" lon="5.64554">
        <ele>251.2</ele>
        <time>2022-09-21T09:22:04Z</time>
      </trkpt>
      <trkpt lat="43.23059" lon="5.64558">
        <ele>252.9</ele>
        <time>2022-09-21T09:22:10Z</time>
      </trkpt>
      <trkpt lat="43.23061" lon="5.64566">
        <ele>254.5</ele>
        <time>2022-09-21T09:22:38Z</time>
      </trkpt>
      <trkpt lat="43.23064" lon="5.64571">
        <ele>256.3</ele>
        <time>2022-09-21T09:22:54Z</time>
      </trkpt>
      <trkpt lat="43.23068" lon="5.64573">
        <ele>258.2</ele>
        <time>2022-09-21T09:23:12Z</time>
      </trkpt>
      <trkpt lat="43.23065" lon="5.64579">
        <ele>257.6</ele>
        <time>2022-09-21T09:23:22Z</time>
      </trkpt>
      <trkpt lat="43.23063" lon="5.64585">
        <ele>257.3</ele>
        <time>2022-09-21T09:23:28Z</time>
      </trkpt>
      <trkpt lat="43.23058" lon="5.64589">
        <ele>255.8</ele>
        <time>2022-09-21T09:24:22Z</time>
      </trkpt>
      <trkpt lat="43.23053" lon="5.64591">
        <ele>255.9</ele>
        <time>2022-09-21T09:24:38Z</time>
      </trkpt>
      <trkpt lat="43.23052" lon="5.64598">
        <ele>256.5</ele>
        <time>2022-09-21T09:24:44Z</time>
      </trkpt>
      <trkpt lat="43.23051" lon="5.64605">
        <ele>256.8</ele>
        <time>2022-09-21T09:24:48Z</time>
      </trkpt>
      <trkpt lat="43.23049" lon="5.64611">
        <ele>258</ele>
        <time>2022-09-21T09:24:54Z</time>
      </trkpt>
      <trkpt lat="43.23046" lon="5.64618">
        <ele>259.7</ele>
        <time>2022-09-21T09:25:08Z</time>
      </trkpt>
      <trkpt lat="43.23047" lon="5.64625">
        <ele>259.8</ele>
        <time>2022-09-21T09:25:12Z</time>
      </trkpt>
      <trkpt lat="43.23046" lon="5.64632">
        <ele>260.5</ele>
        <time>2022-09-21T09:25:18Z</time>
      </trkpt>
      <trkpt lat="43.23049" lon="5.64639">
        <ele>259.7</ele>
        <time>2022-09-21T09:25:22Z</time>
      </trkpt>
      <trkpt lat="43.23053" lon="5.64646">
        <ele>259.3</ele>
        <time>2022-09-21T09:25:26Z</time>
      </trkpt>
      <trkpt lat="43.23055" lon="5.64653">
        <ele>259.8</ele>
        <time>2022-09-21T09:25:34Z</time>
      </trkpt>
      <trkpt lat="43.23057" lon="5.64659">
        <ele>261</ele>
        <time>2022-09-21T09:25:40Z</time>
      </trkpt>
      <trkpt lat="43.2306" lon="5.64665">
        <ele>262.4</ele>
        <time>2022-09-21T09:25:50Z</time>
      </trkpt>
      <trkpt lat="43.23064" lon="5.6467">
        <ele>264.2</ele>
        <time>2022-09-21T09:26:10Z</time>
      </trkpt>
      <trkpt lat="43.23069" lon="5.64674">
        <ele>265.6</ele>
        <time>2022-09-21T09:26:20Z</time>
      </trkpt>
      <trkpt lat="43.23074" lon="5.64679">
        <ele>266.7</ele>
        <time>2022-09-21T09:26:26Z</time>
      </trkpt>
      <trkpt lat="43.23078" lon="5.64683">
        <ele>267.3</ele>
        <time>2022-09-21T09:26:32Z</time>
      </trkpt>
      <trkpt lat="43.23082" lon="5.64685">
        <ele>267.4</ele>
        <time>2022-09-21T09:26:38Z</time>
      </trkpt>
      <trkpt lat="43.23087" lon="5.64688">
        <ele>267.9</ele>
        <time>2022-09-21T09:26:44Z</time>
      </trkpt>
      <trkpt lat="43.23092" lon="5.64689">
        <ele>268.4</ele>
        <time>2022-09-21T09:26:52Z</time>
      </trkpt>
      <trkpt lat="43.23098" lon="5.64689">
        <ele>269</ele>
        <time>2022-09-21T09:27:00Z</time>
      </trkpt>
      <trkpt lat="43.23103" lon="5.64687">
        <ele>269.5</ele>
        <time>2022-09-21T09:27:08Z</time>
      </trkpt>
      <trkpt lat="43.23109" lon="5.64687">
        <ele>270.1</ele>
        <time>2022-09-21T09:27:16Z</time>
      </trkpt>
      <trkpt lat="43.23114" lon="5.64689">
        <ele>270.4</ele>
        <time>2022-09-21T09:27:22Z</time>
      </trkpt>
      <trkpt lat="43.23118" lon="5.64692">
        <ele>270.5</ele>
        <time>2022-09-21T09:27:32Z</time>
      </trkpt>
      <trkpt lat="43.23123" lon="5.64697">
        <ele>271.2</ele>
        <time>2022-09-21T09:27:40Z</time>
      </trkpt>
      <trkpt lat="43.23127" lon="5.64701">
        <ele>273</ele>
        <time>2022-09-21T09:27:46Z</time>
      </trkpt>
      <trkpt lat="43.23131" lon="5.64705">
        <ele>274.2</ele>
        <time>2022-09-21T09:27:54Z</time>
      </trkpt>
      <trkpt lat="43.23137" lon="5.6471">
        <ele>275.5</ele>
        <time>2022-09-21T09:28:02Z</time>
      </trkpt>
      <trkpt lat="43.23142" lon="5.64713">
        <ele>276.4</ele>
        <time>2022-09-21T09:28:08Z</time>
      </trkpt>
      <trkpt lat="43.23147" lon="5.64713">
        <ele>276.4</ele>
        <time>2022-09-21T09:28:20Z</time>
      </trkpt>
      <trkpt lat="43.23152" lon="5.64715">
        <ele>276.7</ele>
        <time>2022-09-21T09:28:26Z</time>
      </trkpt>
      <trkpt lat="43.23157" lon="5.64717">
        <ele>276.5</ele>
        <time>2022-09-21T09:28:34Z</time>
      </trkpt>
      <trkpt lat="43.23163" lon="5.64721">
        <ele>275.7</ele>
        <time>2022-09-21T09:28:48Z</time>
      </trkpt>
      <trkpt lat="43.23165" lon="5.64727">
        <ele>275.8</ele>
        <time>2022-09-21T09:28:54Z</time>
      </trkpt>
      <trkpt lat="43.23167" lon="5.64733">
        <ele>276.2</ele>
        <time>2022-09-21T09:29:06Z</time>
      </trkpt>
      <trkpt lat="43.23167" lon="5.64742">
        <ele>277.4</ele>
        <time>2022-09-21T09:29:14Z</time>
      </trkpt>
      <trkpt lat="43.23168" lon="5.64749">
        <ele>278.3</ele>
        <time>2022-09-21T09:29:20Z</time>
      </trkpt>
      <trkpt lat="43.23169" lon="5.64757">
        <ele>279.9</ele>
        <time>2022-09-21T09:29:26Z</time>
      </trkpt>
      <trkpt lat="43.23168" lon="5.64764">
        <ele>280.9</ele>
        <time>2022-09-21T09:29:34Z</time>
      </trkpt>
      <trkpt lat="43.23171" lon="5.64772">
        <ele>282.7</ele>
        <time>2022-09-21T09:29:42Z</time>
      </trkpt>
      <trkpt lat="43.23174" lon="5.64777">
        <ele>283.7</ele>
        <time>2022-09-21T09:29:46Z</time>
      </trkpt>
      <trkpt lat="43.23178" lon="5.64782">
        <ele>284.6</ele>
        <time>2022-09-21T09:29:52Z</time>
      </trkpt>
      <trkpt lat="43.23182" lon="5.64789">
        <ele>285</ele>
        <time>2022-09-21T09:30:02Z</time>
      </trkpt>
      <trkpt lat="43.23183" lon="5.64795">
        <ele>285</ele>
        <time>2022-09-21T09:30:06Z</time>
      </trkpt>
      <trkpt lat="43.23185" lon="5.64804">
        <ele>284.4</ele>
        <time>2022-09-21T09:30:12Z</time>
      </trkpt>
      <trkpt lat="43.23187" lon="5.64811">
        <ele>285.1</ele>
        <time>2022-09-21T09:30:18Z</time>
      </trkpt>
      <trkpt lat="43.23191" lon="5.64814">
        <ele>284.8</ele>
        <time>2022-09-21T09:30:24Z</time>
      </trkpt>
      <trkpt lat="43.23195" lon="5.64822">
        <ele>285.7</ele>
        <time>2022-09-21T09:30:32Z</time>
      </trkpt>
      <trkpt lat="43.23199" lon="5.64825">
        <ele>286.9</ele>
        <time>2022-09-21T09:30:40Z</time>
      </trkpt>
      <trkpt lat="43.23203" lon="5.64829">
        <ele>287.9</ele>
        <time>2022-09-21T09:30:46Z</time>
      </trkpt>
      <trkpt lat="43.23206" lon="5.64834">
        <ele>288.3</ele>
        <time>2022-09-21T09:30:52Z</time>
      </trkpt>
      <trkpt lat="43.23212" lon="5.64837">
        <ele>288.1</ele>
        <time>2022-09-21T09:30:58Z</time>
      </trkpt>
      <trkpt lat="43.23216" lon="5.64842">
        <ele>287.9</ele>
        <time>2022-09-21T09:31:02Z</time>
      </trkpt>
      <trkpt lat="43.2322" lon="5.64849">
        <ele>287.5</ele>
        <time>2022-09-21T09:31:08Z</time>
      </trkpt>
      <trkpt lat="43.2322" lon="5.64856">
        <ele>287.6</ele>
        <time>2022-09-21T09:31:12Z</time>
      </trkpt>
      <trkpt lat="43.23224" lon="5.64861">
        <ele>287.8</ele>
        <time>2022-09-21T09:31:18Z</time>
      </trkpt>
      <trkpt lat="43.23225" lon="5.64867">
        <ele>288.7</ele>
        <time>2022-09-21T09:31:26Z</time>
      </trkpt>
      <trkpt lat="43.23225" lon="5.64875">
        <ele>289.3</ele>
        <time>2022-09-21T09:31:36Z</time>
      </trkpt>
      <trkpt lat="43.23227" lon="5.64883">
        <ele>290.9</ele>
        <time>2022-09-21T09:31:44Z</time>
      </trkpt>
      <trkpt lat="43.23228" lon="5.64891">
        <ele>291.7</ele>
        <time>2022-09-21T09:31:52Z</time>
      </trkpt>
      <trkpt lat="43.23227" lon="5.64899">
        <ele>292</ele>
        <time>2022-09-21T09:31:58Z</time>
      </trkpt>
      <trkpt lat="43.23229" lon="5.64905">
        <ele>293.2</ele>
        <time>2022-09-21T09:32:04Z</time>
      </trkpt>
      <trkpt lat="43.23231" lon="5.64912">
        <ele>294.1</ele>
        <time>2022-09-21T09:32:12Z</time>
      </trkpt>
      <trkpt lat="43.23233" lon="5.64918">
        <ele>294.7</ele>
        <time>2022-09-21T09:32:18Z</time>
      </trkpt>
      <trkpt lat="43.23235" lon="5.64924">
        <ele>295.9</ele>
        <time>2022-09-21T09:32:24Z</time>
      </trkpt>
      <trkpt lat="43.23236" lon="5.64932">
        <ele>297.1</ele>
        <time>2022-09-21T09:32:32Z</time>
      </trkpt>
      <trkpt lat="43.23237" lon="5.64938">
        <ele>298.1</ele>
        <time>2022-09-21T09:32:38Z</time>
      </trkpt>
      <trkpt lat="43.2324" lon="5.64944">
        <ele>299</ele>
        <time>2022-09-21T09:32:44Z</time>
      </trkpt>
      <trkpt lat="43.23239" lon="5.6495">
        <ele>299.2</ele>
        <time>2022-09-21T09:32:50Z</time>
      </trkpt>
      <trkpt lat="43.23239" lon="5.64959">
        <ele>299.6</ele>
        <time>2022-09-21T09:32:55Z</time>
      </trkpt>
      <trkpt lat="43.2324" lon="5.64965">
        <ele>299.6</ele>
        <time>2022-09-21T09:32:59Z</time>
      </trkpt>
      <trkpt lat="43.23243" lon="5.6497">
        <ele>299</ele>
        <time>2022-09-21T09:33:09Z</time>
      </trkpt>
      <trkpt lat="43.23246" lon="5.64976">
        <ele>298.7</ele>
        <time>2022-09-21T09:33:21Z</time>
      </trkpt>
      <trkpt lat="43.23248" lon="5.64981">
        <ele>298.5</ele>
        <time>2022-09-21T09:33:29Z</time>
      </trkpt>
      <trkpt lat="43.23248" lon="5.64988">
        <ele>299.6</ele>
        <time>2022-09-21T09:33:41Z</time>
      </trkpt>
      <trkpt lat="43.23252" lon="5.64993">
        <ele>300.1</ele>
        <time>2022-09-21T09:33:47Z</time>
      </trkpt>
      <trkpt lat="43.23256" lon="5.64998">
        <ele>301.8</ele>
        <time>2022-09-21T09:33:51Z</time>
      </trkpt>
      <trkpt lat="43.23259" lon="5.65003">
        <ele>303.3</ele>
        <time>2022-09-21T09:33:55Z</time>
      </trkpt>
      <trkpt lat="43.23262" lon="5.6501">
        <ele>305</ele>
        <time>2022-09-21T09:34:01Z</time>
      </trkpt>
      <trkpt lat="43.23263" lon="5.65017">
        <ele>306</ele>
        <time>2022-09-21T09:34:07Z</time>
      </trkpt>
      <trkpt lat="43.23265" lon="5.65024">
        <ele>306.6</ele>
        <time>2022-09-21T09:34:17Z</time>
      </trkpt>
      <trkpt lat="43.23266" lon="5.65031">
        <ele>306.9</ele>
        <time>2022-09-21T09:34:27Z</time>
      </trkpt>
      <trkpt lat="43.23268" lon="5.65036">
        <ele>306.7</ele>
        <time>2022-09-21T09:34:41Z</time>
      </trkpt>
      <trkpt lat="43.23271" lon="5.65042">
        <ele>306.1</ele>
        <time>2022-09-21T09:34:47Z</time>
      </trkpt>
      <trkpt lat="43.23274" lon="5.65048">
        <ele>304.9</ele>
        <time>2022-09-21T09:34:51Z</time>
      </trkpt>
      <trkpt lat="43.23277" lon="5.65054">
        <ele>303.4</ele>
        <time>2022-09-21T09:34:55Z</time>
      </trkpt>
      <trkpt lat="43.2328" lon="5.65059">
        <ele>304.8</ele>
        <time>2022-09-21T09:35:01Z</time>
      </trkpt>
      <trkpt lat="43.23283" lon="5.65064">
        <ele>306.7</ele>
        <time>2022-09-21T09:35:09Z</time>
      </trkpt>
      <trkpt lat="43.23283" lon="5.65071">
        <ele>307.8</ele>
        <time>2022-09-21T09:35:15Z</time>
      </trkpt>
      <trkpt lat="43.23284" lon="5.65078">
        <ele>309.2</ele>
        <time>2022-09-21T09:35:21Z</time>
      </trkpt>
      <trkpt lat="43.23287" lon="5.65083">
        <ele>310</ele>
        <time>2022-09-21T09:35:29Z</time>
      </trkpt>
      <trkpt lat="43.23291" lon="5.65087">
        <ele>310.5</ele>
        <time>2022-09-21T09:35:35Z</time>
      </trkpt>
      <trkpt lat="43.23293" lon="5.65093">
        <ele>311.1</ele>
        <time>2022-09-21T09:35:41Z</time>
      </trkpt>
      <trkpt lat="43.23298" lon="5.651">
        <ele>310.8</ele>
        <time>2022-09-21T09:35:47Z</time>
      </trkpt>
      <trkpt lat="43.23302" lon="5.65104">
        <ele>310.1</ele>
        <time>2022-09-21T09:35:51Z</time>
      </trkpt>
      <trkpt lat="43.23308" lon="5.65106">
        <ele>310.4</ele>
        <time>2022-09-21T09:35:55Z</time>
      </trkpt>
      <trkpt lat="43.23311" lon="5.65112">
        <ele>311.8</ele>
        <time>2022-09-21T09:36:01Z</time>
      </trkpt>
      <trkpt lat="43.23315" lon="5.65118">
        <ele>313.8</ele>
        <time>2022-09-21T09:36:09Z</time>
      </trkpt>
      <trkpt lat="43.23315" lon="5.65125">
        <ele>314.5</ele>
        <time>2022-09-21T09:36:19Z</time>
      </trkpt>
      <trkpt lat="43.23313" lon="5.65133">
        <ele>314.6</ele>
        <time>2022-09-21T09:36:29Z</time>
      </trkpt>
      <trkpt lat="43.23314" lon="5.65139">
        <ele>315.4</ele>
        <time>2022-09-21T09:36:33Z</time>
      </trkpt>
      <trkpt lat="43.23313" lon="5.65145">
        <ele>315.3</ele>
        <time>2022-09-21T09:36:39Z</time>
      </trkpt>
      <trkpt lat="43.23309" lon="5.65151">
        <ele>314.6</ele>
        <time>2022-09-21T09:36:47Z</time>
      </trkpt>
      <trkpt lat="43.23308" lon="5.65157">
        <ele>314.5</ele>
        <time>2022-09-21T09:36:57Z</time>
      </trkpt>
      <trkpt lat="43.23305" lon="5.65162">
        <ele>314</ele>
        <time>2022-09-21T09:37:03Z</time>
      </trkpt>
      <trkpt lat="43.23304" lon="5.6517">
        <ele>314.8</ele>
        <time>2022-09-21T09:37:11Z</time>
      </trkpt>
      <trkpt lat="43.23303" lon="5.65176">
        <ele>315.8</ele>
        <time>2022-09-21T09:37:17Z</time>
      </trkpt>
      <trkpt lat="43.23302" lon="5.65183">
        <ele>317.2</ele>
        <time>2022-09-21T09:37:25Z</time>
      </trkpt>
      <trkpt lat="43.23302" lon="5.65191">
        <ele>317.3</ele>
        <time>2022-09-21T09:37:31Z</time>
      </trkpt>
      <trkpt lat="43.23304" lon="5.65198">
        <ele>317.5</ele>
        <time>2022-09-21T09:37:37Z</time>
      </trkpt>
      <trkpt lat="43.23307" lon="5.65206">
        <ele>318.3</ele>
        <time>2022-09-21T09:37:43Z</time>
      </trkpt>
      <trkpt lat="43.2331" lon="5.65211">
        <ele>319.5</ele>
        <time>2022-09-21T09:37:49Z</time>
      </trkpt>
      <trkpt lat="43.23314" lon="5.65215">
        <ele>320.5</ele>
        <time>2022-09-21T09:37:55Z</time>
      </trkpt>
      <trkpt lat="43.23316" lon="5.65222">
        <ele>321.4</ele>
        <time>2022-09-21T09:38:01Z</time>
      </trkpt>
      <trkpt lat="43.23316" lon="5.6523">
        <ele>322.8</ele>
        <time>2022-09-21T09:38:11Z</time>
      </trkpt>
      <trkpt lat="43.23318" lon="5.65236">
        <ele>323.7</ele>
        <time>2022-09-21T09:38:19Z</time>
      </trkpt>
      <trkpt lat="43.23321" lon="5.65242">
        <ele>324</ele>
        <time>2022-09-21T09:38:29Z</time>
      </trkpt>
      <trkpt lat="43.23322" lon="5.65248">
        <ele>324.7</ele>
        <time>2022-09-21T09:38:37Z</time>
      </trkpt>
      <trkpt lat="43.23324" lon="5.65253">
        <ele>324.7</ele>
        <time>2022-09-21T09:38:53Z</time>
      </trkpt>
      <trkpt lat="43.23324" lon="5.65261">
        <ele>325.7</ele>
        <time>2022-09-21T09:39:03Z</time>
      </trkpt>
      <trkpt lat="43.23325" lon="5.6527">
        <ele>326.6</ele>
        <time>2022-09-21T09:39:09Z</time>
      </trkpt>
      <trkpt lat="43.23326" lon="5.65276">
        <ele>327.1</ele>
        <time>2022-09-21T09:39:17Z</time>
      </trkpt>
      <trkpt lat="43.23326" lon="5.65284">
        <ele>327.6</ele>
        <time>2022-09-21T09:39:27Z</time>
      </trkpt>
      <trkpt lat="43.23327" lon="5.65292">
        <ele>327.8</ele>
        <time>2022-09-21T09:39:37Z</time>
      </trkpt>
      <trkpt lat="43.23331" lon="5.65299">
        <ele>327.3</ele>
        <time>2022-09-21T09:39:43Z</time>
      </trkpt>
      <trkpt lat="43.23334" lon="5.65306">
        <ele>327.2</ele>
        <time>2022-09-21T09:39:49Z</time>
      </trkpt>
      <trkpt lat="43.23338" lon="5.6531">
        <ele>329.2</ele>
        <time>2022-09-21T09:39:55Z</time>
      </trkpt>
      <trkpt lat="43.23343" lon="5.65315">
        <ele>330.9</ele>
        <time>2022-09-21T09:40:01Z</time>
      </trkpt>
      <trkpt lat="43.23346" lon="5.65319">
        <ele>331.8</ele>
        <time>2022-09-21T09:40:07Z</time>
      </trkpt>
      <trkpt lat="43.23349" lon="5.65326">
        <ele>332.3</ele>
        <time>2022-09-21T09:40:19Z</time>
      </trkpt>
      <trkpt lat="43.23352" lon="5.65332">
        <ele>332.4</ele>
        <time>2022-09-21T09:40:23Z</time>
      </trkpt>
      <trkpt lat="43.23353" lon="5.65339">
        <ele>332.8</ele>
        <time>2022-09-21T09:40:29Z</time>
      </trkpt>
      <trkpt lat="43.23358" lon="5.65344">
        <ele>332.8</ele>
        <time>2022-09-21T09:40:35Z</time>
      </trkpt>
      <trkpt lat="43.23361" lon="5.65349">
        <ele>332.6</ele>
        <time>2022-09-21T09:40:41Z</time>
      </trkpt>
      <trkpt lat="43.23364" lon="5.65356">
        <ele>333.6</ele>
        <time>2022-09-21T09:40:49Z</time>
      </trkpt>
      <trkpt lat="43.23364" lon="5.65362">
        <ele>333.9</ele>
        <time>2022-09-21T09:40:55Z</time>
      </trkpt>
      <trkpt lat="43.23365" lon="5.65369">
        <ele>334.7</ele>
        <time>2022-09-21T09:41:07Z</time>
      </trkpt>
      <trkpt lat="43.23365" lon="5.65378">
        <ele>335.2</ele>
        <time>2022-09-21T09:41:19Z</time>
      </trkpt>
      <trkpt lat="43.23361" lon="5.65384">
        <ele>334.7</ele>
        <time>2022-09-21T09:41:25Z</time>
      </trkpt>
      <trkpt lat="43.23359" lon="5.65389">
        <ele>335.8</ele>
        <time>2022-09-21T09:41:35Z</time>
      </trkpt>
      <trkpt lat="43.23357" lon="5.65395">
        <ele>337.6</ele>
        <time>2022-09-21T09:41:43Z</time>
      </trkpt>
      <trkpt lat="43.23354" lon="5.65402">
        <ele>339.3</ele>
        <time>2022-09-21T09:41:53Z</time>
      </trkpt>
      <trkpt lat="43.23352" lon="5.65409">
        <ele>340.8</ele>
        <time>2022-09-21T09:42:01Z</time>
      </trkpt>
      <trkpt lat="43.23351" lon="5.65415">
        <ele>341.7</ele>
        <time>2022-09-21T09:42:07Z</time>
      </trkpt>
      <trkpt lat="43.2335" lon="5.65422">
        <ele>342.4</ele>
        <time>2022-09-21T09:42:13Z</time>
      </trkpt>
      <trkpt lat="43.2335" lon="5.6543">
        <ele>343.1</ele>
        <time>2022-09-21T09:42:21Z</time>
      </trkpt>
      <trkpt lat="43.23349" lon="5.65438">
        <ele>343.8</ele>
        <time>2022-09-21T09:42:27Z</time>
      </trkpt>
      <trkpt lat="43.23351" lon="5.65446">
        <ele>344.2</ele>
        <time>2022-09-21T09:42:35Z</time>
      </trkpt>
      <trkpt lat="43.23351" lon="5.65453">
        <ele>344.7</ele>
        <time>2022-09-21T09:42:45Z</time>
      </trkpt>
      <trkpt lat="43.23355" lon="5.65456">
        <ele>344.4</ele>
        <time>2022-09-21T09:42:57Z</time>
      </trkpt>
      <trkpt lat="43.23356" lon="5.65463">
        <ele>344.6</ele>
        <time>2022-09-21T09:43:03Z</time>
      </trkpt>
      <trkpt lat="43.23357" lon="5.6547">
        <ele>344.7</ele>
        <time>2022-09-21T09:43:11Z</time>
      </trkpt>
      <trkpt lat="43.2336" lon="5.65475">
        <ele>344.8</ele>
        <time>2022-09-21T09:43:17Z</time>
      </trkpt>
      <trkpt lat="43.23364" lon="5.65479">
        <ele>345.7</ele>
        <time>2022-09-21T09:43:25Z</time>
      </trkpt>
      <trkpt lat="43.23367" lon="5.65484">
        <ele>346.7</ele>
        <time>2022-09-21T09:43:33Z</time>
      </trkpt>
      <trkpt lat="43.2337" lon="5.65488">
        <ele>347.4</ele>
        <time>2022-09-21T09:43:39Z</time>
      </trkpt>
      <trkpt lat="43.23374" lon="5.65493">
        <ele>347.7</ele>
        <time>2022-09-21T09:43:49Z</time>
      </trkpt>
      <trkpt lat="43.23378" lon="5.65497">
        <ele>347.8</ele>
        <time>2022-09-21T09:43:53Z</time>
      </trkpt>
      <trkpt lat="43.23382" lon="5.65502">
        <ele>347.8</ele>
        <time>2022-09-21T09:43:57Z</time>
      </trkpt>
      <trkpt lat="43.23386" lon="5.65509">
        <ele>348.3</ele>
        <time>2022-09-21T09:44:03Z</time>
      </trkpt>
      <trkpt lat="43.23389" lon="5.65515">
        <ele>348.7</ele>
        <time>2022-09-21T09:44:11Z</time>
      </trkpt>
      <trkpt lat="43.23391" lon="5.65523">
        <ele>349.9</ele>
        <time>2022-09-21T09:44:19Z</time>
      </trkpt>
      <trkpt lat="43.23392" lon="5.6553">
        <ele>350.8</ele>
        <time>2022-09-21T09:44:25Z</time>
      </trkpt>
      <trkpt lat="43.23394" lon="5.65538">
        <ele>352.1</ele>
        <time>2022-09-21T09:44:33Z</time>
      </trkpt>
      <trkpt lat="43.23396" lon="5.65545">
        <ele>353.1</ele>
        <time>2022-09-21T09:44:39Z</time>
      </trkpt>
      <trkpt lat="43.234" lon="5.6555">
        <ele>353.9</ele>
        <time>2022-09-21T09:44:47Z</time>
      </trkpt>
      <trkpt lat="43.23402" lon="5.65555">
        <ele>354.5</ele>
        <time>2022-09-21T09:44:53Z</time>
      </trkpt>
      <trkpt lat="43.23401" lon="5.65563">
        <ele>355</ele>
        <time>2022-09-21T09:44:59Z</time>
      </trkpt>
      <trkpt lat="43.23401" lon="5.65569">
        <ele>355.6</ele>
        <time>2022-09-21T09:45:09Z</time>
      </trkpt>
      <trkpt lat="43.23402" lon="5.65577">
        <ele>356.1</ele>
        <time>2022-09-21T09:45:17Z</time>
      </trkpt>
      <trkpt lat="43.23401" lon="5.65585">
        <ele>356.9</ele>
        <time>2022-09-21T09:45:27Z</time>
      </trkpt>
      <trkpt lat="43.23402" lon="5.65592">
        <ele>357.4</ele>
        <time>2022-09-21T09:45:33Z</time>
      </trkpt>
      <trkpt lat="43.23402" lon="5.65599">
        <ele>358</ele>
        <time>2022-09-21T09:45:39Z</time>
      </trkpt>
      <trkpt lat="43.23404" lon="5.65608">
        <ele>358.7</ele>
        <time>2022-09-21T09:45:45Z</time>
      </trkpt>
      <trkpt lat="43.23405" lon="5.65614">
        <ele>359.2</ele>
        <time>2022-09-21T09:45:51Z</time>
      </trkpt>
      <trkpt lat="43.23405" lon="5.6562">
        <ele>359.7</ele>
        <time>2022-09-21T09:45:57Z</time>
      </trkpt>
      <trkpt lat="43.23403" lon="5.65627">
        <ele>360.2</ele>
        <time>2022-09-21T09:46:03Z</time>
      </trkpt>
      <trkpt lat="43.23401" lon="5.65634">
        <ele>360.5</ele>
        <time>2022-09-21T09:46:09Z</time>
      </trkpt>
      <trkpt lat="43.23398" lon="5.65639">
        <ele>360.7</ele>
        <time>2022-09-21T09:46:15Z</time>
      </trkpt>
      <trkpt lat="43.23397" lon="5.65647">
        <ele>361</ele>
        <time>2022-09-21T09:46:23Z</time>
      </trkpt>
      <trkpt lat="43.23397" lon="5.65654">
        <ele>361.4</ele>
        <time>2022-09-21T09:46:29Z</time>
      </trkpt>
      <trkpt lat="43.23396" lon="5.65662">
        <ele>361.8</ele>
        <time>2022-09-21T09:46:37Z</time>
      </trkpt>
      <trkpt lat="43.23399" lon="5.65667">
        <ele>362.5</ele>
        <time>2022-09-21T09:46:43Z</time>
      </trkpt>
      <trkpt lat="43.23399" lon="5.65675">
        <ele>363.1</ele>
        <time>2022-09-21T09:46:51Z</time>
      </trkpt>
      <trkpt lat="43.234" lon="5.65682">
        <ele>363.9</ele>
        <time>2022-09-21T09:47:01Z</time>
      </trkpt>
      <trkpt lat="43.23399" lon="5.65689">
        <ele>364.3</ele>
        <time>2022-09-21T09:47:09Z</time>
      </trkpt>
      <trkpt lat="43.23396" lon="5.65694">
        <ele>364.2</ele>
        <time>2022-09-21T09:47:15Z</time>
      </trkpt>
      <trkpt lat="43.2339" lon="5.65691">
        <ele>363</ele>
        <time>2022-09-21T09:47:29Z</time>
      </trkpt>
      <trkpt lat="43.23385" lon="5.65691">
        <ele>363.1</ele>
        <time>2022-09-21T09:47:35Z</time>
      </trkpt>
      <trkpt lat="43.23379" lon="5.65691">
        <ele>363.5</ele>
        <time>2022-09-21T09:47:41Z</time>
      </trkpt>
      <trkpt lat="43.23373" lon="5.65695">
        <ele>364.1</ele>
        <time>2022-09-21T09:47:47Z</time>
      </trkpt>
      <trkpt lat="43.23372" lon="5.65703">
        <ele>364.4</ele>
        <time>2022-09-21T09:47:53Z</time>
      </trkpt>
      <trkpt lat="43.23377" lon="5.65709">
        <ele>364.4</ele>
        <time>2022-09-21T09:47:59Z</time>
      </trkpt>
      <trkpt lat="43.23378" lon="5.65702">
        <ele>364.1</ele>
        <time>2022-09-21T09:49:37Z</time>
      </trkpt>
      <trkpt lat="43.23377" lon="5.65693">
        <ele>363.8</ele>
        <time>2022-09-21T09:49:39Z</time>
      </trkpt>
      <trkpt lat="43.2338" lon="5.65698">
        <ele>363.9</ele>
        <time>2022-09-21T09:49:45Z</time>
      </trkpt>
      <trkpt lat="43.23377" lon="5.65705">
        <ele>364.3</ele>
        <time>2022-09-21T09:49:51Z</time>
      </trkpt>
      <trkpt lat="43.23376" lon="5.65712">
        <ele>364.6</ele>
        <time>2022-09-21T10:01:37Z</time>
      </trkpt>
      <trkpt lat="43.2338" lon="5.65716">
        <ele>364.7</ele>
        <time>2022-09-21T10:01:41Z</time>
      </trkpt>
      <trkpt lat="43.23384" lon="5.65722">
        <ele>365</ele>
        <time>2022-09-21T10:01:49Z</time>
      </trkpt>
      <trkpt lat="43.23386" lon="5.65727">
        <ele>365.4</ele>
        <time>2022-09-21T10:01:55Z</time>
      </trkpt>
      <trkpt lat="43.23391" lon="5.65732">
        <ele>366</ele>
        <time>2022-09-21T10:02:01Z</time>
      </trkpt>
      <trkpt lat="43.23397" lon="5.65733">
        <ele>366.9</ele>
        <time>2022-09-21T10:02:07Z</time>
      </trkpt>
      <trkpt lat="43.23401" lon="5.65733">
        <ele>367.6</ele>
        <time>2022-09-21T10:02:11Z</time>
      </trkpt>
      <trkpt lat="43.23406" lon="5.65735">
        <ele>368.4</ele>
        <time>2022-09-21T10:02:19Z</time>
      </trkpt>
      <trkpt lat="43.23412" lon="5.65731">
        <ele>368.9</ele>
        <time>2022-09-21T10:02:27Z</time>
      </trkpt>
      <trkpt lat="43.23415" lon="5.65727">
        <ele>369.1</ele>
        <time>2022-09-21T10:02:35Z</time>
      </trkpt>
      <trkpt lat="43.23418" lon="5.65722">
        <ele>369.4</ele>
        <time>2022-09-21T10:02:41Z</time>
      </trkpt>
      <trkpt lat="43.23421" lon="5.65716">
        <ele>370.1</ele>
        <time>2022-09-21T10:02:49Z</time>
      </trkpt>
      <trkpt lat="43.23426" lon="5.6571">
        <ele>371.2</ele>
        <time>2022-09-21T10:02:59Z</time>
      </trkpt>
      <trkpt lat="43.23429" lon="5.65705">
        <ele>371.8</ele>
        <time>2022-09-21T10:03:05Z</time>
      </trkpt>
      <trkpt lat="43.2343" lon="5.65699">
        <ele>372.1</ele>
        <time>2022-09-21T10:03:09Z</time>
      </trkpt>
      <trkpt lat="43.23434" lon="5.65692">
        <ele>372.7</ele>
        <time>2022-09-21T10:03:15Z</time>
      </trkpt>
      <trkpt lat="43.23437" lon="5.65686">
        <ele>373</ele>
        <time>2022-09-21T10:03:19Z</time>
      </trkpt>
      <trkpt lat="43.23441" lon="5.6568">
        <ele>373.4</ele>
        <time>2022-09-21T10:03:25Z</time>
      </trkpt>
      <trkpt lat="43.23445" lon="5.65676">
        <ele>374.1</ele>
        <time>2022-09-21T10:03:31Z</time>
      </trkpt>
      <trkpt lat="43.23447" lon="5.6567">
        <ele>374.4</ele>
        <time>2022-09-21T10:03:37Z</time>
      </trkpt>
      <trkpt lat="43.23449" lon="5.65664">
        <ele>374.5</ele>
        <time>2022-09-21T10:03:41Z</time>
      </trkpt>
      <trkpt lat="43.23452" lon="5.65658">
        <ele>374.9</ele>
        <time>2022-09-21T10:03:49Z</time>
      </trkpt>
      <trkpt lat="43.23456" lon="5.65651">
        <ele>375.7</ele>
        <time>2022-09-21T10:03:57Z</time>
      </trkpt>
      <trkpt lat="43.2346" lon="5.65645">
        <ele>376.5</ele>
        <time>2022-09-21T10:04:03Z</time>
      </trkpt>
      <trkpt lat="43.23463" lon="5.6564">
        <ele>377.1</ele>
        <time>2022-09-21T10:04:07Z</time>
      </trkpt>
      <trkpt lat="43.23468" lon="5.65634">
        <ele>378</ele>
        <time>2022-09-21T10:04:13Z</time>
      </trkpt>
      <trkpt lat="43.23471" lon="5.65629">
        <ele>378.5</ele>
        <time>2022-09-21T10:04:19Z</time>
      </trkpt>
      <trkpt lat="43.23475" lon="5.65623">
        <ele>379.2</ele>
        <time>2022-09-21T10:04:25Z</time>
      </trkpt>
      <trkpt lat="43.23479" lon="5.65621">
        <ele>380.6</ele>
        <time>2022-09-21T10:04:37Z</time>
      </trkpt>
      <trkpt lat="43.23481" lon="5.65628">
        <ele>381.9</ele>
        <time>2022-09-21T10:04:49Z</time>
      </trkpt>
      <trkpt lat="43.2348" lon="5.65634">
        <ele>382.1</ele>
        <time>2022-09-21T10:04:57Z</time>
      </trkpt>
      <trkpt lat="43.23478" lon="5.65641">
        <ele>382.4</ele>
        <time>2022-09-21T10:05:05Z</time>
      </trkpt>
      <trkpt lat="43.23477" lon="5.6565">
        <ele>382.7</ele>
        <time>2022-09-21T10:05:13Z</time>
      </trkpt>
      <trkpt lat="43.23475" lon="5.65656">
        <ele>383</ele>
        <time>2022-09-21T10:05:19Z</time>
      </trkpt>
      <trkpt lat="43.23475" lon="5.65663">
        <ele>383.4</ele>
        <time>2022-09-21T10:05:25Z</time>
      </trkpt>
      <trkpt lat="43.23476" lon="5.65671">
        <ele>384.4</ele>
        <time>2022-09-21T10:05:31Z</time>
      </trkpt>
      <trkpt lat="43.23476" lon="5.65678">
        <ele>385</ele>
        <time>2022-09-21T10:05:39Z</time>
      </trkpt>
      <trkpt lat="43.23475" lon="5.65685">
        <ele>385.1</ele>
        <time>2022-09-21T10:05:45Z</time>
      </trkpt>
      <trkpt lat="43.23475" lon="5.65692">
        <ele>385.8</ele>
        <time>2022-09-21T10:05:51Z</time>
      </trkpt>
      <trkpt lat="43.23476" lon="5.65698">
        <ele>386.3</ele>
        <time>2022-09-21T10:05:57Z</time>
      </trkpt>
      <trkpt lat="43.23476" lon="5.65705">
        <ele>386.4</ele>
        <time>2022-09-21T10:06:03Z</time>
      </trkpt>
      <trkpt lat="43.23477" lon="5.65713">
        <ele>386.4</ele>
        <time>2022-09-21T10:06:11Z</time>
      </trkpt>
      <trkpt lat="43.23478" lon="5.65719">
        <ele>386.7</ele>
        <time>2022-09-21T10:06:17Z</time>
      </trkpt>
      <trkpt lat="43.23478" lon="5.65726">
        <ele>386.7</ele>
        <time>2022-09-21T10:06:25Z</time>
      </trkpt>
      <trkpt lat="43.23479" lon="5.65732">
        <ele>386.8</ele>
        <time>2022-09-21T10:06:29Z</time>
      </trkpt>
      <trkpt lat="43.2348" lon="5.65739">
        <ele>387</ele>
        <time>2022-09-21T10:06:33Z</time>
      </trkpt>
      <trkpt lat="43.23482" lon="5.65747">
        <ele>387.3</ele>
        <time>2022-09-21T10:06:39Z</time>
      </trkpt>
      <trkpt lat="43.23484" lon="5.65753">
        <ele>387.7</ele>
        <time>2022-09-21T10:06:45Z</time>
      </trkpt>
      <trkpt lat="43.23486" lon="5.65761">
        <ele>388.4</ele>
        <time>2022-09-21T10:06:53Z</time>
      </trkpt>
      <trkpt lat="43.23489" lon="5.65768">
        <ele>389.3</ele>
        <time>2022-09-21T10:07:01Z</time>
      </trkpt>
      <trkpt lat="43.23488" lon="5.65774">
        <ele>389.2</ele>
        <time>2022-09-21T10:07:07Z</time>
      </trkpt>
      <trkpt lat="43.2349" lon="5.65781">
        <ele>389.8</ele>
        <time>2022-09-21T10:07:13Z</time>
      </trkpt>
      <trkpt lat="43.23491" lon="5.65788">
        <ele>390.1</ele>
        <time>2022-09-21T10:07:19Z</time>
      </trkpt>
      <trkpt lat="43.23493" lon="5.65795">
        <ele>390.5</ele>
        <time>2022-09-21T10:07:27Z</time>
      </trkpt>
      <trkpt lat="43.23495" lon="5.65801">
        <ele>390.9</ele>
        <time>2022-09-21T10:07:33Z</time>
      </trkpt>
      <trkpt lat="43.23496" lon="5.65807">
        <ele>391.1</ele>
        <time>2022-09-21T10:07:39Z</time>
      </trkpt>
      <trkpt lat="43.23498" lon="5.65815">
        <ele>391.9</ele>
        <time>2022-09-21T10:07:45Z</time>
      </trkpt>
      <trkpt lat="43.23499" lon="5.65823">
        <ele>392.4</ele>
        <time>2022-09-21T10:07:51Z</time>
      </trkpt>
      <trkpt lat="43.23501" lon="5.65831">
        <ele>393.1</ele>
        <time>2022-09-21T10:07:57Z</time>
      </trkpt>
      <trkpt lat="43.23503" lon="5.65838">
        <ele>393.5</ele>
        <time>2022-09-21T10:08:03Z</time>
      </trkpt>
      <trkpt lat="43.23504" lon="5.65846">
        <ele>393.6</ele>
        <time>2022-09-21T10:08:09Z</time>
      </trkpt>
      <trkpt lat="43.23506" lon="5.65853">
        <ele>393.6</ele>
        <time>2022-09-21T10:08:15Z</time>
      </trkpt>
      <trkpt lat="43.23507" lon="5.65859">
        <ele>393.9</ele>
        <time>2022-09-21T10:08:19Z</time>
      </trkpt>
      <trkpt lat="43.23508" lon="5.65866">
        <ele>394</ele>
        <time>2022-09-21T10:08:23Z</time>
      </trkpt>
      <trkpt lat="43.23507" lon="5.65874">
        <ele>394.2</ele>
        <time>2022-09-21T10:08:29Z</time>
      </trkpt>
      <trkpt lat="43.23509" lon="5.6588">
        <ele>394.8</ele>
        <time>2022-09-21T10:08:35Z</time>
      </trkpt>
      <trkpt lat="43.23512" lon="5.65886">
        <ele>395.5</ele>
        <time>2022-09-21T10:08:41Z</time>
      </trkpt>
      <trkpt lat="43.23515" lon="5.65894">
        <ele>396.1</ele>
        <time>2022-09-21T10:08:47Z</time>
      </trkpt>
      <trkpt lat="43.23517" lon="5.65903">
        <ele>396.5</ele>
        <time>2022-09-21T10:08:53Z</time>
      </trkpt>
      <trkpt lat="43.23518" lon="5.6591">
        <ele>396.7</ele>
        <time>2022-09-21T10:08:59Z</time>
      </trkpt>
      <trkpt lat="43.23521" lon="5.65916">
        <ele>397.3</ele>
        <time>2022-09-21T10:09:05Z</time>
      </trkpt>
      <trkpt lat="43.23522" lon="5.65924">
        <ele>397.7</ele>
        <time>2022-09-21T10:09:13Z</time>
      </trkpt>
      <trkpt lat="43.23525" lon="5.6593">
        <ele>398.3</ele>
        <time>2022-09-21T10:09:21Z</time>
      </trkpt>
      <trkpt lat="43.23525" lon="5.65937">
        <ele>398.4</ele>
        <time>2022-09-21T10:09:25Z</time>
      </trkpt>
      <trkpt lat="43.23528" lon="5.65944">
        <ele>398.9</ele>
        <time>2022-09-21T10:09:33Z</time>
      </trkpt>
      <trkpt lat="43.23529" lon="5.6595">
        <ele>399.2</ele>
        <time>2022-09-21T10:09:39Z</time>
      </trkpt>
      <trkpt lat="43.23532" lon="5.65955">
        <ele>399.5</ele>
        <time>2022-09-21T10:09:43Z</time>
      </trkpt>
      <trkpt lat="43.23533" lon="5.65963">
        <ele>399.8</ele>
        <time>2022-09-21T10:09:49Z</time>
      </trkpt>
      <trkpt lat="43.23536" lon="5.65971">
        <ele>400.2</ele>
        <time>2022-09-21T10:09:55Z</time>
      </trkpt>
      <trkpt lat="43.23537" lon="5.65979">
        <ele>400.1</ele>
        <time>2022-09-21T10:10:01Z</time>
      </trkpt>
      <trkpt lat="43.23539" lon="5.65987">
        <ele>400.1</ele>
        <time>2022-09-21T10:10:07Z</time>
      </trkpt>
      <trkpt lat="43.23541" lon="5.65995">
        <ele>400.2</ele>
        <time>2022-09-21T10:10:15Z</time>
      </trkpt>
      <trkpt lat="43.23542" lon="5.66003">
        <ele>400.1</ele>
        <time>2022-09-21T10:10:21Z</time>
      </trkpt>
      <trkpt lat="43.23543" lon="5.66011">
        <ele>400.4</ele>
        <time>2022-09-21T10:10:27Z</time>
      </trkpt>
      <trkpt lat="43.23545" lon="5.66019">
        <ele>400.7</ele>
        <time>2022-09-21T10:10:33Z</time>
      </trkpt>
      <trkpt lat="43.23546" lon="5.66027">
        <ele>400.9</ele>
        <time>2022-09-21T10:10:39Z</time>
      </trkpt>
      <trkpt lat="43.23548" lon="5.66033">
        <ele>401.1</ele>
        <time>2022-09-21T10:10:45Z</time>
      </trkpt>
      <trkpt lat="43.23551" lon="5.66039">
        <ele>401.4</ele>
        <time>2022-09-21T10:10:51Z</time>
      </trkpt>
      <trkpt lat="43.23556" lon="5.6604">
        <ele>402</ele>
        <time>2022-09-21T10:10:57Z</time>
      </trkpt>
      <trkpt lat="43.23562" lon="5.66042">
        <ele>402.3</ele>
        <time>2022-09-21T10:11:05Z</time>
      </trkpt>
      <trkpt lat="43.23567" lon="5.6604">
        <ele>402.6</ele>
        <time>2022-09-21T10:11:11Z</time>
      </trkpt>
      <trkpt lat="43.23572" lon="5.66039">
        <ele>403</ele>
        <time>2022-09-21T10:11:17Z</time>
      </trkpt>
      <trkpt lat="43.23578" lon="5.66035">
        <ele>403.4</ele>
        <time>2022-09-21T10:11:23Z</time>
      </trkpt>
      <trkpt lat="43.23582" lon="5.6603">
        <ele>403.8</ele>
        <time>2022-09-21T10:11:27Z</time>
      </trkpt>
      <trkpt lat="43.23586" lon="5.66027">
        <ele>403.9</ele>
        <time>2022-09-21T10:11:31Z</time>
      </trkpt>
      <trkpt lat="43.23589" lon="5.66023">
        <ele>403.8</ele>
        <time>2022-09-21T10:11:37Z</time>
      </trkpt>
      <trkpt lat="43.23593" lon="5.66018">
        <ele>403.8</ele>
        <time>2022-09-21T10:11:43Z</time>
      </trkpt>
      <trkpt lat="43.23596" lon="5.66012">
        <ele>403.8</ele>
        <time>2022-09-21T10:11:49Z</time>
      </trkpt>
      <trkpt lat="43.23599" lon="5.66004">
        <ele>403.9</ele>
        <time>2022-09-21T10:11:55Z</time>
      </trkpt>
      <trkpt lat="43.236" lon="5.65998">
        <ele>404</ele>
        <time>2022-09-21T10:11:59Z</time>
      </trkpt>
      <trkpt lat="43.23601" lon="5.65989">
        <ele>404.1</ele>
        <time>2022-09-21T10:12:05Z</time>
      </trkpt>
      <trkpt lat="43.23601" lon="5.65982">
        <ele>404.2</ele>
        <time>2022-09-21T10:12:11Z</time>
      </trkpt>
      <trkpt lat="43.23603" lon="5.65975">
        <ele>404.3</ele>
        <time>2022-09-21T10:12:17Z</time>
      </trkpt>
      <trkpt lat="43.23603" lon="5.65967">
        <ele>404.4</ele>
        <time>2022-09-21T10:12:23Z</time>
      </trkpt>
      <trkpt lat="43.23604" lon="5.65961">
        <ele>404.5</ele>
        <time>2022-09-21T10:12:27Z</time>
      </trkpt>
      <trkpt lat="43.23605" lon="5.65953">
        <ele>404.8</ele>
        <time>2022-09-21T10:12:33Z</time>
      </trkpt>
      <trkpt lat="43.23606" lon="5.65945">
        <ele>405</ele>
        <time>2022-09-21T10:12:39Z</time>
      </trkpt>
      <trkpt lat="43.23605" lon="5.65936">
        <ele>405.3</ele>
        <time>2022-09-21T10:12:45Z</time>
      </trkpt>
      <trkpt lat="43.23606" lon="5.65929">
        <ele>405.6</ele>
        <time>2022-09-21T10:12:51Z</time>
      </trkpt>
      <trkpt lat="43.23608" lon="5.65922">
        <ele>405.8</ele>
        <time>2022-09-21T10:12:57Z</time>
      </trkpt>
      <trkpt lat="43.2361" lon="5.65916">
        <ele>406</ele>
        <time>2022-09-21T10:13:01Z</time>
      </trkpt>
      <trkpt lat="43.23612" lon="5.65909">
        <ele>406.2</ele>
        <time>2022-09-21T10:13:07Z</time>
      </trkpt>
      <trkpt lat="43.23612" lon="5.65902">
        <ele>406.5</ele>
        <time>2022-09-21T10:13:13Z</time>
      </trkpt>
      <trkpt lat="43.23612" lon="5.65893">
        <ele>406.8</ele>
        <time>2022-09-21T10:13:19Z</time>
      </trkpt>
      <trkpt lat="43.23612" lon="5.65885">
        <ele>407.1</ele>
        <time>2022-09-21T10:13:25Z</time>
      </trkpt>
      <trkpt lat="43.23612" lon="5.65877">
        <ele>407.4</ele>
        <time>2022-09-21T10:13:31Z</time>
      </trkpt>
      <trkpt lat="43.23611" lon="5.6587">
        <ele>407.7</ele>
        <time>2022-09-21T10:13:37Z</time>
      </trkpt>
      <trkpt lat="43.23611" lon="5.65862">
        <ele>407.9</ele>
        <time>2022-09-21T10:13:43Z</time>
      </trkpt>
      <trkpt lat="43.23612" lon="5.65856">
        <ele>408.1</ele>
        <time>2022-09-21T10:13:49Z</time>
      </trkpt>
      <trkpt lat="43.23613" lon="5.65848">
        <ele>408.4</ele>
        <time>2022-09-21T10:13:55Z</time>
      </trkpt>
      <trkpt lat="43.23612" lon="5.6584">
        <ele>408.8</ele>
        <time>2022-09-21T10:14:01Z</time>
      </trkpt>
      <trkpt lat="43.23613" lon="5.65831">
        <ele>409.1</ele>
        <time>2022-09-21T10:14:07Z</time>
      </trkpt>
      <trkpt lat="43.23614" lon="5.65823">
        <ele>409.4</ele>
        <time>2022-09-21T10:14:13Z</time>
      </trkpt>
      <trkpt lat="43.23616" lon="5.65816">
        <ele>409.6</ele>
        <time>2022-09-21T10:14:19Z</time>
      </trkpt>
      <trkpt lat="43.23618" lon="5.6581">
        <ele>409.8</ele>
        <time>2022-09-21T10:14:25Z</time>
      </trkpt>
      <trkpt lat="43.23618" lon="5.65803">
        <ele>410.1</ele>
        <time>2022-09-21T10:14:31Z</time>
      </trkpt>
      <trkpt lat="43.23619" lon="5.65797">
        <ele>410.4</ele>
        <time>2022-09-21T10:14:37Z</time>
      </trkpt>
      <trkpt lat="43.2362" lon="5.65789">
        <ele>410.8</ele>
        <time>2022-09-21T10:14:43Z</time>
      </trkpt>
      <trkpt lat="43.2362" lon="5.65781">
        <ele>411.2</ele>
        <time>2022-09-21T10:14:49Z</time>
      </trkpt>
      <trkpt lat="43.23622" lon="5.65773">
        <ele>411.6</ele>
        <time>2022-09-21T10:14:55Z</time>
      </trkpt>
      <trkpt lat="43.23623" lon="5.65766">
        <ele>411.9</ele>
        <time>2022-09-21T10:15:01Z</time>
      </trkpt>
      <trkpt lat="43.23625" lon="5.65758">
        <ele>412.2</ele>
        <time>2022-09-21T10:15:07Z</time>
      </trkpt>
      <trkpt lat="43.23627" lon="5.65751">
        <ele>412.5</ele>
        <time>2022-09-21T10:15:13Z</time>
      </trkpt>
      <trkpt lat="43.23629" lon="5.65743">
        <ele>412.9</ele>
        <time>2022-09-21T10:15:19Z</time>
      </trkpt>
      <trkpt lat="43.23632" lon="5.65736">
        <ele>413.3</ele>
        <time>2022-09-21T10:15:25Z</time>
      </trkpt>
      <trkpt lat="43.23634" lon="5.65728">
        <ele>413.6</ele>
        <time>2022-09-21T10:15:33Z</time>
      </trkpt>
      <trkpt lat="43.23636" lon="5.65722">
        <ele>413.9</ele>
        <time>2022-09-21T10:15:39Z</time>
      </trkpt>
      <trkpt lat="43.23638" lon="5.65714">
        <ele>414.2</ele>
        <time>2022-09-21T10:15:45Z</time>
      </trkpt>
      <trkpt lat="43.2364" lon="5.65706">
        <ele>414.6</ele>
        <time>2022-09-21T10:15:51Z</time>
      </trkpt>
      <trkpt lat="43.23643" lon="5.657">
        <ele>414.9</ele>
        <time>2022-09-21T10:15:57Z</time>
      </trkpt>
      <trkpt lat="43.23645" lon="5.65692">
        <ele>415.3</ele>
        <time>2022-09-21T10:16:03Z</time>
      </trkpt>
      <trkpt lat="43.23647" lon="5.65684">
        <ele>415.6</ele>
        <time>2022-09-21T10:16:09Z</time>
      </trkpt>
      <trkpt lat="43.23649" lon="5.65678">
        <ele>416</ele>
        <time>2022-09-21T10:16:15Z</time>
      </trkpt>
      <trkpt lat="43.23654" lon="5.65673">
        <ele>416.3</ele>
        <time>2022-09-21T10:16:21Z</time>
      </trkpt>
      <trkpt lat="43.23657" lon="5.65665">
        <ele>416.7</ele>
        <time>2022-09-21T10:16:27Z</time>
      </trkpt>
      <trkpt lat="43.23658" lon="5.65659">
        <ele>416.9</ele>
        <time>2022-09-21T10:16:33Z</time>
      </trkpt>
      <trkpt lat="43.23655" lon="5.65654">
        <ele>417</ele>
        <time>2022-09-21T10:17:11Z</time>
      </trkpt>
      <trkpt lat="43.23657" lon="5.65648">
        <ele>417.3</ele>
        <time>2022-09-21T10:18:01Z</time>
      </trkpt>
      <trkpt lat="43.23661" lon="5.65643">
        <ele>417.6</ele>
        <time>2022-09-21T10:18:07Z</time>
      </trkpt>
      <trkpt lat="43.23662" lon="5.65637">
        <ele>417.9</ele>
        <time>2022-09-21T10:18:15Z</time>
      </trkpt>
      <trkpt lat="43.23665" lon="5.65629">
        <ele>418.3</ele>
        <time>2022-09-21T10:18:23Z</time>
      </trkpt>
      <trkpt lat="43.23668" lon="5.65622">
        <ele>418.6</ele>
        <time>2022-09-21T10:18:31Z</time>
      </trkpt>
      <trkpt lat="43.23672" lon="5.65616">
        <ele>418.8</ele>
        <time>2022-09-21T10:18:37Z</time>
      </trkpt>
      <trkpt lat="43.23674" lon="5.65611">
        <ele>419</ele>
        <time>2022-09-21T10:18:41Z</time>
      </trkpt>
      <trkpt lat="43.23676" lon="5.65604">
        <ele>419.3</ele>
        <time>2022-09-21T10:18:47Z</time>
      </trkpt>
      <trkpt lat="43.23678" lon="5.65598">
        <ele>419.7</ele>
        <time>2022-09-21T10:18:53Z</time>
      </trkpt>
      <trkpt lat="43.2368" lon="5.65592">
        <ele>420</ele>
        <time>2022-09-21T10:18:59Z</time>
      </trkpt>
      <trkpt lat="43.23683" lon="5.65586">
        <ele>420.5</ele>
        <time>2022-09-21T10:19:05Z</time>
      </trkpt>
      <trkpt lat="43.23683" lon="5.65578">
        <ele>420.8</ele>
        <time>2022-09-21T10:19:11Z</time>
      </trkpt>
      <trkpt lat="43.23685" lon="5.65571">
        <ele>421.3</ele>
        <time>2022-09-21T10:19:17Z</time>
      </trkpt>
      <trkpt lat="43.23686" lon="5.65564">
        <ele>421.6</ele>
        <time>2022-09-21T10:19:23Z</time>
      </trkpt>
      <trkpt lat="43.23688" lon="5.65557">
        <ele>421.9</ele>
        <time>2022-09-21T10:19:29Z</time>
      </trkpt>
      <trkpt lat="43.2369" lon="5.6555">
        <ele>422.2</ele>
        <time>2022-09-21T10:19:33Z</time>
      </trkpt>
      <trkpt lat="43.23692" lon="5.65544">
        <ele>422.4</ele>
        <time>2022-09-21T10:19:37Z</time>
      </trkpt>
      <trkpt lat="43.23694" lon="5.65536">
        <ele>422.7</ele>
        <time>2022-09-21T10:19:43Z</time>
      </trkpt>
      <trkpt lat="43.23694" lon="5.65527">
        <ele>423.1</ele>
        <time>2022-09-21T10:19:49Z</time>
      </trkpt>
      <trkpt lat="43.23694" lon="5.65519">
        <ele>423.6</ele>
        <time>2022-09-21T10:19:55Z</time>
      </trkpt>
      <trkpt lat="43.23693" lon="5.65511">
        <ele>424.2</ele>
        <time>2022-09-21T10:20:01Z</time>
      </trkpt>
      <trkpt lat="43.23692" lon="5.65504">
        <ele>424.6</ele>
        <time>2022-09-21T10:20:07Z</time>
      </trkpt>
      <trkpt lat="43.23692" lon="5.65497">
        <ele>425.1</ele>
        <time>2022-09-21T10:20:13Z</time>
      </trkpt>
      <trkpt lat="43.23692" lon="5.65489">
        <ele>425.7</ele>
        <time>2022-09-21T10:20:19Z</time>
      </trkpt>
      <trkpt lat="43.23691" lon="5.6548">
        <ele>426.3</ele>
        <time>2022-09-21T10:20:25Z</time>
      </trkpt>
      <trkpt lat="43.23691" lon="5.65473">
        <ele>426.8</ele>
        <time>2022-09-21T10:20:31Z</time>
      </trkpt>
      <trkpt lat="43.23692" lon="5.65465">
        <ele>427.2</ele>
        <time>2022-09-21T10:20:37Z</time>
      </trkpt>
      <trkpt lat="43.23695" lon="5.65458">
        <ele>427.5</ele>
        <time>2022-09-21T10:20:43Z</time>
      </trkpt>
      <trkpt lat="43.23697" lon="5.65451">
        <ele>427.8</ele>
        <time>2022-09-21T10:20:49Z</time>
      </trkpt>
      <trkpt lat="43.23698" lon="5.65445">
        <ele>428.1</ele>
        <time>2022-09-21T10:20:55Z</time>
      </trkpt>
      <trkpt lat="43.23699" lon="5.65437">
        <ele>428.7</ele>
        <time>2022-09-21T10:21:01Z</time>
      </trkpt>
      <trkpt lat="43.237" lon="5.65429">
        <ele>429.3</ele>
        <time>2022-09-21T10:21:07Z</time>
      </trkpt>
      <trkpt lat="43.23698" lon="5.65423">
        <ele>429.6</ele>
        <time>2022-09-21T10:21:11Z</time>
      </trkpt>
      <trkpt lat="43.23696" lon="5.65416">
        <ele>430.1</ele>
        <time>2022-09-21T10:21:21Z</time>
      </trkpt>
      <trkpt lat="43.23695" lon="5.65409">
        <ele>430.3</ele>
        <time>2022-09-21T10:21:33Z</time>
      </trkpt>
      <trkpt lat="43.23696" lon="5.65402">
        <ele>430.6</ele>
        <time>2022-09-21T10:21:39Z</time>
      </trkpt>
      <trkpt lat="43.23696" lon="5.65395">
        <ele>430.8</ele>
        <time>2022-09-21T10:22:19Z</time>
      </trkpt>
      <trkpt lat="43.23697" lon="5.65387">
        <ele>431.2</ele>
        <time>2022-09-21T10:22:25Z</time>
      </trkpt>
      <trkpt lat="43.23699" lon="5.65379">
        <ele>431.5</ele>
        <time>2022-09-21T10:22:31Z</time>
      </trkpt>
      <trkpt lat="43.237" lon="5.65372">
        <ele>431.8</ele>
        <time>2022-09-21T10:22:37Z</time>
      </trkpt>
      <trkpt lat="43.23703" lon="5.65364">
        <ele>432.2</ele>
        <time>2022-09-21T10:22:43Z</time>
      </trkpt>
      <trkpt lat="43.23704" lon="5.65357">
        <ele>432.5</ele>
        <time>2022-09-21T10:22:49Z</time>
      </trkpt>
      <trkpt lat="43.23705" lon="5.6535">
        <ele>432.8</ele>
        <time>2022-09-21T10:22:55Z</time>
      </trkpt>
      <trkpt lat="43.23706" lon="5.65341">
        <ele>433.1</ele>
        <time>2022-09-21T10:23:01Z</time>
      </trkpt>
      <trkpt lat="43.23709" lon="5.65336">
        <ele>433.4</ele>
        <time>2022-09-21T10:23:05Z</time>
      </trkpt>
      <trkpt lat="43.23711" lon="5.65329">
        <ele>433.7</ele>
        <time>2022-09-21T10:23:11Z</time>
      </trkpt>
      <trkpt lat="43.23713" lon="5.65323">
        <ele>434</ele>
        <time>2022-09-21T10:23:17Z</time>
      </trkpt>
      <trkpt lat="43.23714" lon="5.65316">
        <ele>434.4</ele>
        <time>2022-09-21T10:23:23Z</time>
      </trkpt>
      <trkpt lat="43.23716" lon="5.65309">
        <ele>434.7</ele>
        <time>2022-09-21T10:23:33Z</time>
      </trkpt>
      <trkpt lat="43.23717" lon="5.65303">
        <ele>434.9</ele>
        <time>2022-09-21T10:23:39Z</time>
      </trkpt>
      <trkpt lat="43.2372" lon="5.65295">
        <ele>435.3</ele>
        <time>2022-09-21T10:23:45Z</time>
      </trkpt>
      <trkpt lat="43.23722" lon="5.65286">
        <ele>435.7</ele>
        <time>2022-09-21T10:23:51Z</time>
      </trkpt>
      <trkpt lat="43.23725" lon="5.65279">
        <ele>436</ele>
        <time>2022-09-21T10:23:57Z</time>
      </trkpt>
      <trkpt lat="43.23727" lon="5.65271">
        <ele>436.3</ele>
        <time>2022-09-21T10:24:03Z</time>
      </trkpt>
      <trkpt lat="43.23728" lon="5.65265">
        <ele>436.5</ele>
        <time>2022-09-21T10:24:07Z</time>
      </trkpt>
      <trkpt lat="43.2373" lon="5.65258">
        <ele>436.9</ele>
        <time>2022-09-21T10:24:11Z</time>
      </trkpt>
      <trkpt lat="43.2373" lon="5.6525">
        <ele>437.3</ele>
        <time>2022-09-21T10:24:17Z</time>
      </trkpt>
      <trkpt lat="43.23731" lon="5.65243">
        <ele>437.6</ele>
        <time>2022-09-21T10:24:23Z</time>
      </trkpt>
      <trkpt lat="43.23733" lon="5.65235">
        <ele>437.9</ele>
        <time>2022-09-21T10:24:29Z</time>
      </trkpt>
      <trkpt lat="43.23736" lon="5.65229">
        <ele>438.3</ele>
        <time>2022-09-21T10:24:35Z</time>
      </trkpt>
      <trkpt lat="43.23738" lon="5.65223">
        <ele>438.6</ele>
        <time>2022-09-21T10:24:41Z</time>
      </trkpt>
      <trkpt lat="43.23742" lon="5.65216">
        <ele>438.9</ele>
        <time>2022-09-21T10:24:47Z</time>
      </trkpt>
      <trkpt lat="43.23744" lon="5.65208">
        <ele>439.3</ele>
        <time>2022-09-21T10:24:53Z</time>
      </trkpt>
      <trkpt lat="43.23747" lon="5.65203">
        <ele>439.6</ele>
        <time>2022-09-21T10:24:57Z</time>
      </trkpt>
      <trkpt lat="43.23751" lon="5.65196">
        <ele>439.9</ele>
        <time>2022-09-21T10:25:03Z</time>
      </trkpt>
      <trkpt lat="43.23753" lon="5.65189">
        <ele>440.2</ele>
        <time>2022-09-21T10:25:09Z</time>
      </trkpt>
      <trkpt lat="43.23755" lon="5.65182">
        <ele>440.4</ele>
        <time>2022-09-21T10:25:15Z</time>
      </trkpt>
      <trkpt lat="43.23757" lon="5.65176">
        <ele>440.7</ele>
        <time>2022-09-21T10:25:19Z</time>
      </trkpt>
      <trkpt lat="43.23759" lon="5.65169">
        <ele>440.9</ele>
        <time>2022-09-21T10:25:25Z</time>
      </trkpt>
      <trkpt lat="43.23761" lon="5.6516">
        <ele>441.2</ele>
        <time>2022-09-21T10:25:31Z</time>
      </trkpt>
      <trkpt lat="43.23763" lon="5.65155">
        <ele>441.4</ele>
        <time>2022-09-21T10:25:35Z</time>
      </trkpt>
      <trkpt lat="43.23765" lon="5.65147">
        <ele>441.7</ele>
        <time>2022-09-21T10:25:41Z</time>
      </trkpt>
      <trkpt lat="43.23767" lon="5.65142">
        <ele>441.9</ele>
        <time>2022-09-21T10:25:45Z</time>
      </trkpt>
      <trkpt lat="43.23769" lon="5.65135">
        <ele>442.1</ele>
        <time>2022-09-21T10:25:51Z</time>
      </trkpt>
      <trkpt lat="43.23771" lon="5.65126">
        <ele>442.3</ele>
        <time>2022-09-21T10:25:57Z</time>
      </trkpt>
      <trkpt lat="43.23773" lon="5.65121">
        <ele>442.5</ele>
        <time>2022-09-21T10:26:01Z</time>
      </trkpt>
      <trkpt lat="43.23775" lon="5.65112">
        <ele>442.8</ele>
        <time>2022-09-21T10:26:07Z</time>
      </trkpt>
      <trkpt lat="43.23776" lon="5.65107">
        <ele>443.1</ele>
        <time>2022-09-21T10:26:11Z</time>
      </trkpt>
      <trkpt lat="43.23778" lon="5.65099">
        <ele>443.4</ele>
        <time>2022-09-21T10:26:17Z</time>
      </trkpt>
      <trkpt lat="43.23781" lon="5.65092">
        <ele>443.6</ele>
        <time>2022-09-21T10:26:23Z</time>
      </trkpt>
      <trkpt lat="43.23782" lon="5.65086">
        <ele>443.8</ele>
        <time>2022-09-21T10:26:27Z</time>
      </trkpt>
      <trkpt lat="43.23784" lon="5.65078">
        <ele>444</ele>
        <time>2022-09-21T10:26:33Z</time>
      </trkpt>
      <trkpt lat="43.23786" lon="5.65071">
        <ele>444.1</ele>
        <time>2022-09-21T10:26:37Z</time>
      </trkpt>
      <trkpt lat="43.23788" lon="5.65063">
        <ele>444.4</ele>
        <time>2022-09-21T10:26:43Z</time>
      </trkpt>
      <trkpt lat="43.2379" lon="5.65055">
        <ele>444.6</ele>
        <time>2022-09-21T10:26:49Z</time>
      </trkpt>
      <trkpt lat="43.23792" lon="5.65049">
        <ele>444.7</ele>
        <time>2022-09-21T10:26:53Z</time>
      </trkpt>
      <trkpt lat="43.23792" lon="5.6504">
        <ele>445.1</ele>
        <time>2022-09-21T10:26:59Z</time>
      </trkpt>
      <trkpt lat="43.23792" lon="5.65032">
        <ele>445.4</ele>
        <time>2022-09-21T10:27:05Z</time>
      </trkpt>
      <trkpt lat="43.23793" lon="5.65025">
        <ele>445.6</ele>
        <time>2022-09-21T10:27:11Z</time>
      </trkpt>
      <trkpt lat="43.23793" lon="5.65018">
        <ele>445.8</ele>
        <time>2022-09-21T10:27:17Z</time>
      </trkpt>
      <trkpt lat="43.23794" lon="5.6501">
        <ele>446.1</ele>
        <time>2022-09-21T10:27:23Z</time>
      </trkpt>
      <trkpt lat="43.23795" lon="5.65001">
        <ele>446.4</ele>
        <time>2022-09-21T10:27:29Z</time>
      </trkpt>
      <trkpt lat="43.23795" lon="5.64992">
        <ele>446.9</ele>
        <time>2022-09-21T10:27:35Z</time>
      </trkpt>
      <trkpt lat="43.23795" lon="5.64983">
        <ele>447.6</ele>
        <time>2022-09-21T10:27:41Z</time>
      </trkpt>
      <trkpt lat="43.23796" lon="5.64975">
        <ele>448.2</ele>
        <time>2022-09-21T10:27:47Z</time>
      </trkpt>
      <trkpt lat="43.23797" lon="5.64968">
        <ele>448.6</ele>
        <time>2022-09-21T10:27:53Z</time>
      </trkpt>
      <trkpt lat="43.238" lon="5.64961">
        <ele>448.9</ele>
        <time>2022-09-21T10:27:57Z</time>
      </trkpt>
      <trkpt lat="43.23803" lon="5.64954">
        <ele>449.4</ele>
        <time>2022-09-21T10:28:03Z</time>
      </trkpt>
      <trkpt lat="43.23804" lon="5.64946">
        <ele>449.9</ele>
        <time>2022-09-21T10:28:09Z</time>
      </trkpt>
      <trkpt lat="43.23805" lon="5.64938">
        <ele>450.5</ele>
        <time>2022-09-21T10:28:17Z</time>
      </trkpt>
      <trkpt lat="43.23806" lon="5.64931">
        <ele>451</ele>
        <time>2022-09-21T10:28:23Z</time>
      </trkpt>
      <trkpt lat="43.23808" lon="5.64924">
        <ele>451.5</ele>
        <time>2022-09-21T10:28:29Z</time>
      </trkpt>
      <trkpt lat="43.23808" lon="5.64918">
        <ele>451.9</ele>
        <time>2022-09-21T10:28:35Z</time>
      </trkpt>
      <trkpt lat="43.23809" lon="5.6491">
        <ele>452.5</ele>
        <time>2022-09-21T10:28:41Z</time>
      </trkpt>
      <trkpt lat="43.2381" lon="5.64903">
        <ele>453.1</ele>
        <time>2022-09-21T10:28:47Z</time>
      </trkpt>
      <trkpt lat="43.23814" lon="5.64897">
        <ele>453.6</ele>
        <time>2022-09-21T10:28:53Z</time>
      </trkpt>
      <trkpt lat="43.23817" lon="5.6489">
        <ele>454.3</ele>
        <time>2022-09-21T10:28:59Z</time>
      </trkpt>
      <trkpt lat="43.23819" lon="5.64882">
        <ele>454.8</ele>
        <time>2022-09-21T10:29:05Z</time>
      </trkpt>
      <trkpt lat="43.2382" lon="5.64875">
        <ele>455.3</ele>
        <time>2022-09-21T10:29:11Z</time>
      </trkpt>
      <trkpt lat="43.2382" lon="5.64868">
        <ele>455.7</ele>
        <time>2022-09-21T10:29:17Z</time>
      </trkpt>
      <trkpt lat="43.23822" lon="5.64862">
        <ele>456.1</ele>
        <time>2022-09-21T10:29:23Z</time>
      </trkpt>
      <trkpt lat="43.23823" lon="5.64854">
        <ele>456.5</ele>
        <time>2022-09-21T10:29:31Z</time>
      </trkpt>
      <trkpt lat="43.23823" lon="5.64846">
        <ele>456.6</ele>
        <time>2022-09-21T10:29:37Z</time>
      </trkpt>
      <trkpt lat="43.23825" lon="5.64837">
        <ele>457</ele>
        <time>2022-09-21T10:29:43Z</time>
      </trkpt>
      <trkpt lat="43.23826" lon="5.64829">
        <ele>457.1</ele>
        <time>2022-09-21T10:29:49Z</time>
      </trkpt>
      <trkpt lat="43.23826" lon="5.64821">
        <ele>457</ele>
        <time>2022-09-21T10:29:55Z</time>
      </trkpt>
      <trkpt lat="43.23829" lon="5.64814">
        <ele>457.3</ele>
        <time>2022-09-21T10:30:01Z</time>
      </trkpt>
      <trkpt lat="43.23832" lon="5.64809">
        <ele>457.8</ele>
        <time>2022-09-21T10:30:05Z</time>
      </trkpt>
      <trkpt lat="43.23835" lon="5.64802">
        <ele>458.2</ele>
        <time>2022-09-21T10:30:11Z</time>
      </trkpt>
      <trkpt lat="43.23837" lon="5.64796">
        <ele>458.3</ele>
        <time>2022-09-21T10:30:15Z</time>
      </trkpt>
      <trkpt lat="43.23839" lon="5.64788">
        <ele>458.6</ele>
        <time>2022-09-21T10:30:21Z</time>
      </trkpt>
      <trkpt lat="43.23841" lon="5.64783">
        <ele>458.8</ele>
        <time>2022-09-21T10:30:25Z</time>
      </trkpt>
      <trkpt lat="43.23844" lon="5.64776">
        <ele>459.3</ele>
        <time>2022-09-21T10:30:31Z</time>
      </trkpt>
      <trkpt lat="43.23846" lon="5.64769">
        <ele>459.5</ele>
        <time>2022-09-21T10:30:37Z</time>
      </trkpt>
      <trkpt lat="43.2385" lon="5.64763">
        <ele>460.1</ele>
        <time>2022-09-21T10:30:43Z</time>
      </trkpt>
      <trkpt lat="43.23854" lon="5.64756">
        <ele>460.6</ele>
        <time>2022-09-21T10:30:49Z</time>
      </trkpt>
      <trkpt lat="43.23857" lon="5.64752">
        <ele>461.2</ele>
        <time>2022-09-21T10:30:53Z</time>
      </trkpt>
      <trkpt lat="43.23861" lon="5.64746">
        <ele>461.8</ele>
        <time>2022-09-21T10:30:59Z</time>
      </trkpt>
      <trkpt lat="43.23864" lon="5.64742">
        <ele>462.3</ele>
        <time>2022-09-21T10:31:05Z</time>
      </trkpt>
      <trkpt lat="43.23869" lon="5.64736">
        <ele>463</ele>
        <time>2022-09-21T10:31:11Z</time>
      </trkpt>
      <trkpt lat="43.23872" lon="5.6473">
        <ele>463.6</ele>
        <time>2022-09-21T10:31:17Z</time>
      </trkpt>
      <trkpt lat="43.23876" lon="5.64726">
        <ele>464.2</ele>
        <time>2022-09-21T10:31:23Z</time>
      </trkpt>
      <trkpt lat="43.2388" lon="5.64719">
        <ele>464.8</ele>
        <time>2022-09-21T10:31:29Z</time>
      </trkpt>
      <trkpt lat="43.23884" lon="5.64714">
        <ele>465.3</ele>
        <time>2022-09-21T10:31:35Z</time>
      </trkpt>
      <trkpt lat="43.23888" lon="5.64708">
        <ele>465.8</ele>
        <time>2022-09-21T10:31:43Z</time>
      </trkpt>
      <trkpt lat="43.23891" lon="5.64703">
        <ele>466.1</ele>
        <time>2022-09-21T10:31:49Z</time>
      </trkpt>
      <trkpt lat="43.23896" lon="5.64699">
        <ele>466.5</ele>
        <time>2022-09-21T10:31:57Z</time>
      </trkpt>
      <trkpt lat="43.239" lon="5.64694">
        <ele>467</ele>
        <time>2022-09-21T10:32:03Z</time>
      </trkpt>
      <trkpt lat="43.23904" lon="5.64691">
        <ele>467.2</ele>
        <time>2022-09-21T10:32:11Z</time>
      </trkpt>
      <trkpt lat="43.23908" lon="5.64687">
        <ele>467.5</ele>
        <time>2022-09-21T10:32:29Z</time>
      </trkpt>
      <trkpt lat="43.23912" lon="5.64682">
        <ele>467.8</ele>
        <time>2022-09-21T10:32:57Z</time>
      </trkpt>
      <trkpt lat="43.23916" lon="5.64679">
        <ele>468.1</ele>
        <time>2022-09-21T10:33:03Z</time>
      </trkpt>
      <trkpt lat="43.23919" lon="5.64675">
        <ele>468.5</ele>
        <time>2022-09-21T10:33:09Z</time>
      </trkpt>
      <trkpt lat="43.23924" lon="5.64669">
        <ele>469</ele>
        <time>2022-09-21T10:33:15Z</time>
      </trkpt>
      <trkpt lat="43.23929" lon="5.64665">
        <ele>469.7</ele>
        <time>2022-09-21T10:33:21Z</time>
      </trkpt>
      <trkpt lat="43.23933" lon="5.6466">
        <ele>469.9</ele>
        <time>2022-09-21T10:33:27Z</time>
      </trkpt>
      <trkpt lat="43.23938" lon="5.64655">
        <ele>470.2</ele>
        <time>2022-09-21T10:33:33Z</time>
      </trkpt>
      <trkpt lat="43.23942" lon="5.6465">
        <ele>470.4</ele>
        <time>2022-09-21T10:33:39Z</time>
      </trkpt>
      <trkpt lat="43.23946" lon="5.64645">
        <ele>470.6</ele>
        <time>2022-09-21T10:33:45Z</time>
      </trkpt>
      <trkpt lat="43.2395" lon="5.64641">
        <ele>470.8</ele>
        <time>2022-09-21T10:33:51Z</time>
      </trkpt>
      <trkpt lat="43.23953" lon="5.64635">
        <ele>470.9</ele>
        <time>2022-09-21T10:33:57Z</time>
      </trkpt>
      <trkpt lat="43.23957" lon="5.64628">
        <ele>470.9</ele>
        <time>2022-09-21T10:34:03Z</time>
      </trkpt>
      <trkpt lat="43.23962" lon="5.64625">
        <ele>471.7</ele>
        <time>2022-09-21T10:34:09Z</time>
      </trkpt>
      <trkpt lat="43.23966" lon="5.64619">
        <ele>472.2</ele>
        <time>2022-09-21T10:34:19Z</time>
      </trkpt>
      <trkpt lat="43.23972" lon="5.64613">
        <ele>473.2</ele>
        <time>2022-09-21T10:34:25Z</time>
      </trkpt>
      <trkpt lat="43.23976" lon="5.64608">
        <ele>473.3</ele>
        <time>2022-09-21T10:34:29Z</time>
      </trkpt>
      <trkpt lat="43.2398" lon="5.64602">
        <ele>473.6</ele>
        <time>2022-09-21T10:34:35Z</time>
      </trkpt>
      <trkpt lat="43.23984" lon="5.64597">
        <ele>473.9</ele>
        <time>2022-09-21T10:34:41Z</time>
      </trkpt>
      <trkpt lat="43.23989" lon="5.64592">
        <ele>474.4</ele>
        <time>2022-09-21T10:34:49Z</time>
      </trkpt>
      <trkpt lat="43.23993" lon="5.64587">
        <ele>475</ele>
        <time>2022-09-21T10:34:55Z</time>
      </trkpt>
      <trkpt lat="43.23997" lon="5.64583">
        <ele>476</ele>
        <time>2022-09-21T10:35:03Z</time>
      </trkpt>
      <trkpt lat="43.24001" lon="5.64579">
        <ele>476.6</ele>
        <time>2022-09-21T10:35:11Z</time>
      </trkpt>
      <trkpt lat="43.24005" lon="5.64572">
        <ele>477.2</ele>
        <time>2022-09-21T10:35:17Z</time>
      </trkpt>
      <trkpt lat="43.24008" lon="5.64568">
        <ele>477.8</ele>
        <time>2022-09-21T10:35:23Z</time>
      </trkpt>
      <trkpt lat="43.24012" lon="5.64562">
        <ele>478.3</ele>
        <time>2022-09-21T10:35:29Z</time>
      </trkpt>
      <trkpt lat="43.24013" lon="5.64556">
        <ele>478.2</ele>
        <time>2022-09-21T10:35:33Z</time>
      </trkpt>
      <trkpt lat="43.24015" lon="5.64549">
        <ele>478.8</ele>
        <time>2022-09-21T10:35:37Z</time>
      </trkpt>
      <trkpt lat="43.24017" lon="5.64542">
        <ele>479.3</ele>
        <time>2022-09-21T10:35:41Z</time>
      </trkpt>
      <trkpt lat="43.24018" lon="5.64535">
        <ele>479.7</ele>
        <time>2022-09-21T10:35:47Z</time>
      </trkpt>
      <trkpt lat="43.24019" lon="5.64526">
        <ele>480.1</ele>
        <time>2022-09-21T10:35:53Z</time>
      </trkpt>
      <trkpt lat="43.24019" lon="5.6452">
        <ele>480.8</ele>
        <time>2022-09-21T10:35:57Z</time>
      </trkpt>
      <trkpt lat="43.24015" lon="5.64514">
        <ele>480.2</ele>
        <time>2022-09-21T10:36:01Z</time>
      </trkpt>
      <trkpt lat="43.24013" lon="5.64508">
        <ele>480.3</ele>
        <time>2022-09-21T10:36:05Z</time>
      </trkpt>
      <trkpt lat="43.2401" lon="5.64503">
        <ele>480</ele>
        <time>2022-09-21T10:36:15Z</time>
      </trkpt>
      <trkpt lat="43.24007" lon="5.64498">
        <ele>480.3</ele>
        <time>2022-09-21T10:36:27Z</time>
      </trkpt>
      <trkpt lat="43.24004" lon="5.64492">
        <ele>480.6</ele>
        <time>2022-09-21T10:36:33Z</time>
      </trkpt>
      <trkpt lat="43.24001" lon="5.64486">
        <ele>481.1</ele>
        <time>2022-09-21T10:36:39Z</time>
      </trkpt>
      <trkpt lat="43.23998" lon="5.6448">
        <ele>482.1</ele>
        <time>2022-09-21T10:36:45Z</time>
      </trkpt>
      <trkpt lat="43.23997" lon="5.64473">
        <ele>483.5</ele>
        <time>2022-09-21T10:36:51Z</time>
      </trkpt>
      <trkpt lat="43.23992" lon="5.64468">
        <ele>483.7</ele>
        <time>2022-09-21T10:36:57Z</time>
      </trkpt>
      <trkpt lat="43.2399" lon="5.64462">
        <ele>484</ele>
        <time>2022-09-21T10:37:01Z</time>
      </trkpt>
      <trkpt lat="43.23986" lon="5.64455">
        <ele>484.4</ele>
        <time>2022-09-21T10:37:07Z</time>
      </trkpt>
      <trkpt lat="43.23984" lon="5.6445">
        <ele>484.7</ele>
        <time>2022-09-21T10:37:13Z</time>
      </trkpt>
      <trkpt lat="43.23984" lon="5.64443">
        <ele>485.3</ele>
        <time>2022-09-21T10:37:19Z</time>
      </trkpt>
      <trkpt lat="43.23982" lon="5.64437">
        <ele>485.6</ele>
        <time>2022-09-21T10:37:25Z</time>
      </trkpt>
      <trkpt lat="43.2398" lon="5.6443">
        <ele>485.9</ele>
        <time>2022-09-21T10:37:31Z</time>
      </trkpt>
      <trkpt lat="43.23979" lon="5.64423">
        <ele>486.2</ele>
        <time>2022-09-21T10:37:37Z</time>
      </trkpt>
      <trkpt lat="43.23978" lon="5.64415">
        <ele>486.7</ele>
        <time>2022-09-21T10:37:47Z</time>
      </trkpt>
      <trkpt lat="43.23979" lon="5.64409">
        <ele>487</ele>
        <time>2022-09-21T10:37:55Z</time>
      </trkpt>
      <trkpt lat="43.23977" lon="5.64404">
        <ele>486.9</ele>
        <time>2022-09-21T10:40:43Z</time>
      </trkpt>
      <trkpt lat="43.23977" lon="5.64396">
        <ele>487.2</ele>
        <time>2022-09-21T10:41:11Z</time>
      </trkpt>
      <trkpt lat="43.23977" lon="5.64388">
        <ele>487.4</ele>
        <time>2022-09-21T10:41:17Z</time>
      </trkpt>
      <trkpt lat="43.23977" lon="5.6438">
        <ele>487.6</ele>
        <time>2022-09-21T10:41:23Z</time>
      </trkpt>
      <trkpt lat="43.23978" lon="5.64372">
        <ele>487.9</ele>
        <time>2022-09-21T10:41:29Z</time>
      </trkpt>
      <trkpt lat="43.23979" lon="5.64364">
        <ele>488.2</ele>
        <time>2022-09-21T10:41:35Z</time>
      </trkpt>
      <trkpt lat="43.2398" lon="5.64355">
        <ele>488</ele>
        <time>2022-09-21T10:41:41Z</time>
      </trkpt>
      <trkpt lat="43.23979" lon="5.64347">
        <ele>487.6</ele>
        <time>2022-09-21T10:41:49Z</time>
      </trkpt>
      <trkpt lat="43.23981" lon="5.64339">
        <ele>487.3</ele>
        <time>2022-09-21T10:41:55Z</time>
      </trkpt>
      <trkpt lat="43.2398" lon="5.64332">
        <ele>486.9</ele>
        <time>2022-09-21T10:41:59Z</time>
      </trkpt>
      <trkpt lat="43.23978" lon="5.64326">
        <ele>486.4</ele>
        <time>2022-09-21T10:42:03Z</time>
      </trkpt>
      <trkpt lat="43.23977" lon="5.6432">
        <ele>486</ele>
        <time>2022-09-21T10:42:07Z</time>
      </trkpt>
      <trkpt lat="43.23974" lon="5.64313">
        <ele>485.5</ele>
        <time>2022-09-21T10:42:13Z</time>
      </trkpt>
      <trkpt lat="43.23974" lon="5.64304">
        <ele>484.9</ele>
        <time>2022-09-21T10:42:19Z</time>
      </trkpt>
      <trkpt lat="43.23974" lon="5.64296">
        <ele>484.6</ele>
        <time>2022-09-21T10:42:25Z</time>
      </trkpt>
      <trkpt lat="43.23973" lon="5.64287">
        <ele>484.3</ele>
        <time>2022-09-21T10:42:31Z</time>
      </trkpt>
      <trkpt lat="43.23972" lon="5.64279">
        <ele>484</ele>
        <time>2022-09-21T10:42:37Z</time>
      </trkpt>
      <trkpt lat="43.23971" lon="5.64273">
        <ele>483.6</ele>
        <time>2022-09-21T10:42:41Z</time>
      </trkpt>
      <trkpt lat="43.23969" lon="5.64265">
        <ele>483.1</ele>
        <time>2022-09-21T10:42:47Z</time>
      </trkpt>
      <trkpt lat="43.23967" lon="5.6426">
        <ele>482.7</ele>
        <time>2022-09-21T10:42:51Z</time>
      </trkpt>
      <trkpt lat="43.23964" lon="5.64251">
        <ele>482.1</ele>
        <time>2022-09-21T10:42:57Z</time>
      </trkpt>
      <trkpt lat="43.23961" lon="5.64244">
        <ele>481.8</ele>
        <time>2022-09-21T10:43:03Z</time>
      </trkpt>
      <trkpt lat="43.23959" lon="5.64236">
        <ele>481.5</ele>
        <time>2022-09-21T10:43:09Z</time>
      </trkpt>
      <trkpt lat="43.23959" lon="5.64227">
        <ele>481.2</ele>
        <time>2022-09-21T10:43:15Z</time>
      </trkpt>
      <trkpt lat="43.23957" lon="5.64219">
        <ele>481.1</ele>
        <time>2022-09-21T10:43:21Z</time>
      </trkpt>
      <trkpt lat="43.23958" lon="5.6421">
        <ele>481.1</ele>
        <time>2022-09-21T10:43:27Z</time>
      </trkpt>
      <trkpt lat="43.23957" lon="5.64203">
        <ele>481.1</ele>
        <time>2022-09-21T10:43:33Z</time>
      </trkpt>
      <trkpt lat="43.23959" lon="5.64195">
        <ele>481</ele>
        <time>2022-09-21T10:43:39Z</time>
      </trkpt>
      <trkpt lat="43.2396" lon="5.64187">
        <ele>480.9</ele>
        <time>2022-09-21T10:43:45Z</time>
      </trkpt>
      <trkpt lat="43.23961" lon="5.6418">
        <ele>480.8</ele>
        <time>2022-09-21T10:43:51Z</time>
      </trkpt>
      <trkpt lat="43.23963" lon="5.64174">
        <ele>480.7</ele>
        <time>2022-09-21T10:43:57Z</time>
      </trkpt>
      <trkpt lat="43.23964" lon="5.64165">
        <ele>480.7</ele>
        <time>2022-09-21T10:44:03Z</time>
      </trkpt>
      <trkpt lat="43.23966" lon="5.64159">
        <ele>480.9</ele>
        <time>2022-09-21T10:44:07Z</time>
      </trkpt>
      <trkpt lat="43.23969" lon="5.64153">
        <ele>481.2</ele>
        <time>2022-09-21T10:44:11Z</time>
      </trkpt>
      <trkpt lat="43.23971" lon="5.64146">
        <ele>481.5</ele>
        <time>2022-09-21T10:44:17Z</time>
      </trkpt>
      <trkpt lat="43.23975" lon="5.64138">
        <ele>481.8</ele>
        <time>2022-09-21T10:44:23Z</time>
      </trkpt>
      <trkpt lat="43.23977" lon="5.64131">
        <ele>482.1</ele>
        <time>2022-09-21T10:44:29Z</time>
      </trkpt>
      <trkpt lat="43.2398" lon="5.64123">
        <ele>482.5</ele>
        <time>2022-09-21T10:44:35Z</time>
      </trkpt>
      <trkpt lat="43.23983" lon="5.64115">
        <ele>482.9</ele>
        <time>2022-09-21T10:44:41Z</time>
      </trkpt>
      <trkpt lat="43.23986" lon="5.64108">
        <ele>483.2</ele>
        <time>2022-09-21T10:44:49Z</time>
      </trkpt>
      <trkpt lat="43.23989" lon="5.64101">
        <ele>483.6</ele>
        <time>2022-09-21T10:44:55Z</time>
      </trkpt>
      <trkpt lat="43.23991" lon="5.64096">
        <ele>483.9</ele>
        <time>2022-09-21T10:45:01Z</time>
      </trkpt>
      <trkpt lat="43.23995" lon="5.64088">
        <ele>484.5</ele>
        <time>2022-09-21T10:45:07Z</time>
      </trkpt>
      <trkpt lat="43.23998" lon="5.64082">
        <ele>485.1</ele>
        <time>2022-09-21T10:45:13Z</time>
      </trkpt>
      <trkpt lat="43.24001" lon="5.64074">
        <ele>485.7</ele>
        <time>2022-09-21T10:45:19Z</time>
      </trkpt>
      <trkpt lat="43.24002" lon="5.64068">
        <ele>486.1</ele>
        <time>2022-09-21T10:45:23Z</time>
      </trkpt>
      <trkpt lat="43.24005" lon="5.64061">
        <ele>486.6</ele>
        <time>2022-09-21T10:45:31Z</time>
      </trkpt>
      <trkpt lat="43.24009" lon="5.64056">
        <ele>487</ele>
        <time>2022-09-21T10:45:37Z</time>
      </trkpt>
      <trkpt lat="43.24012" lon="5.6405">
        <ele>487.3</ele>
        <time>2022-09-21T10:45:43Z</time>
      </trkpt>
      <trkpt lat="43.24014" lon="5.64044">
        <ele>487.6</ele>
        <time>2022-09-21T10:45:47Z</time>
      </trkpt>
      <trkpt lat="43.24016" lon="5.64037">
        <ele>488</ele>
        <time>2022-09-21T10:45:51Z</time>
      </trkpt>
      <trkpt lat="43.24017" lon="5.64029">
        <ele>488.5</ele>
        <time>2022-09-21T10:45:57Z</time>
      </trkpt>
      <trkpt lat="43.24019" lon="5.64022">
        <ele>489.1</ele>
        <time>2022-09-21T10:46:03Z</time>
      </trkpt>
      <trkpt lat="43.2402" lon="5.64016">
        <ele>489.6</ele>
        <time>2022-09-21T10:46:09Z</time>
      </trkpt>
      <trkpt lat="43.24022" lon="5.64007">
        <ele>490.3</ele>
        <time>2022-09-21T10:46:15Z</time>
      </trkpt>
      <trkpt lat="43.24024" lon="5.63999">
        <ele>490.9</ele>
        <time>2022-09-21T10:46:21Z</time>
      </trkpt>
      <trkpt lat="43.24024" lon="5.63991">
        <ele>491.5</ele>
        <time>2022-09-21T10:46:27Z</time>
      </trkpt>
      <trkpt lat="43.24024" lon="5.63984">
        <ele>492.1</ele>
        <time>2022-09-21T10:46:33Z</time>
      </trkpt>
      <trkpt lat="43.24027" lon="5.63976">
        <ele>492.7</ele>
        <time>2022-09-21T10:46:39Z</time>
      </trkpt>
      <trkpt lat="43.24028" lon="5.63969">
        <ele>493.1</ele>
        <time>2022-09-21T10:46:45Z</time>
      </trkpt>
      <trkpt lat="43.24027" lon="5.63963">
        <ele>493.3</ele>
        <time>2022-09-21T10:46:51Z</time>
      </trkpt>
      <trkpt lat="43.24027" lon="5.63956">
        <ele>493.6</ele>
        <time>2022-09-21T10:46:57Z</time>
      </trkpt>
      <trkpt lat="43.24029" lon="5.6395">
        <ele>493.8</ele>
        <time>2022-09-21T10:47:03Z</time>
      </trkpt>
      <trkpt lat="43.24031" lon="5.63941">
        <ele>494.3</ele>
        <time>2022-09-21T10:47:09Z</time>
      </trkpt>
      <trkpt lat="43.24031" lon="5.63934">
        <ele>494.9</ele>
        <time>2022-09-21T10:47:15Z</time>
      </trkpt>
      <trkpt lat="43.24033" lon="5.63926">
        <ele>495.5</ele>
        <time>2022-09-21T10:47:21Z</time>
      </trkpt>
      <trkpt lat="43.24033" lon="5.63919">
        <ele>496</ele>
        <time>2022-09-21T10:47:25Z</time>
      </trkpt>
      <trkpt lat="43.24033" lon="5.63912">
        <ele>496.4</ele>
        <time>2022-09-21T10:47:31Z</time>
      </trkpt>
      <trkpt lat="43.24035" lon="5.63906">
        <ele>496.7</ele>
        <time>2022-09-21T10:47:39Z</time>
      </trkpt>
      <trkpt lat="43.24037" lon="5.639">
        <ele>497.2</ele>
        <time>2022-09-21T10:47:45Z</time>
      </trkpt>
      <trkpt lat="43.24037" lon="5.63893">
        <ele>497.4</ele>
        <time>2022-09-21T10:47:51Z</time>
      </trkpt>
      <trkpt lat="43.24037" lon="5.63886">
        <ele>497.9</ele>
        <time>2022-09-21T10:47:57Z</time>
      </trkpt>
      <trkpt lat="43.24038" lon="5.63879">
        <ele>498.5</ele>
        <time>2022-09-21T10:48:03Z</time>
      </trkpt>
      <trkpt lat="43.24039" lon="5.63871">
        <ele>499.1</ele>
        <time>2022-09-21T10:48:09Z</time>
      </trkpt>
      <trkpt lat="43.24039" lon="5.63864">
        <ele>499.6</ele>
        <time>2022-09-21T10:48:15Z</time>
      </trkpt>
      <trkpt lat="43.2404" lon="5.63858">
        <ele>500</ele>
        <time>2022-09-21T10:48:21Z</time>
      </trkpt>
      <trkpt lat="43.24041" lon="5.63849">
        <ele>500.4</ele>
        <time>2022-09-21T10:48:27Z</time>
      </trkpt>
      <trkpt lat="43.24043" lon="5.63842">
        <ele>500.8</ele>
        <time>2022-09-21T10:48:33Z</time>
      </trkpt>
      <trkpt lat="43.24044" lon="5.63836">
        <ele>501</ele>
        <time>2022-09-21T10:48:39Z</time>
      </trkpt>
      <trkpt lat="43.24046" lon="5.63828">
        <ele>501.6</ele>
        <time>2022-09-21T10:48:45Z</time>
      </trkpt>
      <trkpt lat="43.24047" lon="5.63821">
        <ele>502.1</ele>
        <time>2022-09-21T10:48:51Z</time>
      </trkpt>
      <trkpt lat="43.24049" lon="5.63815">
        <ele>502.7</ele>
        <time>2022-09-21T10:48:57Z</time>
      </trkpt>
      <trkpt lat="43.24051" lon="5.63808">
        <ele>503.3</ele>
        <time>2022-09-21T10:49:03Z</time>
      </trkpt>
      <trkpt lat="43.24053" lon="5.63802">
        <ele>503.9</ele>
        <time>2022-09-21T10:49:09Z</time>
      </trkpt>
      <trkpt lat="43.24055" lon="5.63795">
        <ele>504.3</ele>
        <time>2022-09-21T10:49:15Z</time>
      </trkpt>
      <trkpt lat="43.24057" lon="5.63789">
        <ele>504.7</ele>
        <time>2022-09-21T10:49:21Z</time>
      </trkpt>
      <trkpt lat="43.24061" lon="5.63782">
        <ele>505.2</ele>
        <time>2022-09-21T10:49:27Z</time>
      </trkpt>
      <trkpt lat="43.24063" lon="5.63776">
        <ele>505.6</ele>
        <time>2022-09-21T10:49:33Z</time>
      </trkpt>
      <trkpt lat="43.24067" lon="5.63769">
        <ele>505.9</ele>
        <time>2022-09-21T10:49:39Z</time>
      </trkpt>
      <trkpt lat="43.24071" lon="5.63763">
        <ele>506.4</ele>
        <time>2022-09-21T10:49:45Z</time>
      </trkpt>
      <trkpt lat="43.24075" lon="5.63757">
        <ele>506.9</ele>
        <time>2022-09-21T10:49:51Z</time>
      </trkpt>
      <trkpt lat="43.24078" lon="5.63753">
        <ele>507.4</ele>
        <time>2022-09-21T10:49:57Z</time>
      </trkpt>
      <trkpt lat="43.24083" lon="5.63747">
        <ele>508</ele>
        <time>2022-09-21T10:50:03Z</time>
      </trkpt>
      <trkpt lat="43.24088" lon="5.63745">
        <ele>508.7</ele>
        <time>2022-09-21T10:50:11Z</time>
      </trkpt>
      <trkpt lat="43.24093" lon="5.63741">
        <ele>509.4</ele>
        <time>2022-09-21T10:50:17Z</time>
      </trkpt>
      <trkpt lat="43.24097" lon="5.63738">
        <ele>509.9</ele>
        <time>2022-09-21T10:50:23Z</time>
      </trkpt>
      <trkpt lat="43.24101" lon="5.63734">
        <ele>510.5</ele>
        <time>2022-09-21T10:50:27Z</time>
      </trkpt>
      <trkpt lat="43.24106" lon="5.6373">
        <ele>511.1</ele>
        <time>2022-09-21T10:50:33Z</time>
      </trkpt>
      <trkpt lat="43.24111" lon="5.63727">
        <ele>511.8</ele>
        <time>2022-09-21T10:50:39Z</time>
      </trkpt>
      <trkpt lat="43.24116" lon="5.63725">
        <ele>512.2</ele>
        <time>2022-09-21T10:50:45Z</time>
      </trkpt>
      <trkpt lat="43.2412" lon="5.63721">
        <ele>512.6</ele>
        <time>2022-09-21T10:50:51Z</time>
      </trkpt>
      <trkpt lat="43.24123" lon="5.63715">
        <ele>512.9</ele>
        <time>2022-09-21T10:50:57Z</time>
      </trkpt>
      <trkpt lat="43.24125" lon="5.63709">
        <ele>513</ele>
        <time>2022-09-21T10:51:59Z</time>
      </trkpt>
      <trkpt lat="43.24131" lon="5.63708">
        <ele>513.4</ele>
        <time>2022-09-21T10:52:05Z</time>
      </trkpt>
      <trkpt lat="43.24135" lon="5.63707">
        <ele>513.8</ele>
        <time>2022-09-21T10:52:09Z</time>
      </trkpt>
      <trkpt lat="43.2414" lon="5.63707">
        <ele>514.1</ele>
        <time>2022-09-21T10:52:13Z</time>
      </trkpt>
      <trkpt lat="43.24146" lon="5.63703">
        <ele>514.3</ele>
        <time>2022-09-21T10:52:19Z</time>
      </trkpt>
      <trkpt lat="43.24151" lon="5.63698">
        <ele>514.8</ele>
        <time>2022-09-21T10:52:25Z</time>
      </trkpt>
      <trkpt lat="43.24155" lon="5.63693">
        <ele>515.1</ele>
        <time>2022-09-21T10:52:29Z</time>
      </trkpt>
      <trkpt lat="43.2416" lon="5.63687">
        <ele>515.5</ele>
        <time>2022-09-21T10:52:35Z</time>
      </trkpt>
      <trkpt lat="43.24165" lon="5.63683">
        <ele>515.9</ele>
        <time>2022-09-21T10:52:41Z</time>
      </trkpt>
      <trkpt lat="43.24171" lon="5.63678">
        <ele>515.9</ele>
        <time>2022-09-21T10:52:47Z</time>
      </trkpt>
      <trkpt lat="43.24175" lon="5.63673">
        <ele>515.9</ele>
        <time>2022-09-21T10:52:53Z</time>
      </trkpt>
      <trkpt lat="43.24179" lon="5.63667">
        <ele>516</ele>
        <time>2022-09-21T10:52:59Z</time>
      </trkpt>
      <trkpt lat="43.24183" lon="5.63661">
        <ele>515.8</ele>
        <time>2022-09-21T10:53:05Z</time>
      </trkpt>
      <trkpt lat="43.24187" lon="5.63657">
        <ele>515.8</ele>
        <time>2022-09-21T10:53:09Z</time>
      </trkpt>
      <trkpt lat="43.24192" lon="5.63653">
        <ele>515.9</ele>
        <time>2022-09-21T10:53:15Z</time>
      </trkpt>
      <trkpt lat="43.24196" lon="5.63652">
        <ele>516.1</ele>
        <time>2022-09-21T10:53:21Z</time>
      </trkpt>
      <trkpt lat="43.24201" lon="5.6365">
        <ele>516.4</ele>
        <time>2022-09-21T10:53:27Z</time>
      </trkpt>
      <trkpt lat="43.24205" lon="5.63647">
        <ele>516.7</ele>
        <time>2022-09-21T10:53:31Z</time>
      </trkpt>
      <trkpt lat="43.24211" lon="5.63644">
        <ele>517.1</ele>
        <time>2022-09-21T10:53:37Z</time>
      </trkpt>
      <trkpt lat="43.24216" lon="5.63641">
        <ele>517.5</ele>
        <time>2022-09-21T10:53:43Z</time>
      </trkpt>
      <trkpt lat="43.24221" lon="5.63639">
        <ele>517.9</ele>
        <time>2022-09-21T10:53:49Z</time>
      </trkpt>
      <trkpt lat="43.24225" lon="5.63635">
        <ele>518</ele>
        <time>2022-09-21T10:53:55Z</time>
      </trkpt>
      <trkpt lat="43.24229" lon="5.63627">
        <ele>518.1</ele>
        <time>2022-09-21T10:54:01Z</time>
      </trkpt>
      <trkpt lat="43.24231" lon="5.63621">
        <ele>518.2</ele>
        <time>2022-09-21T10:54:13Z</time>
      </trkpt>
      <trkpt lat="43.24234" lon="5.63616">
        <ele>518.3</ele>
        <time>2022-09-21T10:54:43Z</time>
      </trkpt>
      <trkpt lat="43.24238" lon="5.63614">
        <ele>518.5</ele>
        <time>2022-09-21T10:55:09Z</time>
      </trkpt>
      <trkpt lat="43.24242" lon="5.63619">
        <ele>518.5</ele>
        <time>2022-09-21T10:55:21Z</time>
      </trkpt>
      <trkpt lat="43.24246" lon="5.63614">
        <ele>518.7</ele>
        <time>2022-09-21T10:58:07Z</time>
      </trkpt>
      <trkpt lat="43.24251" lon="5.63611">
        <ele>519</ele>
        <time>2022-09-21T10:58:13Z</time>
      </trkpt>
      <trkpt lat="43.24256" lon="5.63608">
        <ele>519.1</ele>
        <time>2022-09-21T10:58:19Z</time>
      </trkpt>
      <trkpt lat="43.24261" lon="5.63604">
        <ele>519.3</ele>
        <time>2022-09-21T10:58:25Z</time>
      </trkpt>
      <trkpt lat="43.24267" lon="5.63601">
        <ele>519.5</ele>
        <time>2022-09-21T10:58:31Z</time>
      </trkpt>
      <trkpt lat="43.24271" lon="5.63598">
        <ele>519.6</ele>
        <time>2022-09-21T10:58:37Z</time>
      </trkpt>
      <trkpt lat="43.24275" lon="5.63594">
        <ele>519.9</ele>
        <time>2022-09-21T10:58:43Z</time>
      </trkpt>
      <trkpt lat="43.24279" lon="5.63589">
        <ele>520</ele>
        <time>2022-09-21T10:58:51Z</time>
      </trkpt>
      <trkpt lat="43.24283" lon="5.63587">
        <ele>520.2</ele>
        <time>2022-09-21T10:58:59Z</time>
      </trkpt>
      <trkpt lat="43.24287" lon="5.63582">
        <ele>520.3</ele>
        <time>2022-09-21T10:59:05Z</time>
      </trkpt>
      <trkpt lat="43.24291" lon="5.63578">
        <ele>520.3</ele>
        <time>2022-09-21T10:59:11Z</time>
      </trkpt>
      <trkpt lat="43.24296" lon="5.63575">
        <ele>520.3</ele>
        <time>2022-09-21T10:59:41Z</time>
      </trkpt>
      <trkpt lat="43.243" lon="5.63569">
        <ele>520.3</ele>
        <time>2022-09-21T10:59:47Z</time>
      </trkpt>
      <trkpt lat="43.24301" lon="5.63562">
        <ele>520.1</ele>
        <time>2022-09-21T11:00:05Z</time>
      </trkpt>
      <trkpt lat="43.24301" lon="5.63554">
        <ele>519.7</ele>
        <time>2022-09-21T11:00:23Z</time>
      </trkpt>
      <trkpt lat="43.24306" lon="5.63552">
        <ele>519.6</ele>
        <time>2022-09-21T11:00:31Z</time>
      </trkpt>
      <trkpt lat="43.24311" lon="5.63552">
        <ele>519.2</ele>
        <time>2022-09-21T11:00:47Z</time>
      </trkpt>
      <trkpt lat="43.24315" lon="5.6355">
        <ele>518.7</ele>
        <time>2022-09-21T11:01:07Z</time>
      </trkpt>
      <trkpt lat="43.24319" lon="5.63545">
        <ele>518.1</ele>
        <time>2022-09-21T11:02:05Z</time>
      </trkpt>
      <trkpt lat="43.24322" lon="5.63539">
        <ele>517.4</ele>
        <time>2022-09-21T11:02:13Z</time>
      </trkpt>
      <trkpt lat="43.24325" lon="5.63533">
        <ele>516.7</ele>
        <time>2022-09-21T11:02:21Z</time>
      </trkpt>
      <trkpt lat="43.24328" lon="5.63526">
        <ele>516</ele>
        <time>2022-09-21T11:02:27Z</time>
      </trkpt>
      <trkpt lat="43.24328" lon="5.63519">
        <ele>514.9</ele>
        <time>2022-09-21T11:02:45Z</time>
      </trkpt>
      <trkpt lat="43.24331" lon="5.63513">
        <ele>513.9</ele>
        <time>2022-09-21T11:03:11Z</time>
      </trkpt>
      <trkpt lat="43.24332" lon="5.63507">
        <ele>513</ele>
        <time>2022-09-21T11:03:23Z</time>
      </trkpt>
      <trkpt lat="43.24334" lon="5.635">
        <ele>512</ele>
        <time>2022-09-21T11:03:33Z</time>
      </trkpt>
      <trkpt lat="43.24334" lon="5.63493">
        <ele>511</ele>
        <time>2022-09-21T11:04:05Z</time>
      </trkpt>
      <trkpt lat="43.24332" lon="5.63486">
        <ele>510</ele>
        <time>2022-09-21T11:04:25Z</time>
      </trkpt>
      <trkpt lat="43.24331" lon="5.6348">
        <ele>509.1</ele>
        <time>2022-09-21T11:04:31Z</time>
      </trkpt>
      <trkpt lat="43.24329" lon="5.63473">
        <ele>508</ele>
        <time>2022-09-21T11:04:39Z</time>
      </trkpt>
      <trkpt lat="43.24327" lon="5.63467">
        <ele>507</ele>
        <time>2022-09-21T11:04:47Z</time>
      </trkpt>
      <trkpt lat="43.24326" lon="5.63462">
        <ele>506.1</ele>
        <time>2022-09-21T11:04:55Z</time>
      </trkpt>
      <trkpt lat="43.24323" lon="5.63455">
        <ele>504.9</ele>
        <time>2022-09-21T11:05:03Z</time>
      </trkpt>
      <trkpt lat="43.24321" lon="5.63448">
        <ele>503.8</ele>
        <time>2022-09-21T11:05:09Z</time>
      </trkpt>
      <trkpt lat="43.24319" lon="5.63442">
        <ele>502.6</ele>
        <time>2022-09-21T11:05:15Z</time>
      </trkpt>
      <trkpt lat="43.24317" lon="5.63435">
        <ele>501.3</ele>
        <time>2022-09-21T11:05:23Z</time>
      </trkpt>
      <trkpt lat="43.24315" lon="5.63429">
        <ele>500.4</ele>
        <time>2022-09-21T11:05:29Z</time>
      </trkpt>
      <trkpt lat="43.24313" lon="5.63422">
        <ele>499.4</ele>
        <time>2022-09-21T11:05:37Z</time>
      </trkpt>
      <trkpt lat="43.24311" lon="5.63415">
        <ele>498.6</ele>
        <time>2022-09-21T11:05:43Z</time>
      </trkpt>
      <trkpt lat="43.2431" lon="5.63409">
        <ele>497.9</ele>
        <time>2022-09-21T11:05:49Z</time>
      </trkpt>
      <trkpt lat="43.24309" lon="5.63403">
        <ele>497.2</ele>
        <time>2022-09-21T11:05:55Z</time>
      </trkpt>
      <trkpt lat="43.24307" lon="5.63396">
        <ele>496.6</ele>
        <time>2022-09-21T11:06:01Z</time>
      </trkpt>
      <trkpt lat="43.24306" lon="5.63389">
        <ele>495.9</ele>
        <time>2022-09-21T11:06:07Z</time>
      </trkpt>
      <trkpt lat="43.24305" lon="5.63383">
        <ele>495.5</ele>
        <time>2022-09-21T11:06:15Z</time>
      </trkpt>
      <trkpt lat="43.24305" lon="5.63376">
        <ele>495</ele>
        <time>2022-09-21T11:06:19Z</time>
      </trkpt>
      <trkpt lat="43.24304" lon="5.63369">
        <ele>494.3</ele>
        <time>2022-09-21T11:06:27Z</time>
      </trkpt>
      <trkpt lat="43.24301" lon="5.63362">
        <ele>493.4</ele>
        <time>2022-09-21T11:06:33Z</time>
      </trkpt>
      <trkpt lat="43.24303" lon="5.63355">
        <ele>493.2</ele>
        <time>2022-09-21T11:06:39Z</time>
      </trkpt>
      <trkpt lat="43.24303" lon="5.63349">
        <ele>492.8</ele>
        <time>2022-09-21T11:06:45Z</time>
      </trkpt>
      <trkpt lat="43.24303" lon="5.63342">
        <ele>492.4</ele>
        <time>2022-09-21T11:06:51Z</time>
      </trkpt>
      <trkpt lat="43.24303" lon="5.63335">
        <ele>491.8</ele>
        <time>2022-09-21T11:06:57Z</time>
      </trkpt>
      <trkpt lat="43.24303" lon="5.63327">
        <ele>491.5</ele>
        <time>2022-09-21T11:07:05Z</time>
      </trkpt>
      <trkpt lat="43.24303" lon="5.63319">
        <ele>491.2</ele>
        <time>2022-09-21T11:07:11Z</time>
      </trkpt>
      <trkpt lat="43.24302" lon="5.6331">
        <ele>490.8</ele>
        <time>2022-09-21T11:07:17Z</time>
      </trkpt>
      <trkpt lat="43.24302" lon="5.63303">
        <ele>490.5</ele>
        <time>2022-09-21T11:07:21Z</time>
      </trkpt>
      <trkpt lat="43.24301" lon="5.63297">
        <ele>490.1</ele>
        <time>2022-09-21T11:07:27Z</time>
      </trkpt>
      <trkpt lat="43.243" lon="5.6329">
        <ele>489.7</ele>
        <time>2022-09-21T11:07:33Z</time>
      </trkpt>
      <trkpt lat="43.24296" lon="5.63285">
        <ele>489</ele>
        <time>2022-09-21T11:07:39Z</time>
      </trkpt>
      <trkpt lat="43.24296" lon="5.63279">
        <ele>488.6</ele>
        <time>2022-09-21T11:07:45Z</time>
      </trkpt>
      <trkpt lat="43.24292" lon="5.63271">
        <ele>488.1</ele>
        <time>2022-09-21T11:07:51Z</time>
      </trkpt>
      <trkpt lat="43.24289" lon="5.63262">
        <ele>487.7</ele>
        <time>2022-09-21T11:07:57Z</time>
      </trkpt>
      <trkpt lat="43.24287" lon="5.63257">
        <ele>487.3</ele>
        <time>2022-09-21T11:08:01Z</time>
      </trkpt>
      <trkpt lat="43.24283" lon="5.6325">
        <ele>486.8</ele>
        <time>2022-09-21T11:08:07Z</time>
      </trkpt>
      <trkpt lat="43.2428" lon="5.63244">
        <ele>486.4</ele>
        <time>2022-09-21T11:08:11Z</time>
      </trkpt>
      <trkpt lat="43.24276" lon="5.63238">
        <ele>485.7</ele>
        <time>2022-09-21T11:08:17Z</time>
      </trkpt>
      <trkpt lat="43.24273" lon="5.6323">
        <ele>485.3</ele>
        <time>2022-09-21T11:08:23Z</time>
      </trkpt>
      <trkpt lat="43.24271" lon="5.63224">
        <ele>485.2</ele>
        <time>2022-09-21T11:08:27Z</time>
      </trkpt>
      <trkpt lat="43.24268" lon="5.6322">
        <ele>484.9</ele>
        <time>2022-09-21T11:08:31Z</time>
      </trkpt>
      <trkpt lat="43.24267" lon="5.63211">
        <ele>485</ele>
        <time>2022-09-21T11:08:37Z</time>
      </trkpt>
      <trkpt lat="43.24265" lon="5.63205">
        <ele>484.9</ele>
        <time>2022-09-21T11:08:41Z</time>
      </trkpt>
      <trkpt lat="43.24263" lon="5.63199">
        <ele>484.9</ele>
        <time>2022-09-21T11:08:45Z</time>
      </trkpt>
      <trkpt lat="43.24262" lon="5.63193">
        <ele>484.8</ele>
        <time>2022-09-21T11:08:49Z</time>
      </trkpt>
      <trkpt lat="43.2426" lon="5.63185">
        <ele>484.2</ele>
        <time>2022-09-21T11:08:55Z</time>
      </trkpt>
      <trkpt lat="43.24258" lon="5.63177">
        <ele>483.8</ele>
        <time>2022-09-21T11:09:01Z</time>
      </trkpt>
      <trkpt lat="43.24256" lon="5.6317">
        <ele>483.4</ele>
        <time>2022-09-21T11:09:07Z</time>
      </trkpt>
      <trkpt lat="43.24254" lon="5.63164">
        <ele>482.9</ele>
        <time>2022-09-21T11:09:13Z</time>
      </trkpt>
      <trkpt lat="43.24251" lon="5.63158">
        <ele>482</ele>
        <time>2022-09-21T11:09:19Z</time>
      </trkpt>
      <trkpt lat="43.2425" lon="5.6315">
        <ele>481.2</ele>
        <time>2022-09-21T11:09:25Z</time>
      </trkpt>
      <trkpt lat="43.24247" lon="5.63144">
        <ele>480.5</ele>
        <time>2022-09-21T11:09:31Z</time>
      </trkpt>
      <trkpt lat="43.24247" lon="5.63137">
        <ele>479.7</ele>
        <time>2022-09-21T11:09:37Z</time>
      </trkpt>
      <trkpt lat="43.24244" lon="5.6313">
        <ele>479</ele>
        <time>2022-09-21T11:09:43Z</time>
      </trkpt>
      <trkpt lat="43.24242" lon="5.63123">
        <ele>478.4</ele>
        <time>2022-09-21T11:09:49Z</time>
      </trkpt>
      <trkpt lat="43.24242" lon="5.63117">
        <ele>477.8</ele>
        <time>2022-09-21T11:09:55Z</time>
      </trkpt>
      <trkpt lat="43.2424" lon="5.63109">
        <ele>477.1</ele>
        <time>2022-09-21T11:10:01Z</time>
      </trkpt>
      <trkpt lat="43.24239" lon="5.631">
        <ele>476.4</ele>
        <time>2022-09-21T11:10:07Z</time>
      </trkpt>
      <trkpt lat="43.24239" lon="5.63094">
        <ele>475.8</ele>
        <time>2022-09-21T11:10:13Z</time>
      </trkpt>
      <trkpt lat="43.24239" lon="5.63087">
        <ele>475.1</ele>
        <time>2022-09-21T11:10:19Z</time>
      </trkpt>
      <trkpt lat="43.24238" lon="5.63079">
        <ele>474.7</ele>
        <time>2022-09-21T11:10:25Z</time>
      </trkpt>
      <trkpt lat="43.24236" lon="5.63072">
        <ele>474.6</ele>
        <time>2022-09-21T11:10:31Z</time>
      </trkpt>
      <trkpt lat="43.24237" lon="5.63065">
        <ele>474.3</ele>
        <time>2022-09-21T11:10:35Z</time>
      </trkpt>
      <trkpt lat="43.24237" lon="5.63059">
        <ele>474</ele>
        <time>2022-09-21T11:10:39Z</time>
      </trkpt>
      <trkpt lat="43.24237" lon="5.63052">
        <ele>473.7</ele>
        <time>2022-09-21T11:10:43Z</time>
      </trkpt>
      <trkpt lat="43.24235" lon="5.63045">
        <ele>473.3</ele>
        <time>2022-09-21T11:10:47Z</time>
      </trkpt>
      <trkpt lat="43.24232" lon="5.63038">
        <ele>473</ele>
        <time>2022-09-21T11:10:53Z</time>
      </trkpt>
      <trkpt lat="43.24233" lon="5.6303">
        <ele>472.4</ele>
        <time>2022-09-21T11:10:59Z</time>
      </trkpt>
      <trkpt lat="43.24235" lon="5.63023">
        <ele>471.8</ele>
        <time>2022-09-21T11:11:05Z</time>
      </trkpt>
      <trkpt lat="43.24238" lon="5.63019">
        <ele>471.2</ele>
        <time>2022-09-21T11:11:09Z</time>
      </trkpt>
      <trkpt lat="43.24243" lon="5.63013">
        <ele>470.5</ele>
        <time>2022-09-21T11:11:17Z</time>
      </trkpt>
      <trkpt lat="43.24244" lon="5.63005">
        <ele>469.8</ele>
        <time>2022-09-21T11:11:23Z</time>
      </trkpt>
      <trkpt lat="43.24246" lon="5.62999">
        <ele>469.2</ele>
        <time>2022-09-21T11:11:29Z</time>
      </trkpt>
      <trkpt lat="43.24248" lon="5.62993">
        <ele>468.4</ele>
        <time>2022-09-21T11:11:35Z</time>
      </trkpt>
      <trkpt lat="43.2425" lon="5.62986">
        <ele>467.5</ele>
        <time>2022-09-21T11:11:41Z</time>
      </trkpt>
      <trkpt lat="43.24254" lon="5.6298">
        <ele>466.4</ele>
        <time>2022-09-21T11:11:47Z</time>
      </trkpt>
      <trkpt lat="43.24257" lon="5.62973">
        <ele>465.4</ele>
        <time>2022-09-21T11:11:55Z</time>
      </trkpt>
      <trkpt lat="43.24259" lon="5.62966">
        <ele>464.5</ele>
        <time>2022-09-21T11:12:01Z</time>
      </trkpt>
      <trkpt lat="43.2426" lon="5.6296">
        <ele>463.9</ele>
        <time>2022-09-21T11:12:05Z</time>
      </trkpt>
      <trkpt lat="43.24262" lon="5.62952">
        <ele>463.2</ele>
        <time>2022-09-21T11:12:09Z</time>
      </trkpt>
      <trkpt lat="43.24263" lon="5.62946">
        <ele>462.6</ele>
        <time>2022-09-21T11:12:13Z</time>
      </trkpt>
      <trkpt lat="43.24262" lon="5.62939">
        <ele>462.2</ele>
        <time>2022-09-21T11:12:17Z</time>
      </trkpt>
      <trkpt lat="43.24262" lon="5.6293">
        <ele>461.8</ele>
        <time>2022-09-21T11:12:23Z</time>
      </trkpt>
      <trkpt lat="43.24263" lon="5.62924">
        <ele>461.4</ele>
        <time>2022-09-21T11:12:27Z</time>
      </trkpt>
      <trkpt lat="43.24264" lon="5.62915">
        <ele>460.9</ele>
        <time>2022-09-21T11:12:33Z</time>
      </trkpt>
      <trkpt lat="43.24266" lon="5.62906">
        <ele>460.3</ele>
        <time>2022-09-21T11:12:39Z</time>
      </trkpt>
      <trkpt lat="43.24268" lon="5.629">
        <ele>460</ele>
        <time>2022-09-21T11:12:45Z</time>
      </trkpt>
      <trkpt lat="43.24269" lon="5.62892">
        <ele>459.6</ele>
        <time>2022-09-21T11:12:51Z</time>
      </trkpt>
      <trkpt lat="43.24271" lon="5.62884">
        <ele>459.5</ele>
        <time>2022-09-21T11:12:57Z</time>
      </trkpt>
      <trkpt lat="43.24273" lon="5.62878">
        <ele>459.6</ele>
        <time>2022-09-21T11:13:03Z</time>
      </trkpt>
      <trkpt lat="43.24273" lon="5.6287">
        <ele>459.5</ele>
        <time>2022-09-21T11:13:09Z</time>
      </trkpt>
      <trkpt lat="43.24274" lon="5.62864">
        <ele>459.6</ele>
        <time>2022-09-21T11:13:13Z</time>
      </trkpt>
      <trkpt lat="43.24275" lon="5.62858">
        <ele>459.7</ele>
        <time>2022-09-21T11:13:17Z</time>
      </trkpt>
      <trkpt lat="43.24278" lon="5.62852">
        <ele>460</ele>
        <time>2022-09-21T11:13:21Z</time>
      </trkpt>
      <trkpt lat="43.2428" lon="5.62846">
        <ele>460</ele>
        <time>2022-09-21T11:13:27Z</time>
      </trkpt>
      <trkpt lat="43.24282" lon="5.62839">
        <ele>460.1</ele>
        <time>2022-09-21T11:13:35Z</time>
      </trkpt>
      <trkpt lat="43.24283" lon="5.62832">
        <ele>460.2</ele>
        <time>2022-09-21T11:13:41Z</time>
      </trkpt>
      <trkpt lat="43.24283" lon="5.62823">
        <ele>460.6</ele>
        <time>2022-09-21T11:13:47Z</time>
      </trkpt>
      <trkpt lat="43.2428" lon="5.62815">
        <ele>460.7</ele>
        <time>2022-09-21T11:13:53Z</time>
      </trkpt>
      <trkpt lat="43.24279" lon="5.62808">
        <ele>461</ele>
        <time>2022-09-21T11:13:59Z</time>
      </trkpt>
      <trkpt lat="43.24277" lon="5.62802">
        <ele>461.1</ele>
        <time>2022-09-21T11:14:03Z</time>
      </trkpt>
      <trkpt lat="43.24274" lon="5.62797">
        <ele>461</ele>
        <time>2022-09-21T11:14:07Z</time>
      </trkpt>
      <trkpt lat="43.24271" lon="5.62793">
        <ele>460.8</ele>
        <time>2022-09-21T11:14:11Z</time>
      </trkpt>
      <trkpt lat="43.24266" lon="5.62787">
        <ele>460.5</ele>
        <time>2022-09-21T11:14:17Z</time>
      </trkpt>
      <trkpt lat="43.24261" lon="5.62781">
        <ele>460.3</ele>
        <time>2022-09-21T11:14:23Z</time>
      </trkpt>
      <trkpt lat="43.24257" lon="5.62775">
        <ele>460.1</ele>
        <time>2022-09-21T11:14:29Z</time>
      </trkpt>
      <trkpt lat="43.24254" lon="5.62768">
        <ele>459.8</ele>
        <time>2022-09-21T11:14:35Z</time>
      </trkpt>
      <trkpt lat="43.2425" lon="5.62761">
        <ele>459.5</ele>
        <time>2022-09-21T11:14:41Z</time>
      </trkpt>
      <trkpt lat="43.24246" lon="5.62755">
        <ele>459.1</ele>
        <time>2022-09-21T11:14:47Z</time>
      </trkpt>
      <trkpt lat="43.24243" lon="5.62748">
        <ele>458.8</ele>
        <time>2022-09-21T11:14:53Z</time>
      </trkpt>
      <trkpt lat="43.24239" lon="5.62741">
        <ele>458.1</ele>
        <time>2022-09-21T11:14:59Z</time>
      </trkpt>
      <trkpt lat="43.24236" lon="5.62734">
        <ele>457.8</ele>
        <time>2022-09-21T11:15:05Z</time>
      </trkpt>
      <trkpt lat="43.24233" lon="5.62727">
        <ele>457.4</ele>
        <time>2022-09-21T11:15:11Z</time>
      </trkpt>
      <trkpt lat="43.24229" lon="5.62721">
        <ele>457</ele>
        <time>2022-09-21T11:15:17Z</time>
      </trkpt>
      <trkpt lat="43.24225" lon="5.62714">
        <ele>456.3</ele>
        <time>2022-09-21T11:15:23Z</time>
      </trkpt>
      <trkpt lat="43.24221" lon="5.62708">
        <ele>455.9</ele>
        <time>2022-09-21T11:15:29Z</time>
      </trkpt>
      <trkpt lat="43.24218" lon="5.62703">
        <ele>455.7</ele>
        <time>2022-09-21T11:15:33Z</time>
      </trkpt>
      <trkpt lat="43.24214" lon="5.62699">
        <ele>455.4</ele>
        <time>2022-09-21T11:15:37Z</time>
      </trkpt>
      <trkpt lat="43.24211" lon="5.62693">
        <ele>455.1</ele>
        <time>2022-09-21T11:15:43Z</time>
      </trkpt>
      <trkpt lat="43.24207" lon="5.62687">
        <ele>454.7</ele>
        <time>2022-09-21T11:15:49Z</time>
      </trkpt>
      <trkpt lat="43.24203" lon="5.62681">
        <ele>454.2</ele>
        <time>2022-09-21T11:15:53Z</time>
      </trkpt>
      <trkpt lat="43.242" lon="5.62676">
        <ele>453.7</ele>
        <time>2022-09-21T11:15:57Z</time>
      </trkpt>
      <trkpt lat="43.24196" lon="5.62669">
        <ele>453.2</ele>
        <time>2022-09-21T11:16:03Z</time>
      </trkpt>
      <trkpt lat="43.24193" lon="5.62663">
        <ele>452.8</ele>
        <time>2022-09-21T11:16:09Z</time>
      </trkpt>
      <trkpt lat="43.24189" lon="5.62658">
        <ele>452.6</ele>
        <time>2022-09-21T11:16:13Z</time>
      </trkpt>
      <trkpt lat="43.24185" lon="5.6265">
        <ele>452.2</ele>
        <time>2022-09-21T11:16:19Z</time>
      </trkpt>
      <trkpt lat="43.24183" lon="5.62644">
        <ele>451.9</ele>
        <time>2022-09-21T11:16:23Z</time>
      </trkpt>
      <trkpt lat="43.24182" lon="5.62637">
        <ele>451.4</ele>
        <time>2022-09-21T11:16:29Z</time>
      </trkpt>
      <trkpt lat="43.24178" lon="5.62633">
        <ele>451</ele>
        <time>2022-09-21T11:16:33Z</time>
      </trkpt>
      <trkpt lat="43.24174" lon="5.62627">
        <ele>450.4</ele>
        <time>2022-09-21T11:16:37Z</time>
      </trkpt>
      <trkpt lat="43.24171" lon="5.6262">
        <ele>449.8</ele>
        <time>2022-09-21T11:16:43Z</time>
      </trkpt>
      <trkpt lat="43.2417" lon="5.62613">
        <ele>449.2</ele>
        <time>2022-09-21T11:16:49Z</time>
      </trkpt>
      <trkpt lat="43.2417" lon="5.62606">
        <ele>448.7</ele>
        <time>2022-09-21T11:16:55Z</time>
      </trkpt>
      <trkpt lat="43.24169" lon="5.62597">
        <ele>448.1</ele>
        <time>2022-09-21T11:17:01Z</time>
      </trkpt>
      <trkpt lat="43.24169" lon="5.62591">
        <ele>447.6</ele>
        <time>2022-09-21T11:17:07Z</time>
      </trkpt>
      <trkpt lat="43.2417" lon="5.62583">
        <ele>447.1</ele>
        <time>2022-09-21T11:17:13Z</time>
      </trkpt>
      <trkpt lat="43.24169" lon="5.62576">
        <ele>446.5</ele>
        <time>2022-09-21T11:17:19Z</time>
      </trkpt>
      <trkpt lat="43.24169" lon="5.62569">
        <ele>446</ele>
        <time>2022-09-21T11:17:23Z</time>
      </trkpt>
      <trkpt lat="43.24169" lon="5.62561">
        <ele>445.4</ele>
        <time>2022-09-21T11:17:29Z</time>
      </trkpt>
      <trkpt lat="43.24167" lon="5.62553">
        <ele>444.9</ele>
        <time>2022-09-21T11:17:35Z</time>
      </trkpt>
      <trkpt lat="43.24166" lon="5.62546">
        <ele>444.7</ele>
        <time>2022-09-21T11:17:39Z</time>
      </trkpt>
      <trkpt lat="43.24165" lon="5.62537">
        <ele>444.3</ele>
        <time>2022-09-21T11:17:45Z</time>
      </trkpt>
      <trkpt lat="43.24166" lon="5.62528">
        <ele>444</ele>
        <time>2022-09-21T11:17:51Z</time>
      </trkpt>
      <trkpt lat="43.24167" lon="5.62519">
        <ele>444</ele>
        <time>2022-09-21T11:17:57Z</time>
      </trkpt>
      <trkpt lat="43.24166" lon="5.62511">
        <ele>444</ele>
        <time>2022-09-21T11:18:03Z</time>
      </trkpt>
      <trkpt lat="43.24167" lon="5.62504">
        <ele>444</ele>
        <time>2022-09-21T11:18:07Z</time>
      </trkpt>
      <trkpt lat="43.24169" lon="5.62495">
        <ele>443.7</ele>
        <time>2022-09-21T11:18:13Z</time>
      </trkpt>
      <trkpt lat="43.24168" lon="5.62489">
        <ele>443.8</ele>
        <time>2022-09-21T11:18:17Z</time>
      </trkpt>
      <trkpt lat="43.24169" lon="5.6248">
        <ele>443.7</ele>
        <time>2022-09-21T11:18:23Z</time>
      </trkpt>
      <trkpt lat="43.2417" lon="5.62471">
        <ele>443.5</ele>
        <time>2022-09-21T11:18:29Z</time>
      </trkpt>
      <trkpt lat="43.24171" lon="5.62462">
        <ele>443.4</ele>
        <time>2022-09-21T11:18:35Z</time>
      </trkpt>
      <trkpt lat="43.24173" lon="5.62453">
        <ele>443.3</ele>
        <time>2022-09-21T11:18:41Z</time>
      </trkpt>
      <trkpt lat="43.24171" lon="5.62447">
        <ele>443.5</ele>
        <time>2022-09-21T11:18:45Z</time>
      </trkpt>
      <trkpt lat="43.2417" lon="5.62441">
        <ele>443.8</ele>
        <time>2022-09-21T11:18:49Z</time>
      </trkpt>
      <trkpt lat="43.2417" lon="5.62434">
        <ele>444</ele>
        <time>2022-09-21T11:18:53Z</time>
      </trkpt>
      <trkpt lat="43.24172" lon="5.62428">
        <ele>444.1</ele>
        <time>2022-09-21T11:18:57Z</time>
      </trkpt>
      <trkpt lat="43.24174" lon="5.62421">
        <ele>444.2</ele>
        <time>2022-09-21T11:19:03Z</time>
      </trkpt>
      <trkpt lat="43.24176" lon="5.62413">
        <ele>444.6</ele>
        <time>2022-09-21T11:19:09Z</time>
      </trkpt>
      <trkpt lat="43.24176" lon="5.62406">
        <ele>444.9</ele>
        <time>2022-09-21T11:19:13Z</time>
      </trkpt>
      <trkpt lat="43.24178" lon="5.62398">
        <ele>445.4</ele>
        <time>2022-09-21T11:19:19Z</time>
      </trkpt>
      <trkpt lat="43.24179" lon="5.6239">
        <ele>445.9</ele>
        <time>2022-09-21T11:19:25Z</time>
      </trkpt>
      <trkpt lat="43.24181" lon="5.62384">
        <ele>446.4</ele>
        <time>2022-09-21T11:19:31Z</time>
      </trkpt>
      <trkpt lat="43.24182" lon="5.62377">
        <ele>446.9</ele>
        <time>2022-09-21T11:19:37Z</time>
      </trkpt>
      <trkpt lat="43.24182" lon="5.62371">
        <ele>447.3</ele>
        <time>2022-09-21T11:19:43Z</time>
      </trkpt>
      <trkpt lat="43.24184" lon="5.62363">
        <ele>447.8</ele>
        <time>2022-09-21T11:19:49Z</time>
      </trkpt>
      <trkpt lat="43.24186" lon="5.62356">
        <ele>448.5</ele>
        <time>2022-09-21T11:19:55Z</time>
      </trkpt>
      <trkpt lat="43.24186" lon="5.62348">
        <ele>449.1</ele>
        <time>2022-09-21T11:20:01Z</time>
      </trkpt>
      <trkpt lat="43.24187" lon="5.62341">
        <ele>449.8</ele>
        <time>2022-09-21T11:20:07Z</time>
      </trkpt>
      <trkpt lat="43.24189" lon="5.62334">
        <ele>450.6</ele>
        <time>2022-09-21T11:20:13Z</time>
      </trkpt>
      <trkpt lat="43.24191" lon="5.62327">
        <ele>451.2</ele>
        <time>2022-09-21T11:20:19Z</time>
      </trkpt>
      <trkpt lat="43.24191" lon="5.62327">
        <ele>451.2</ele>
        <time>2022-09-21T11:20:19Z</time>
      </trkpt>
      <trkpt lat="43.24191" lon="5.62319">
        <ele>451.8</ele>
        <time>2022-09-21T11:20:25Z</time>
      </trkpt>
      <trkpt lat="43.24193" lon="5.62311">
        <ele>452.5</ele>
        <time>2022-09-21T11:20:33Z</time>
      </trkpt>
      <trkpt lat="43.24197" lon="5.62305">
        <ele>453.1</ele>
        <time>2022-09-21T11:20:39Z</time>
      </trkpt>
      <trkpt lat="43.24201" lon="5.623">
        <ele>453.6</ele>
        <time>2022-09-21T11:20:47Z</time>
      </trkpt>
      <trkpt lat="43.24204" lon="5.62294">
        <ele>454.2</ele>
        <time>2022-09-21T11:20:55Z</time>
      </trkpt>
      <trkpt lat="43.24207" lon="5.62286">
        <ele>454.9</ele>
        <time>2022-09-21T11:21:03Z</time>
      </trkpt>
      <trkpt lat="43.2421" lon="5.62279">
        <ele>455.4</ele>
        <time>2022-09-21T11:21:09Z</time>
      </trkpt>
      <trkpt lat="43.24212" lon="5.62274">
        <ele>456</ele>
        <time>2022-09-21T11:21:15Z</time>
      </trkpt>
      <trkpt lat="43.24215" lon="5.62268">
        <ele>456.7</ele>
        <time>2022-09-21T11:21:21Z</time>
      </trkpt>
      <trkpt lat="43.24217" lon="5.6226">
        <ele>457.6</ele>
        <time>2022-09-21T11:21:27Z</time>
      </trkpt>
      <trkpt lat="43.24219" lon="5.62254">
        <ele>458.4</ele>
        <time>2022-09-21T11:21:33Z</time>
      </trkpt>
      <trkpt lat="43.24221" lon="5.62246">
        <ele>459.2</ele>
        <time>2022-09-21T11:21:41Z</time>
      </trkpt>
      <trkpt lat="43.24223" lon="5.62239">
        <ele>459.9</ele>
        <time>2022-09-21T11:21:47Z</time>
      </trkpt>
      <trkpt lat="43.24226" lon="5.62232">
        <ele>460.4</ele>
        <time>2022-09-21T11:21:53Z</time>
      </trkpt>
      <trkpt lat="43.24227" lon="5.62226">
        <ele>460.9</ele>
        <time>2022-09-21T11:21:57Z</time>
      </trkpt>
      <trkpt lat="43.24227" lon="5.62218">
        <ele>461.5</ele>
        <time>2022-09-21T11:22:03Z</time>
      </trkpt>
      <trkpt lat="43.24225" lon="5.62211">
        <ele>461.9</ele>
        <time>2022-09-21T11:22:13Z</time>
      </trkpt>
      <trkpt lat="43.24223" lon="5.62206">
        <ele>462.2</ele>
        <time>2022-09-21T11:22:23Z</time>
      </trkpt>
      <trkpt lat="43.24219" lon="5.62202">
        <ele>462.2</ele>
        <time>2022-09-21T11:22:31Z</time>
      </trkpt>
      <trkpt lat="43.24225" lon="5.62202">
        <ele>462.6</ele>
        <time>2022-09-21T11:23:17Z</time>
      </trkpt>
      <trkpt lat="43.2423" lon="5.62199">
        <ele>462.9</ele>
        <time>2022-09-21T11:23:23Z</time>
      </trkpt>
      <trkpt lat="43.24233" lon="5.62194">
        <ele>463.4</ele>
        <time>2022-09-21T11:23:31Z</time>
      </trkpt>
      <trkpt lat="43.24236" lon="5.62186">
        <ele>463.8</ele>
        <time>2022-09-21T11:23:39Z</time>
      </trkpt>
      <trkpt lat="43.24238" lon="5.62179">
        <ele>464.1</ele>
        <time>2022-09-21T11:23:45Z</time>
      </trkpt>
      <trkpt lat="43.24239" lon="5.6217">
        <ele>464.5</ele>
        <time>2022-09-21T11:23:51Z</time>
      </trkpt>
      <trkpt lat="43.24241" lon="5.62163">
        <ele>464.8</ele>
        <time>2022-09-21T11:23:57Z</time>
      </trkpt>
      <trkpt lat="43.24243" lon="5.62155">
        <ele>465.2</ele>
        <time>2022-09-21T11:24:03Z</time>
      </trkpt>
      <trkpt lat="43.24244" lon="5.62147">
        <ele>465.5</ele>
        <time>2022-09-21T11:24:09Z</time>
      </trkpt>
      <trkpt lat="43.24246" lon="5.62139">
        <ele>465.9</ele>
        <time>2022-09-21T11:24:15Z</time>
      </trkpt>
      <trkpt lat="43.24247" lon="5.62132">
        <ele>466.1</ele>
        <time>2022-09-21T11:24:21Z</time>
      </trkpt>
      <trkpt lat="43.24249" lon="5.62124">
        <ele>466.4</ele>
        <time>2022-09-21T11:24:27Z</time>
      </trkpt>
      <trkpt lat="43.2425" lon="5.62117">
        <ele>466.8</ele>
        <time>2022-09-21T11:24:33Z</time>
      </trkpt>
      <trkpt lat="43.24251" lon="5.6211">
        <ele>467</ele>
        <time>2022-09-21T11:24:39Z</time>
      </trkpt>
      <trkpt lat="43.24253" lon="5.62102">
        <ele>466.8</ele>
        <time>2022-09-21T11:25:19Z</time>
      </trkpt>
      <trkpt lat="43.24254" lon="5.62096">
        <ele>466.7</ele>
        <time>2022-09-21T11:25:25Z</time>
      </trkpt>
      <trkpt lat="43.24256" lon="5.62088">
        <ele>466.6</ele>
        <time>2022-09-21T11:25:33Z</time>
      </trkpt>
      <trkpt lat="43.24258" lon="5.62081">
        <ele>466.5</ele>
        <time>2022-09-21T11:25:43Z</time>
      </trkpt>
      <trkpt lat="43.2426" lon="5.62073">
        <ele>466.3</ele>
        <time>2022-09-21T11:25:49Z</time>
      </trkpt>
      <trkpt lat="43.24262" lon="5.62067">
        <ele>466.3</ele>
        <time>2022-09-21T11:25:53Z</time>
      </trkpt>
      <trkpt lat="43.24264" lon="5.62062">
        <ele>466.3</ele>
        <time>2022-09-21T11:25:57Z</time>
      </trkpt>
      <trkpt lat="43.24267" lon="5.62056">
        <ele>466.2</ele>
        <time>2022-09-21T11:26:01Z</time>
      </trkpt>
      <trkpt lat="43.2427" lon="5.62049">
        <ele>466.1</ele>
        <time>2022-09-21T11:26:07Z</time>
      </trkpt>
      <trkpt lat="43.24273" lon="5.62041">
        <ele>466</ele>
        <time>2022-09-21T11:26:13Z</time>
      </trkpt>
      <trkpt lat="43.24275" lon="5.62034">
        <ele>466</ele>
        <time>2022-09-21T11:26:17Z</time>
      </trkpt>
      <trkpt lat="43.24277" lon="5.62026">
        <ele>466</ele>
        <time>2022-09-21T11:26:23Z</time>
      </trkpt>
      <trkpt lat="43.2428" lon="5.62018">
        <ele>466</ele>
        <time>2022-09-21T11:26:29Z</time>
      </trkpt>
      <trkpt lat="43.24282" lon="5.62012">
        <ele>466</ele>
        <time>2022-09-21T11:26:33Z</time>
      </trkpt>
      <trkpt lat="43.24286" lon="5.62004">
        <ele>466</ele>
        <time>2022-09-21T11:26:39Z</time>
      </trkpt>
      <trkpt lat="43.24288" lon="5.61996">
        <ele>465.9</ele>
        <time>2022-09-21T11:26:45Z</time>
      </trkpt>
      <trkpt lat="43.24291" lon="5.61989">
        <ele>465.8</ele>
        <time>2022-09-21T11:26:51Z</time>
      </trkpt>
      <trkpt lat="43.24294" lon="5.61982">
        <ele>465.7</ele>
        <time>2022-09-21T11:26:57Z</time>
      </trkpt>
      <trkpt lat="43.24297" lon="5.61978">
        <ele>465.8</ele>
        <time>2022-09-21T11:27:07Z</time>
      </trkpt>
      <trkpt lat="43.243" lon="5.61972">
        <ele>465.8</ele>
        <time>2022-09-21T11:27:33Z</time>
      </trkpt>
      <trkpt lat="43.24301" lon="5.61963">
        <ele>465.8</ele>
        <time>2022-09-21T11:27:39Z</time>
      </trkpt>
      <trkpt lat="43.24302" lon="5.61955">
        <ele>465.8</ele>
        <time>2022-09-21T11:27:45Z</time>
      </trkpt>
      <trkpt lat="43.24304" lon="5.61946">
        <ele>465.9</ele>
        <time>2022-09-21T11:27:51Z</time>
      </trkpt>
      <trkpt lat="43.24305" lon="5.6194">
        <ele>465.9</ele>
        <time>2022-09-21T11:27:55Z</time>
      </trkpt>
      <trkpt lat="43.24305" lon="5.61932">
        <ele>466</ele>
        <time>2022-09-21T11:28:01Z</time>
      </trkpt>
      <trkpt lat="43.24307" lon="5.61924">
        <ele>465.8</ele>
        <time>2022-09-21T11:28:07Z</time>
      </trkpt>
      <trkpt lat="43.24307" lon="5.61915">
        <ele>466</ele>
        <time>2022-09-21T11:28:13Z</time>
      </trkpt>
      <trkpt lat="43.24308" lon="5.61909">
        <ele>466.2</ele>
        <time>2022-09-21T11:28:17Z</time>
      </trkpt>
      <trkpt lat="43.24308" lon="5.619">
        <ele>466.5</ele>
        <time>2022-09-21T11:28:23Z</time>
      </trkpt>
      <trkpt lat="43.24312" lon="5.61897">
        <ele>466.6</ele>
        <time>2022-09-21T11:28:27Z</time>
      </trkpt>
      <trkpt lat="43.24314" lon="5.61891">
        <ele>466.9</ele>
        <time>2022-09-21T11:28:33Z</time>
      </trkpt>
      <trkpt lat="43.24316" lon="5.61883">
        <ele>467.2</ele>
        <time>2022-09-21T11:28:39Z</time>
      </trkpt>
      <trkpt lat="43.24318" lon="5.61875">
        <ele>467.7</ele>
        <time>2022-09-21T11:28:45Z</time>
      </trkpt>
      <trkpt lat="43.24321" lon="5.61867">
        <ele>468.3</ele>
        <time>2022-09-21T11:28:51Z</time>
      </trkpt>
      <trkpt lat="43.24325" lon="5.61861">
        <ele>469.1</ele>
        <time>2022-09-21T11:28:57Z</time>
      </trkpt>
      <trkpt lat="43.24328" lon="5.61853">
        <ele>469.9</ele>
        <time>2022-09-21T11:29:03Z</time>
      </trkpt>
      <trkpt lat="43.24329" lon="5.61845">
        <ele>470.6</ele>
        <time>2022-09-21T11:29:09Z</time>
      </trkpt>
      <trkpt lat="43.24332" lon="5.61838">
        <ele>471.4</ele>
        <time>2022-09-21T11:29:15Z</time>
      </trkpt>
      <trkpt lat="43.24334" lon="5.61832">
        <ele>471.9</ele>
        <time>2022-09-21T11:29:23Z</time>
      </trkpt>
      <trkpt lat="43.24338" lon="5.61827">
        <ele>471.7</ele>
        <time>2022-09-21T11:29:41Z</time>
      </trkpt>
      <trkpt lat="43.2434" lon="5.61821">
        <ele>471.9</ele>
        <time>2022-09-21T11:29:45Z</time>
      </trkpt>
      <trkpt lat="43.24341" lon="5.61814">
        <ele>472.4</ele>
        <time>2022-09-21T11:29:53Z</time>
      </trkpt>
      <trkpt lat="43.24341" lon="5.61807">
        <ele>472.9</ele>
        <time>2022-09-21T11:30:27Z</time>
      </trkpt>
      <trkpt lat="43.24343" lon="5.618">
        <ele>473.4</ele>
        <time>2022-09-21T11:30:33Z</time>
      </trkpt>
      <trkpt lat="43.24345" lon="5.61793">
        <ele>474</ele>
        <time>2022-09-21T11:30:39Z</time>
      </trkpt>
      <trkpt lat="43.24347" lon="5.61786">
        <ele>474.8</ele>
        <time>2022-09-21T11:30:45Z</time>
      </trkpt>
      <trkpt lat="43.24348" lon="5.61779">
        <ele>475.5</ele>
        <time>2022-09-21T11:30:51Z</time>
      </trkpt>
      <trkpt lat="43.2435" lon="5.61771">
        <ele>476</ele>
        <time>2022-09-21T11:30:57Z</time>
      </trkpt>
      <trkpt lat="43.24352" lon="5.61764">
        <ele>476.5</ele>
        <time>2022-09-21T11:31:03Z</time>
      </trkpt>
      <trkpt lat="43.24356" lon="5.61757">
        <ele>477.1</ele>
        <time>2022-09-21T11:31:09Z</time>
      </trkpt>
      <trkpt lat="43.24357" lon="5.61751">
        <ele>477.5</ele>
        <time>2022-09-21T11:31:15Z</time>
      </trkpt>
      <trkpt lat="43.24361" lon="5.61745">
        <ele>478</ele>
        <time>2022-09-21T11:31:23Z</time>
      </trkpt>
      <trkpt lat="43.24364" lon="5.61739">
        <ele>478.1</ele>
        <time>2022-09-21T11:31:29Z</time>
      </trkpt>
      <trkpt lat="43.24366" lon="5.61731">
        <ele>478.4</ele>
        <time>2022-09-21T11:31:35Z</time>
      </trkpt>
      <trkpt lat="43.24369" lon="5.61726">
        <ele>478.7</ele>
        <time>2022-09-21T11:31:39Z</time>
      </trkpt>
      <trkpt lat="43.24372" lon="5.61719">
        <ele>479.3</ele>
        <time>2022-09-21T11:31:45Z</time>
      </trkpt>
      <trkpt lat="43.24375" lon="5.61712">
        <ele>479.9</ele>
        <time>2022-09-21T11:31:51Z</time>
      </trkpt>
      <trkpt lat="43.24378" lon="5.61705">
        <ele>480.5</ele>
        <time>2022-09-21T11:31:57Z</time>
      </trkpt>
      <trkpt lat="43.24379" lon="5.61697">
        <ele>481.1</ele>
        <time>2022-09-21T11:32:03Z</time>
      </trkpt>
      <trkpt lat="43.2438" lon="5.61689">
        <ele>481.6</ele>
        <time>2022-09-21T11:32:09Z</time>
      </trkpt>
      <trkpt lat="43.24381" lon="5.61683">
        <ele>481.9</ele>
        <time>2022-09-21T11:32:13Z</time>
      </trkpt>
      <trkpt lat="43.24383" lon="5.61675">
        <ele>482.7</ele>
        <time>2022-09-21T11:32:19Z</time>
      </trkpt>
      <trkpt lat="43.24385" lon="5.61667">
        <ele>483.3</ele>
        <time>2022-09-21T11:32:25Z</time>
      </trkpt>
      <trkpt lat="43.24385" lon="5.61659">
        <ele>483.3</ele>
        <time>2022-09-21T11:32:31Z</time>
      </trkpt>
      <trkpt lat="43.24385" lon="5.61651">
        <ele>483.3</ele>
        <time>2022-09-21T11:32:37Z</time>
      </trkpt>
      <trkpt lat="43.24384" lon="5.61643">
        <ele>483.3</ele>
        <time>2022-09-21T11:32:43Z</time>
      </trkpt>
      <trkpt lat="43.24383" lon="5.61635">
        <ele>483.3</ele>
        <time>2022-09-21T11:32:49Z</time>
      </trkpt>
      <trkpt lat="43.24382" lon="5.61626">
        <ele>483.4</ele>
        <time>2022-09-21T11:32:55Z</time>
      </trkpt>
      <trkpt lat="43.24382" lon="5.6162">
        <ele>483.5</ele>
        <time>2022-09-21T11:33:01Z</time>
      </trkpt>
      <trkpt lat="43.2438" lon="5.61612">
        <ele>483.4</ele>
        <time>2022-09-21T11:33:09Z</time>
      </trkpt>
      <trkpt lat="43.24379" lon="5.61605">
        <ele>482.8</ele>
        <time>2022-09-21T11:33:15Z</time>
      </trkpt>
      <trkpt lat="43.24378" lon="5.61599">
        <ele>482.2</ele>
        <time>2022-09-21T11:33:19Z</time>
      </trkpt>
      <trkpt lat="43.24377" lon="5.61593">
        <ele>481.7</ele>
        <time>2022-09-21T11:33:23Z</time>
      </trkpt>
      <trkpt lat="43.24377" lon="5.61585">
        <ele>481.2</ele>
        <time>2022-09-21T11:33:29Z</time>
      </trkpt>
      <trkpt lat="43.24377" lon="5.61577">
        <ele>480.8</ele>
        <time>2022-09-21T11:33:35Z</time>
      </trkpt>
      <trkpt lat="43.24375" lon="5.61568">
        <ele>480.4</ele>
        <time>2022-09-21T11:33:41Z</time>
      </trkpt>
      <trkpt lat="43.24373" lon="5.61561">
        <ele>480.3</ele>
        <time>2022-09-21T11:34:09Z</time>
      </trkpt>
      <trkpt lat="43.24376" lon="5.61556">
        <ele>480</ele>
        <time>2022-09-21T11:34:57Z</time>
      </trkpt>
      <trkpt lat="43.24373" lon="5.61548">
        <ele>480</ele>
        <time>2022-09-21T11:35:03Z</time>
      </trkpt>
      <trkpt lat="43.24374" lon="5.61542">
        <ele>479.9</ele>
        <time>2022-09-21T11:35:09Z</time>
      </trkpt>
      <trkpt lat="43.24377" lon="5.61536">
        <ele>479.5</ele>
        <time>2022-09-21T11:35:15Z</time>
      </trkpt>
      <trkpt lat="43.24379" lon="5.61529">
        <ele>479.1</ele>
        <time>2022-09-21T11:35:23Z</time>
      </trkpt>
      <trkpt lat="43.2438" lon="5.61522">
        <ele>479.4</ele>
        <time>2022-09-21T11:35:35Z</time>
      </trkpt>
      <trkpt lat="43.24382" lon="5.61515">
        <ele>479.7</ele>
        <time>2022-09-21T11:35:41Z</time>
      </trkpt>
      <trkpt lat="43.24381" lon="5.61508">
        <ele>480.3</ele>
        <time>2022-09-21T11:35:47Z</time>
      </trkpt>
      <trkpt lat="43.2438" lon="5.61501">
        <ele>480.9</ele>
        <time>2022-09-21T11:35:57Z</time>
      </trkpt>
      <trkpt lat="43.2438" lon="5.61495">
        <ele>481.7</ele>
        <time>2022-09-21T11:36:03Z</time>
      </trkpt>
      <trkpt lat="43.24382" lon="5.61489">
        <ele>482.3</ele>
        <time>2022-09-21T11:36:09Z</time>
      </trkpt>
      <trkpt lat="43.2438" lon="5.61483">
        <ele>483.5</ele>
        <time>2022-09-21T11:36:21Z</time>
      </trkpt>
      <trkpt lat="43.24379" lon="5.61475">
        <ele>484.8</ele>
        <time>2022-09-21T11:36:29Z</time>
      </trkpt>
      <trkpt lat="43.2438" lon="5.61468">
        <ele>485.3</ele>
        <time>2022-09-21T11:36:35Z</time>
      </trkpt>
      <trkpt lat="43.24383" lon="5.61463">
        <ele>484.8</ele>
        <time>2022-09-21T11:36:41Z</time>
      </trkpt>
      <trkpt lat="43.24386" lon="5.61458">
        <ele>484</ele>
        <time>2022-09-21T11:36:51Z</time>
      </trkpt>
      <trkpt lat="43.24381" lon="5.61453">
        <ele>485.8</ele>
        <time>2022-09-21T11:37:57Z</time>
      </trkpt>
      <trkpt lat="43.24381" lon="5.61445">
        <ele>486.3</ele>
        <time>2022-09-21T11:38:03Z</time>
      </trkpt>
      <trkpt lat="43.24381" lon="5.61438">
        <ele>485.8</ele>
        <time>2022-09-21T11:38:23Z</time>
      </trkpt>
      <trkpt lat="43.24379" lon="5.61431">
        <ele>485.8</ele>
        <time>2022-09-21T11:38:29Z</time>
      </trkpt>
      <trkpt lat="43.24377" lon="5.61424">
        <ele>486.4</ele>
        <time>2022-09-21T11:38:35Z</time>
      </trkpt>
      <trkpt lat="43.24374" lon="5.61419">
        <ele>488.1</ele>
        <time>2022-09-21T11:38:41Z</time>
      </trkpt>
      <trkpt lat="43.24371" lon="5.61413">
        <ele>489.9</ele>
        <time>2022-09-21T11:38:49Z</time>
      </trkpt>
      <trkpt lat="43.24372" lon="5.61422">
        <ele>490.1</ele>
        <time>2022-09-21T11:39:03Z</time>
      </trkpt>
      <trkpt lat="43.24373" lon="5.6143">
        <ele>489.2</ele>
        <time>2022-09-21T11:39:09Z</time>
      </trkpt>
      <trkpt lat="43.24375" lon="5.61436">
        <ele>488.7</ele>
        <time>2022-09-21T11:39:13Z</time>
      </trkpt>
      <trkpt lat="43.24377" lon="5.61444">
        <ele>488</ele>
        <time>2022-09-21T11:39:19Z</time>
      </trkpt>
      <trkpt lat="43.24379" lon="5.6145">
        <ele>487</ele>
        <time>2022-09-21T11:39:31Z</time>
      </trkpt>
      <trkpt lat="43.24377" lon="5.61456">
        <ele>487.2</ele>
        <time>2022-09-21T11:39:37Z</time>
      </trkpt>
      <trkpt lat="43.24376" lon="5.61463">
        <ele>486.8</ele>
        <time>2022-09-21T11:39:43Z</time>
      </trkpt>
      <trkpt lat="43.24374" lon="5.61469">
        <ele>486.5</ele>
        <time>2022-09-21T11:39:49Z</time>
      </trkpt>
      <trkpt lat="43.24372" lon="5.61476">
        <ele>486</ele>
        <time>2022-09-21T11:39:55Z</time>
      </trkpt>
      <trkpt lat="43.24368" lon="5.61481">
        <ele>485.9</ele>
        <time>2022-09-21T11:40:03Z</time>
      </trkpt>
      <trkpt lat="43.24363" lon="5.61486">
        <ele>485.8</ele>
        <time>2022-09-21T11:40:09Z</time>
      </trkpt>
      <trkpt lat="43.24357" lon="5.61486">
        <ele>485.9</ele>
        <time>2022-09-21T11:40:15Z</time>
      </trkpt>
      <trkpt lat="43.24352" lon="5.61484">
        <ele>486.3</ele>
        <time>2022-09-21T11:40:21Z</time>
      </trkpt>
      <trkpt lat="43.24347" lon="5.61482">
        <ele>486.6</ele>
        <time>2022-09-21T11:40:27Z</time>
      </trkpt>
      <trkpt lat="43.24341" lon="5.61479">
        <ele>486.9</ele>
        <time>2022-09-21T11:40:33Z</time>
      </trkpt>
      <trkpt lat="43.24336" lon="5.61477">
        <ele>487.2</ele>
        <time>2022-09-21T11:40:39Z</time>
      </trkpt>
      <trkpt lat="43.2433" lon="5.61474">
        <ele>487.3</ele>
        <time>2022-09-21T11:40:45Z</time>
      </trkpt>
      <trkpt lat="43.24326" lon="5.61469">
        <ele>487.3</ele>
        <time>2022-09-21T11:40:51Z</time>
      </trkpt>
      <trkpt lat="43.24322" lon="5.61465">
        <ele>487.5</ele>
        <time>2022-09-21T11:40:57Z</time>
      </trkpt>
      <trkpt lat="43.2432" lon="5.61459">
        <ele>488</ele>
        <time>2022-09-21T11:41:03Z</time>
      </trkpt>
      <trkpt lat="43.24318" lon="5.61452">
        <ele>488.8</ele>
        <time>2022-09-21T11:41:09Z</time>
      </trkpt>
      <trkpt lat="43.24315" lon="5.61444">
        <ele>489.4</ele>
        <time>2022-09-21T11:41:15Z</time>
      </trkpt>
      <trkpt lat="43.24313" lon="5.61437">
        <ele>489.3</ele>
        <time>2022-09-21T11:41:21Z</time>
      </trkpt>
      <trkpt lat="43.24311" lon="5.61431">
        <ele>489.3</ele>
        <time>2022-09-21T11:41:27Z</time>
      </trkpt>
      <trkpt lat="43.24311" lon="5.61425">
        <ele>489.7</ele>
        <time>2022-09-21T11:41:37Z</time>
      </trkpt>
      <trkpt lat="43.24315" lon="5.61419">
        <ele>490.6</ele>
        <time>2022-09-21T11:41:49Z</time>
      </trkpt>
      <trkpt lat="43.24317" lon="5.61413">
        <ele>491</ele>
        <time>2022-09-21T11:41:55Z</time>
      </trkpt>
      <trkpt lat="43.24317" lon="5.61405">
        <ele>491.1</ele>
        <time>2022-09-21T11:42:03Z</time>
      </trkpt>
      <trkpt lat="43.24314" lon="5.61411">
        <ele>490.6</ele>
        <time>2022-09-21T11:42:15Z</time>
      </trkpt>
      <trkpt lat="43.24309" lon="5.61411">
        <ele>489.6</ele>
        <time>2022-09-21T11:42:23Z</time>
      </trkpt>
      <trkpt lat="43.24305" lon="5.61414">
        <ele>488.8</ele>
        <time>2022-09-21T11:42:31Z</time>
      </trkpt>
      <trkpt lat="43.243" lon="5.61413">
        <ele>487.7</ele>
        <time>2022-09-21T11:42:39Z</time>
      </trkpt>
      <trkpt lat="43.24296" lon="5.61416">
        <ele>486.6</ele>
        <time>2022-09-21T11:42:47Z</time>
      </trkpt>
      <trkpt lat="43.24292" lon="5.61421">
        <ele>485.5</ele>
        <time>2022-09-21T11:42:55Z</time>
      </trkpt>
      <trkpt lat="43.24288" lon="5.61426">
        <ele>484.5</ele>
        <time>2022-09-21T11:43:05Z</time>
      </trkpt>
      <trkpt lat="43.24283" lon="5.6143">
        <ele>483.3</ele>
        <time>2022-09-21T11:43:21Z</time>
      </trkpt>
      <trkpt lat="43.24279" lon="5.61433">
        <ele>482.2</ele>
        <time>2022-09-21T11:43:27Z</time>
      </trkpt>
      <trkpt lat="43.24274" lon="5.61436">
        <ele>481.4</ele>
        <time>2022-09-21T11:43:33Z</time>
      </trkpt>
      <trkpt lat="43.24269" lon="5.61436">
        <ele>480.5</ele>
        <time>2022-09-21T11:43:41Z</time>
      </trkpt>
      <trkpt lat="43.24266" lon="5.61431">
        <ele>479.9</ele>
        <time>2022-09-21T11:43:57Z</time>
      </trkpt>
      <trkpt lat="43.24262" lon="5.61428">
        <ele>479.2</ele>
        <time>2022-09-21T11:44:01Z</time>
      </trkpt>
      <trkpt lat="43.24257" lon="5.61426">
        <ele>478.3</ele>
        <time>2022-09-21T11:44:05Z</time>
      </trkpt>
      <trkpt lat="43.24255" lon="5.61432">
        <ele>477.9</ele>
        <time>2022-09-21T11:44:11Z</time>
      </trkpt>
      <trkpt lat="43.24258" lon="5.61438">
        <ele>478.4</ele>
        <time>2022-09-21T11:44:23Z</time>
      </trkpt>
      <trkpt lat="43.24259" lon="5.61431">
        <ele>478.7</ele>
        <time>2022-09-21T11:46:03Z</time>
      </trkpt>
      <trkpt lat="43.24256" lon="5.61425">
        <ele>478.1</ele>
        <time>2022-09-21T11:46:25Z</time>
      </trkpt>
      <trkpt lat="43.24252" lon="5.61421">
        <ele>477.3</ele>
        <time>2022-09-21T11:46:31Z</time>
      </trkpt>
      <trkpt lat="43.24247" lon="5.61415">
        <ele>476.5</ele>
        <time>2022-09-21T11:46:37Z</time>
      </trkpt>
      <trkpt lat="43.24246" lon="5.61407">
        <ele>476</ele>
        <time>2022-09-21T11:46:43Z</time>
      </trkpt>
      <trkpt lat="43.24248" lon="5.61398">
        <ele>475.9</ele>
        <time>2022-09-21T11:46:49Z</time>
      </trkpt>
      <trkpt lat="43.24251" lon="5.61392">
        <ele>476.4</ele>
        <time>2022-09-21T11:46:55Z</time>
      </trkpt>
      <trkpt lat="43.24253" lon="5.61385">
        <ele>476.3</ele>
        <time>2022-09-21T11:46:59Z</time>
      </trkpt>
      <trkpt lat="43.24255" lon="5.61377">
        <ele>475.8</ele>
        <time>2022-09-21T11:47:05Z</time>
      </trkpt>
      <trkpt lat="43.24256" lon="5.61371">
        <ele>475.5</ele>
        <time>2022-09-21T11:47:09Z</time>
      </trkpt>
      <trkpt lat="43.24258" lon="5.61364">
        <ele>475.3</ele>
        <time>2022-09-21T11:47:13Z</time>
      </trkpt>
      <trkpt lat="43.24258" lon="5.61358">
        <ele>474.9</ele>
        <time>2022-09-21T11:47:19Z</time>
      </trkpt>
      <trkpt lat="43.24259" lon="5.61352">
        <ele>474.7</ele>
        <time>2022-09-21T11:47:29Z</time>
      </trkpt>
      <trkpt lat="43.2426" lon="5.61344">
        <ele>474.3</ele>
        <time>2022-09-21T11:47:35Z</time>
      </trkpt>
      <trkpt lat="43.24262" lon="5.61335">
        <ele>474.1</ele>
        <time>2022-09-21T11:47:41Z</time>
      </trkpt>
      <trkpt lat="43.24263" lon="5.61327">
        <ele>473.9</ele>
        <time>2022-09-21T11:47:47Z</time>
      </trkpt>
      <trkpt lat="43.24264" lon="5.61319">
        <ele>473.8</ele>
        <time>2022-09-21T11:47:53Z</time>
      </trkpt>
      <trkpt lat="43.24265" lon="5.61311">
        <ele>473.6</ele>
        <time>2022-09-21T11:47:59Z</time>
      </trkpt>
      <trkpt lat="43.24265" lon="5.61303">
        <ele>473.3</ele>
        <time>2022-09-21T11:48:05Z</time>
      </trkpt>
      <trkpt lat="43.24265" lon="5.61295">
        <ele>473.2</ele>
        <time>2022-09-21T11:48:11Z</time>
      </trkpt>
      <trkpt lat="43.24262" lon="5.61287">
        <ele>472.4</ele>
        <time>2022-09-21T11:48:17Z</time>
      </trkpt>
      <trkpt lat="43.24259" lon="5.6128">
        <ele>471.5</ele>
        <time>2022-09-21T11:48:23Z</time>
      </trkpt>
      <trkpt lat="43.24257" lon="5.61274">
        <ele>471.4</ele>
        <time>2022-09-21T11:48:29Z</time>
      </trkpt>
      <trkpt lat="43.24254" lon="5.61269">
        <ele>471</ele>
        <time>2022-09-21T11:48:33Z</time>
      </trkpt>
      <trkpt lat="43.2425" lon="5.61264">
        <ele>470.6</ele>
        <time>2022-09-21T11:48:39Z</time>
      </trkpt>
      <trkpt lat="43.24248" lon="5.61258">
        <ele>470.4</ele>
        <time>2022-09-21T11:48:45Z</time>
      </trkpt>
      <trkpt lat="43.24243" lon="5.61252">
        <ele>469.9</ele>
        <time>2022-09-21T11:48:51Z</time>
      </trkpt>
      <trkpt lat="43.24238" lon="5.61246">
        <ele>469</ele>
        <time>2022-09-21T11:48:57Z</time>
      </trkpt>
      <trkpt lat="43.24234" lon="5.6124">
        <ele>468.3</ele>
        <time>2022-09-21T11:49:03Z</time>
      </trkpt>
      <trkpt lat="43.24231" lon="5.61235">
        <ele>467.9</ele>
        <time>2022-09-21T11:49:07Z</time>
      </trkpt>
      <trkpt lat="43.24229" lon="5.6123">
        <ele>467.9</ele>
        <time>2022-09-21T11:49:11Z</time>
      </trkpt>
      <trkpt lat="43.24225" lon="5.61222">
        <ele>467.8</ele>
        <time>2022-09-21T11:49:17Z</time>
      </trkpt>
      <trkpt lat="43.24222" lon="5.61217">
        <ele>467.3</ele>
        <time>2022-09-21T11:49:21Z</time>
      </trkpt>
      <trkpt lat="43.24219" lon="5.61212">
        <ele>466.8</ele>
        <time>2022-09-21T11:49:25Z</time>
      </trkpt>
      <trkpt lat="43.24216" lon="5.61205">
        <ele>466.2</ele>
        <time>2022-09-21T11:49:31Z</time>
      </trkpt>
      <trkpt lat="43.24213" lon="5.61199">
        <ele>466.1</ele>
        <time>2022-09-21T11:49:37Z</time>
      </trkpt>
      <trkpt lat="43.2421" lon="5.61192">
        <ele>465.7</ele>
        <time>2022-09-21T11:49:43Z</time>
      </trkpt>
      <trkpt lat="43.24206" lon="5.61185">
        <ele>464.9</ele>
        <time>2022-09-21T11:49:49Z</time>
      </trkpt>
      <trkpt lat="43.24202" lon="5.61179">
        <ele>464.4</ele>
        <time>2022-09-21T11:49:55Z</time>
      </trkpt>
      <trkpt lat="43.24199" lon="5.61172">
        <ele>463.8</ele>
        <time>2022-09-21T11:50:01Z</time>
      </trkpt>
      <trkpt lat="43.24196" lon="5.61166">
        <ele>463.4</ele>
        <time>2022-09-21T11:50:07Z</time>
      </trkpt>
      <trkpt lat="43.24191" lon="5.6116">
        <ele>462.5</ele>
        <time>2022-09-21T11:50:13Z</time>
      </trkpt>
      <trkpt lat="43.24188" lon="5.61153">
        <ele>461.9</ele>
        <time>2022-09-21T11:50:19Z</time>
      </trkpt>
      <trkpt lat="43.24184" lon="5.61147">
        <ele>461.3</ele>
        <time>2022-09-21T11:50:25Z</time>
      </trkpt>
      <trkpt lat="43.2418" lon="5.61142">
        <ele>460.6</ele>
        <time>2022-09-21T11:50:31Z</time>
      </trkpt>
      <trkpt lat="43.24176" lon="5.61136">
        <ele>459.9</ele>
        <time>2022-09-21T11:50:37Z</time>
      </trkpt>
      <trkpt lat="43.24173" lon="5.61129">
        <ele>459.2</ele>
        <time>2022-09-21T11:50:43Z</time>
      </trkpt>
      <trkpt lat="43.24168" lon="5.61123">
        <ele>458.4</ele>
        <time>2022-09-21T11:50:49Z</time>
      </trkpt>
      <trkpt lat="43.24165" lon="5.61119">
        <ele>458</ele>
        <time>2022-09-21T11:50:53Z</time>
      </trkpt>
      <trkpt lat="43.24161" lon="5.61113">
        <ele>457.5</ele>
        <time>2022-09-21T11:50:59Z</time>
      </trkpt>
      <trkpt lat="43.24158" lon="5.61107">
        <ele>457.2</ele>
        <time>2022-09-21T11:51:05Z</time>
      </trkpt>
      <trkpt lat="43.24156" lon="5.611">
        <ele>457.3</ele>
        <time>2022-09-21T11:51:11Z</time>
      </trkpt>
      <trkpt lat="43.24156" lon="5.61091">
        <ele>457.9</ele>
        <time>2022-09-21T11:51:17Z</time>
      </trkpt>
      <trkpt lat="43.24157" lon="5.61084">
        <ele>458.5</ele>
        <time>2022-09-21T11:51:21Z</time>
      </trkpt>
      <trkpt lat="43.24157" lon="5.61078">
        <ele>458.3</ele>
        <time>2022-09-21T11:51:25Z</time>
      </trkpt>
      <trkpt lat="43.24157" lon="5.6107">
        <ele>458</ele>
        <time>2022-09-21T11:51:31Z</time>
      </trkpt>
      <trkpt lat="43.24158" lon="5.61061">
        <ele>457.6</ele>
        <time>2022-09-21T11:51:37Z</time>
      </trkpt>
      <trkpt lat="43.24159" lon="5.61054">
        <ele>457</ele>
        <time>2022-09-21T11:51:43Z</time>
      </trkpt>
      <trkpt lat="43.24157" lon="5.61046">
        <ele>456</ele>
        <time>2022-09-21T11:51:49Z</time>
      </trkpt>
      <trkpt lat="43.24155" lon="5.61039">
        <ele>455.4</ele>
        <time>2022-09-21T11:51:53Z</time>
      </trkpt>
      <trkpt lat="43.24152" lon="5.61031">
        <ele>455.5</ele>
        <time>2022-09-21T11:51:59Z</time>
      </trkpt>
      <trkpt lat="43.24148" lon="5.61026">
        <ele>456.5</ele>
        <time>2022-09-21T11:52:03Z</time>
      </trkpt>
      <trkpt lat="43.24145" lon="5.61021">
        <ele>457.7</ele>
        <time>2022-09-21T11:52:07Z</time>
      </trkpt>
      <trkpt lat="43.24141" lon="5.61016">
        <ele>459</ele>
        <time>2022-09-21T11:52:11Z</time>
      </trkpt>
      <trkpt lat="43.24137" lon="5.61013">
        <ele>459.8</ele>
        <time>2022-09-21T11:52:15Z</time>
      </trkpt>
      <trkpt lat="43.24132" lon="5.61008">
        <ele>459.2</ele>
        <time>2022-09-21T11:52:21Z</time>
      </trkpt>
      <trkpt lat="43.24128" lon="5.61002">
        <ele>459.1</ele>
        <time>2022-09-21T11:52:27Z</time>
      </trkpt>
      <trkpt lat="43.24127" lon="5.60995">
        <ele>458.7</ele>
        <time>2022-09-21T11:52:35Z</time>
      </trkpt>
      <trkpt lat="43.24124" lon="5.60989">
        <ele>458.2</ele>
        <time>2022-09-21T11:52:47Z</time>
      </trkpt>
      <trkpt lat="43.24121" lon="5.60985">
        <ele>458.1</ele>
        <time>2022-09-21T11:53:01Z</time>
      </trkpt>
      <trkpt lat="43.24121" lon="5.6098">
        <ele>457.9</ele>
        <time>2022-09-21T11:57:47Z</time>
      </trkpt>
      <trkpt lat="43.24122" lon="5.60987">
        <ele>458.1</ele>
        <time>2022-09-21T13:30:37Z</time>
      </trkpt>
      <trkpt lat="43.24125" lon="5.60993">
        <ele>458.5</ele>
        <time>2022-09-21T13:33:09Z</time>
      </trkpt>
      <trkpt lat="43.24123" lon="5.60998">
        <ele>458.8</ele>
        <time>2022-09-21T13:33:35Z</time>
      </trkpt>
      <trkpt lat="43.24125" lon="5.61005">
        <ele>458.6</ele>
        <time>2022-09-21T13:34:03Z</time>
      </trkpt>
      <trkpt lat="43.24123" lon="5.61012">
        <ele>457.9</ele>
        <time>2022-09-21T13:34:11Z</time>
      </trkpt>
      <trkpt lat="43.24121" lon="5.61017">
        <ele>457.1</ele>
        <time>2022-09-21T13:34:23Z</time>
      </trkpt>
      <trkpt lat="43.24119" lon="5.61024">
        <ele>456.1</ele>
        <time>2022-09-21T13:34:33Z</time>
      </trkpt>
      <trkpt lat="43.24114" lon="5.61026">
        <ele>454.8</ele>
        <time>2022-09-21T13:34:45Z</time>
      </trkpt>
      <trkpt lat="43.24109" lon="5.6103">
        <ele>453.3</ele>
        <time>2022-09-21T13:34:55Z</time>
      </trkpt>
      <trkpt lat="43.24105" lon="5.61035">
        <ele>451.8</ele>
        <time>2022-09-21T13:35:03Z</time>
      </trkpt>
      <trkpt lat="43.241" lon="5.61038">
        <ele>450.4</ele>
        <time>2022-09-21T13:35:17Z</time>
      </trkpt>
      <trkpt lat="43.24096" lon="5.61035">
        <ele>449.9</ele>
        <time>2022-09-21T13:35:25Z</time>
      </trkpt>
      <trkpt lat="43.24091" lon="5.6103">
        <ele>449.4</ele>
        <time>2022-09-21T13:35:33Z</time>
      </trkpt>
      <trkpt lat="43.24087" lon="5.61024">
        <ele>449.2</ele>
        <time>2022-09-21T13:35:41Z</time>
      </trkpt>
      <trkpt lat="43.24083" lon="5.6102">
        <ele>448.8</ele>
        <time>2022-09-21T13:35:47Z</time>
      </trkpt>
      <trkpt lat="43.2408" lon="5.61015">
        <ele>448.3</ele>
        <time>2022-09-21T13:35:51Z</time>
      </trkpt>
      <trkpt lat="43.24076" lon="5.61012">
        <ele>447.6</ele>
        <time>2022-09-21T13:35:57Z</time>
      </trkpt>
      <trkpt lat="43.24071" lon="5.61009">
        <ele>446.9</ele>
        <time>2022-09-21T13:36:05Z</time>
      </trkpt>
      <trkpt lat="43.24068" lon="5.61003">
        <ele>446.7</ele>
        <time>2022-09-21T13:36:13Z</time>
      </trkpt>
      <trkpt lat="43.24065" lon="5.60998">
        <ele>446.4</ele>
        <time>2022-09-21T13:36:19Z</time>
      </trkpt>
      <trkpt lat="43.24061" lon="5.60994">
        <ele>445.8</ele>
        <time>2022-09-21T13:36:27Z</time>
      </trkpt>
      <trkpt lat="43.24057" lon="5.60988">
        <ele>445.2</ele>
        <time>2022-09-21T13:36:35Z</time>
      </trkpt>
      <trkpt lat="43.24052" lon="5.6098">
        <ele>444.6</ele>
        <time>2022-09-21T13:36:43Z</time>
      </trkpt>
      <trkpt lat="43.24048" lon="5.60975">
        <ele>444.1</ele>
        <time>2022-09-21T13:36:49Z</time>
      </trkpt>
      <trkpt lat="43.24044" lon="5.60971">
        <ele>443.5</ele>
        <time>2022-09-21T13:37:05Z</time>
      </trkpt>
      <trkpt lat="43.24041" lon="5.60964">
        <ele>442.9</ele>
        <time>2022-09-21T13:37:13Z</time>
      </trkpt>
      <trkpt lat="43.2404" lon="5.60957">
        <ele>442.9</ele>
        <time>2022-09-21T13:37:19Z</time>
      </trkpt>
      <trkpt lat="43.24038" lon="5.6095">
        <ele>442.5</ele>
        <time>2022-09-21T13:37:25Z</time>
      </trkpt>
      <trkpt lat="43.24035" lon="5.60945">
        <ele>441.7</ele>
        <time>2022-09-21T13:37:31Z</time>
      </trkpt>
      <trkpt lat="43.24032" lon="5.60938">
        <ele>441</ele>
        <time>2022-09-21T13:37:39Z</time>
      </trkpt>
      <trkpt lat="43.24031" lon="5.60931">
        <ele>440.3</ele>
        <time>2022-09-21T13:37:49Z</time>
      </trkpt>
      <trkpt lat="43.24031" lon="5.60924">
        <ele>440</ele>
        <time>2022-09-21T13:37:55Z</time>
      </trkpt>
      <trkpt lat="43.2403" lon="5.60917">
        <ele>439.5</ele>
        <time>2022-09-21T13:38:01Z</time>
      </trkpt>
      <trkpt lat="43.24029" lon="5.6091">
        <ele>438.9</ele>
        <time>2022-09-21T13:38:07Z</time>
      </trkpt>
      <trkpt lat="43.24028" lon="5.60902">
        <ele>438.1</ele>
        <time>2022-09-21T13:38:13Z</time>
      </trkpt>
      <trkpt lat="43.24028" lon="5.60894">
        <ele>437.4</ele>
        <time>2022-09-21T13:38:19Z</time>
      </trkpt>
      <trkpt lat="43.24027" lon="5.60887">
        <ele>436.7</ele>
        <time>2022-09-21T13:38:25Z</time>
      </trkpt>
      <trkpt lat="43.24028" lon="5.6088">
        <ele>436.4</ele>
        <time>2022-09-21T13:38:31Z</time>
      </trkpt>
      <trkpt lat="43.24027" lon="5.60874">
        <ele>435.8</ele>
        <time>2022-09-21T13:38:37Z</time>
      </trkpt>
      <trkpt lat="43.24026" lon="5.60867">
        <ele>434.9</ele>
        <time>2022-09-21T13:38:43Z</time>
      </trkpt>
      <trkpt lat="43.24024" lon="5.6086">
        <ele>433.8</ele>
        <time>2022-09-21T13:38:49Z</time>
      </trkpt>
      <trkpt lat="43.24022" lon="5.60853">
        <ele>432.8</ele>
        <time>2022-09-21T13:38:55Z</time>
      </trkpt>
      <trkpt lat="43.24021" lon="5.60846">
        <ele>432</ele>
        <time>2022-09-21T13:39:01Z</time>
      </trkpt>
      <trkpt lat="43.24018" lon="5.60839">
        <ele>431</ele>
        <time>2022-09-21T13:39:09Z</time>
      </trkpt>
      <trkpt lat="43.24016" lon="5.60833">
        <ele>429.9</ele>
        <time>2022-09-21T13:39:15Z</time>
      </trkpt>
      <trkpt lat="43.24012" lon="5.60828">
        <ele>429</ele>
        <time>2022-09-21T13:39:21Z</time>
      </trkpt>
      <trkpt lat="43.24009" lon="5.60823">
        <ele>428</ele>
        <time>2022-09-21T13:39:27Z</time>
      </trkpt>
      <trkpt lat="43.24005" lon="5.60818">
        <ele>427.1</ele>
        <time>2022-09-21T13:39:33Z</time>
      </trkpt>
      <trkpt lat="43.24002" lon="5.60812">
        <ele>426.4</ele>
        <time>2022-09-21T13:39:39Z</time>
      </trkpt>
      <trkpt lat="43.23998" lon="5.60808">
        <ele>425.5</ele>
        <time>2022-09-21T13:39:45Z</time>
      </trkpt>
      <trkpt lat="43.23993" lon="5.60803">
        <ele>424.5</ele>
        <time>2022-09-21T13:39:51Z</time>
      </trkpt>
      <trkpt lat="43.23989" lon="5.60798">
        <ele>423.6</ele>
        <time>2022-09-21T13:39:57Z</time>
      </trkpt>
      <trkpt lat="43.23984" lon="5.60793">
        <ele>422.7</ele>
        <time>2022-09-21T13:40:03Z</time>
      </trkpt>
      <trkpt lat="43.2398" lon="5.60785">
        <ele>422</ele>
        <time>2022-09-21T13:40:09Z</time>
      </trkpt>
      <trkpt lat="43.23975" lon="5.60781">
        <ele>421.4</ele>
        <time>2022-09-21T13:40:15Z</time>
      </trkpt>
      <trkpt lat="43.23975" lon="5.60772">
        <ele>421.2</ele>
        <time>2022-09-21T13:40:25Z</time>
      </trkpt>
      <trkpt lat="43.23979" lon="5.60768">
        <ele>421.2</ele>
        <time>2022-09-21T13:40:31Z</time>
      </trkpt>
      <trkpt lat="43.23983" lon="5.60762">
        <ele>420.6</ele>
        <time>2022-09-21T13:40:37Z</time>
      </trkpt>
      <trkpt lat="43.23988" lon="5.60759">
        <ele>419.9</ele>
        <time>2022-09-21T13:40:43Z</time>
      </trkpt>
      <trkpt lat="43.23993" lon="5.60757">
        <ele>419</ele>
        <time>2022-09-21T13:40:51Z</time>
      </trkpt>
      <trkpt lat="43.23998" lon="5.60757">
        <ele>418.4</ele>
        <time>2022-09-21T13:42:07Z</time>
      </trkpt>
      <trkpt lat="43.24002" lon="5.60758">
        <ele>417.9</ele>
        <time>2022-09-21T13:42:17Z</time>
      </trkpt>
      <trkpt lat="43.24" lon="5.60752">
        <ele>416.6</ele>
        <time>2022-09-21T13:42:31Z</time>
      </trkpt>
      <trkpt lat="43.24001" lon="5.60746">
        <ele>413.9</ele>
        <time>2022-09-21T13:42:45Z</time>
      </trkpt>
      <trkpt lat="43.23998" lon="5.60741">
        <ele>412.7</ele>
        <time>2022-09-21T13:43:11Z</time>
      </trkpt>
      <trkpt lat="43.23997" lon="5.60723">
        <ele>405.5</ele>
        <time>2022-09-21T13:46:30Z</time>
      </trkpt>
      <trkpt lat="43.23995" lon="5.60732">
        <ele>409.8</ele>
        <time>2022-09-21T13:46:33Z</time>
      </trkpt>
      <trkpt lat="43.23996" lon="5.60739">
        <ele>412.3</ele>
        <time>2022-09-21T13:46:37Z</time>
      </trkpt>
      <trkpt lat="43.23996" lon="5.60746">
        <ele>415</ele>
        <time>2022-09-21T13:46:43Z</time>
      </trkpt>
      <trkpt lat="43.23999" lon="5.60753">
        <ele>416.9</ele>
        <time>2022-09-21T13:47:03Z</time>
      </trkpt>
      <trkpt lat="43.23995" lon="5.60756">
        <ele>418.3</ele>
        <time>2022-09-21T13:47:29Z</time>
      </trkpt>
      <trkpt lat="43.2399" lon="5.60755">
        <ele>418.9</ele>
        <time>2022-09-21T13:47:41Z</time>
      </trkpt>
      <trkpt lat="43.23987" lon="5.60759">
        <ele>419.9</ele>
        <time>2022-09-21T13:48:59Z</time>
      </trkpt>
      <trkpt lat="43.23982" lon="5.6076">
        <ele>420.4</ele>
        <time>2022-09-21T13:50:51Z</time>
      </trkpt>
      <trkpt lat="43.23977" lon="5.6076">
        <ele>420.7</ele>
        <time>2022-09-21T13:51:01Z</time>
      </trkpt>
      <trkpt lat="43.23972" lon="5.60763">
        <ele>421</ele>
        <time>2022-09-21T13:51:09Z</time>
      </trkpt>
      <trkpt lat="43.23969" lon="5.60767">
        <ele>420.6</ele>
        <time>2022-09-21T13:51:17Z</time>
      </trkpt>
      <trkpt lat="43.23965" lon="5.60772">
        <ele>420.1</ele>
        <time>2022-09-21T13:51:25Z</time>
      </trkpt>
      <trkpt lat="43.2396" lon="5.60773">
        <ele>419.4</ele>
        <time>2022-09-21T13:51:35Z</time>
      </trkpt>
      <trkpt lat="43.23955" lon="5.60771">
        <ele>418.8</ele>
        <time>2022-09-21T13:51:43Z</time>
      </trkpt>
      <trkpt lat="43.2395" lon="5.60769">
        <ele>418.3</ele>
        <time>2022-09-21T13:51:51Z</time>
      </trkpt>
      <trkpt lat="43.23945" lon="5.60767">
        <ele>417.8</ele>
        <time>2022-09-21T13:51:59Z</time>
      </trkpt>
      <trkpt lat="43.2394" lon="5.60766">
        <ele>417.2</ele>
        <time>2022-09-21T13:52:05Z</time>
      </trkpt>
      <trkpt lat="43.23935" lon="5.60764">
        <ele>416.7</ele>
        <time>2022-09-21T13:52:11Z</time>
      </trkpt>
      <trkpt lat="43.2393" lon="5.60762">
        <ele>416.1</ele>
        <time>2022-09-21T13:52:19Z</time>
      </trkpt>
      <trkpt lat="43.23924" lon="5.60761">
        <ele>415.5</ele>
        <time>2022-09-21T13:52:27Z</time>
      </trkpt>
      <trkpt lat="43.23919" lon="5.60759">
        <ele>415</ele>
        <time>2022-09-21T13:52:35Z</time>
      </trkpt>
      <trkpt lat="43.23913" lon="5.60759">
        <ele>414.2</ele>
        <time>2022-09-21T13:52:43Z</time>
      </trkpt>
      <trkpt lat="43.23908" lon="5.60759">
        <ele>413.5</ele>
        <time>2022-09-21T13:52:49Z</time>
      </trkpt>
      <trkpt lat="43.23904" lon="5.60765">
        <ele>412.4</ele>
        <time>2022-09-21T13:52:57Z</time>
      </trkpt>
      <trkpt lat="43.23906" lon="5.60772">
        <ele>411.7</ele>
        <time>2022-09-21T13:53:03Z</time>
      </trkpt>
      <trkpt lat="43.23909" lon="5.60777">
        <ele>411.3</ele>
        <time>2022-09-21T13:53:09Z</time>
      </trkpt>
      <trkpt lat="43.23912" lon="5.60783">
        <ele>411</ele>
        <time>2022-09-21T13:53:15Z</time>
      </trkpt>
      <trkpt lat="43.23915" lon="5.60789">
        <ele>410.5</ele>
        <time>2022-09-21T13:53:21Z</time>
      </trkpt>
      <trkpt lat="43.23918" lon="5.60795">
        <ele>410.4</ele>
        <time>2022-09-21T13:53:27Z</time>
      </trkpt>
      <trkpt lat="43.23921" lon="5.608">
        <ele>410.5</ele>
        <time>2022-09-21T13:53:33Z</time>
      </trkpt>
      <trkpt lat="43.23926" lon="5.60805">
        <ele>410.7</ele>
        <time>2022-09-21T13:53:39Z</time>
      </trkpt>
      <trkpt lat="43.23931" lon="5.60811">
        <ele>410.7</ele>
        <time>2022-09-21T13:53:47Z</time>
      </trkpt>
      <trkpt lat="43.23934" lon="5.60817">
        <ele>410.3</ele>
        <time>2022-09-21T13:53:53Z</time>
      </trkpt>
      <trkpt lat="43.23937" lon="5.60824">
        <ele>409.8</ele>
        <time>2022-09-21T13:53:59Z</time>
      </trkpt>
      <trkpt lat="43.2394" lon="5.6083">
        <ele>409.6</ele>
        <time>2022-09-21T13:54:05Z</time>
      </trkpt>
      <trkpt lat="43.23942" lon="5.60836">
        <ele>409.4</ele>
        <time>2022-09-21T13:54:11Z</time>
      </trkpt>
      <trkpt lat="43.23944" lon="5.60844">
        <ele>409.8</ele>
        <time>2022-09-21T13:54:17Z</time>
      </trkpt>
      <trkpt lat="43.23944" lon="5.60851">
        <ele>409.8</ele>
        <time>2022-09-21T13:54:23Z</time>
      </trkpt>
      <trkpt lat="43.23943" lon="5.60857">
        <ele>409.5</ele>
        <time>2022-09-21T13:54:29Z</time>
      </trkpt>
      <trkpt lat="43.23942" lon="5.60864">
        <ele>409.4</ele>
        <time>2022-09-21T13:54:35Z</time>
      </trkpt>
      <trkpt lat="43.2394" lon="5.6087">
        <ele>409.3</ele>
        <time>2022-09-21T13:54:41Z</time>
      </trkpt>
      <trkpt lat="43.23938" lon="5.60875">
        <ele>408.8</ele>
        <time>2022-09-21T13:54:47Z</time>
      </trkpt>
      <trkpt lat="43.23935" lon="5.60882">
        <ele>408.4</ele>
        <time>2022-09-21T13:54:53Z</time>
      </trkpt>
      <trkpt lat="43.23932" lon="5.60888">
        <ele>407.8</ele>
        <time>2022-09-21T13:54:59Z</time>
      </trkpt>
      <trkpt lat="43.2393" lon="5.60894">
        <ele>407.7</ele>
        <time>2022-09-21T13:55:05Z</time>
      </trkpt>
      <trkpt lat="43.23927" lon="5.609">
        <ele>407.3</ele>
        <time>2022-09-21T13:55:11Z</time>
      </trkpt>
      <trkpt lat="43.23923" lon="5.60906">
        <ele>406.4</ele>
        <time>2022-09-21T13:55:17Z</time>
      </trkpt>
      <trkpt lat="43.2392" lon="5.60912">
        <ele>405.9</ele>
        <time>2022-09-21T13:55:23Z</time>
      </trkpt>
      <trkpt lat="43.23917" lon="5.60918">
        <ele>405.3</ele>
        <time>2022-09-21T13:55:29Z</time>
      </trkpt>
      <trkpt lat="43.23914" lon="5.60924">
        <ele>404.7</ele>
        <time>2022-09-21T13:55:35Z</time>
      </trkpt>
      <trkpt lat="43.23911" lon="5.60928">
        <ele>403.8</ele>
        <time>2022-09-21T13:55:41Z</time>
      </trkpt>
      <trkpt lat="43.23907" lon="5.60932">
        <ele>402.8</ele>
        <time>2022-09-21T13:55:47Z</time>
      </trkpt>
      <trkpt lat="43.23903" lon="5.60937">
        <ele>401.9</ele>
        <time>2022-09-21T13:55:53Z</time>
      </trkpt>
      <trkpt lat="43.23901" lon="5.60943">
        <ele>401.7</ele>
        <time>2022-09-21T13:55:59Z</time>
      </trkpt>
      <trkpt lat="43.23897" lon="5.60948">
        <ele>401</ele>
        <time>2022-09-21T13:56:05Z</time>
      </trkpt>
      <trkpt lat="43.23893" lon="5.60954">
        <ele>400.3</ele>
        <time>2022-09-21T13:56:11Z</time>
      </trkpt>
      <trkpt lat="43.23889" lon="5.60959">
        <ele>399.7</ele>
        <time>2022-09-21T13:56:17Z</time>
      </trkpt>
      <trkpt lat="43.23886" lon="5.60963">
        <ele>399.2</ele>
        <time>2022-09-21T13:56:23Z</time>
      </trkpt>
      <trkpt lat="43.23883" lon="5.60967">
        <ele>398.6</ele>
        <time>2022-09-21T13:56:29Z</time>
      </trkpt>
      <trkpt lat="43.23879" lon="5.60973">
        <ele>398.3</ele>
        <time>2022-09-21T13:56:35Z</time>
      </trkpt>
      <trkpt lat="43.23875" lon="5.60976">
        <ele>397.2</ele>
        <time>2022-09-21T13:56:41Z</time>
      </trkpt>
      <trkpt lat="43.23872" lon="5.60982">
        <ele>396.4</ele>
        <time>2022-09-21T13:56:47Z</time>
      </trkpt>
      <trkpt lat="43.23869" lon="5.60988">
        <ele>395.8</ele>
        <time>2022-09-21T13:56:53Z</time>
      </trkpt>
      <trkpt lat="43.23865" lon="5.60994">
        <ele>394.8</ele>
        <time>2022-09-21T13:56:59Z</time>
      </trkpt>
      <trkpt lat="43.23861" lon="5.60999">
        <ele>393.9</ele>
        <time>2022-09-21T13:57:07Z</time>
      </trkpt>
      <trkpt lat="43.23857" lon="5.61004">
        <ele>393.2</ele>
        <time>2022-09-21T13:57:13Z</time>
      </trkpt>
      <trkpt lat="43.23853" lon="5.61009">
        <ele>392.4</ele>
        <time>2022-09-21T13:57:19Z</time>
      </trkpt>
      <trkpt lat="43.23849" lon="5.61014">
        <ele>391.8</ele>
        <time>2022-09-21T13:57:25Z</time>
      </trkpt>
      <trkpt lat="43.23844" lon="5.61018">
        <ele>391.1</ele>
        <time>2022-09-21T13:57:33Z</time>
      </trkpt>
      <trkpt lat="43.23839" lon="5.6102">
        <ele>390.5</ele>
        <time>2022-09-21T13:57:39Z</time>
      </trkpt>
      <trkpt lat="43.23834" lon="5.61023">
        <ele>389.9</ele>
        <time>2022-09-21T13:57:47Z</time>
      </trkpt>
      <trkpt lat="43.2383" lon="5.61025">
        <ele>389.5</ele>
        <time>2022-09-21T13:57:53Z</time>
      </trkpt>
      <trkpt lat="43.23825" lon="5.61023">
        <ele>388.9</ele>
        <time>2022-09-21T13:58:05Z</time>
      </trkpt>
      <trkpt lat="43.23822" lon="5.61018">
        <ele>388.3</ele>
        <time>2022-09-21T13:58:19Z</time>
      </trkpt>
      <trkpt lat="43.23825" lon="5.61011">
        <ele>388.3</ele>
        <time>2022-09-21T13:58:29Z</time>
      </trkpt>
      <trkpt lat="43.23826" lon="5.61003">
        <ele>388.1</ele>
        <time>2022-09-21T13:58:39Z</time>
      </trkpt>
      <trkpt lat="43.23827" lon="5.60995">
        <ele>387.5</ele>
        <time>2022-09-21T13:58:47Z</time>
      </trkpt>
      <trkpt lat="43.23828" lon="5.60988">
        <ele>386.8</ele>
        <time>2022-09-21T13:58:53Z</time>
      </trkpt>
      <trkpt lat="43.23829" lon="5.60981">
        <ele>386.1</ele>
        <time>2022-09-21T13:58:59Z</time>
      </trkpt>
      <trkpt lat="43.2383" lon="5.60974">
        <ele>385.5</ele>
        <time>2022-09-21T13:59:05Z</time>
      </trkpt>
      <trkpt lat="43.23831" lon="5.60967">
        <ele>384.6</ele>
        <time>2022-09-21T13:59:13Z</time>
      </trkpt>
      <trkpt lat="43.23834" lon="5.60961">
        <ele>384.2</ele>
        <time>2022-09-21T13:59:19Z</time>
      </trkpt>
      <trkpt lat="43.23836" lon="5.60955">
        <ele>383.7</ele>
        <time>2022-09-21T13:59:25Z</time>
      </trkpt>
      <trkpt lat="43.23839" lon="5.60947">
        <ele>383</ele>
        <time>2022-09-21T13:59:31Z</time>
      </trkpt>
      <trkpt lat="43.23841" lon="5.60942">
        <ele>382.7</ele>
        <time>2022-09-21T13:59:37Z</time>
      </trkpt>
      <trkpt lat="43.23843" lon="5.60934">
        <ele>381.9</ele>
        <time>2022-09-21T13:59:45Z</time>
      </trkpt>
      <trkpt lat="43.23845" lon="5.60928">
        <ele>381.4</ele>
        <time>2022-09-21T13:59:51Z</time>
      </trkpt>
      <trkpt lat="43.23846" lon="5.6092">
        <ele>380.1</ele>
        <time>2022-09-21T13:59:57Z</time>
      </trkpt>
      <trkpt lat="43.23848" lon="5.60913">
        <ele>380.7</ele>
        <time>2022-09-21T14:00:03Z</time>
      </trkpt>
      <trkpt lat="43.23845" lon="5.60907">
        <ele>380.2</ele>
        <time>2022-09-21T14:00:11Z</time>
      </trkpt>
      <trkpt lat="43.2384" lon="5.60907">
        <ele>378.8</ele>
        <time>2022-09-21T14:00:19Z</time>
      </trkpt>
      <trkpt lat="43.23835" lon="5.60907">
        <ele>377.6</ele>
        <time>2022-09-21T14:00:33Z</time>
      </trkpt>
      <trkpt lat="43.23831" lon="5.60909">
        <ele>376.1</ele>
        <time>2022-09-21T14:00:39Z</time>
      </trkpt>
      <trkpt lat="43.23826" lon="5.60912">
        <ele>374.7</ele>
        <time>2022-09-21T14:00:45Z</time>
      </trkpt>
      <trkpt lat="43.23822" lon="5.60914">
        <ele>373.4</ele>
        <time>2022-09-21T14:00:51Z</time>
      </trkpt>
      <trkpt lat="43.23816" lon="5.60916">
        <ele>372.1</ele>
        <time>2022-09-21T14:00:59Z</time>
      </trkpt>
      <trkpt lat="43.23811" lon="5.60916">
        <ele>371.2</ele>
        <time>2022-09-21T14:01:07Z</time>
      </trkpt>
      <trkpt lat="43.23806" lon="5.60916">
        <ele>370.1</ele>
        <time>2022-09-21T14:01:17Z</time>
      </trkpt>
      <trkpt lat="43.23801" lon="5.60919">
        <ele>369.3</ele>
        <time>2022-09-21T14:01:27Z</time>
      </trkpt>
      <trkpt lat="43.23797" lon="5.60921">
        <ele>368.5</ele>
        <time>2022-09-21T14:01:35Z</time>
      </trkpt>
      <trkpt lat="43.23792" lon="5.60922">
        <ele>367.6</ele>
        <time>2022-09-21T14:01:45Z</time>
      </trkpt>
      <trkpt lat="43.23787" lon="5.60923">
        <ele>366.7</ele>
        <time>2022-09-21T14:01:55Z</time>
      </trkpt>
      <trkpt lat="43.23782" lon="5.60926">
        <ele>365.7</ele>
        <time>2022-09-21T14:02:05Z</time>
      </trkpt>
      <trkpt lat="43.23777" lon="5.60923">
        <ele>364.2</ele>
        <time>2022-09-21T14:02:13Z</time>
      </trkpt>
      <trkpt lat="43.23771" lon="5.60921">
        <ele>362.8</ele>
        <time>2022-09-21T14:02:19Z</time>
      </trkpt>
      <trkpt lat="43.23766" lon="5.60922">
        <ele>361.8</ele>
        <time>2022-09-21T14:02:27Z</time>
      </trkpt>
      <trkpt lat="43.23762" lon="5.60922">
        <ele>360.6</ele>
        <time>2022-09-21T14:02:35Z</time>
      </trkpt>
      <trkpt lat="43.23757" lon="5.60921">
        <ele>359.3</ele>
        <time>2022-09-21T14:02:43Z</time>
      </trkpt>
      <trkpt lat="43.23752" lon="5.60919">
        <ele>357.8</ele>
        <time>2022-09-21T14:02:53Z</time>
      </trkpt>
      <trkpt lat="43.23747" lon="5.60915">
        <ele>356.7</ele>
        <time>2022-09-21T14:03:01Z</time>
      </trkpt>
      <trkpt lat="43.23741" lon="5.60913">
        <ele>355.7</ele>
        <time>2022-09-21T14:03:09Z</time>
      </trkpt>
      <trkpt lat="43.23736" lon="5.60909">
        <ele>355</ele>
        <time>2022-09-21T14:03:17Z</time>
      </trkpt>
      <trkpt lat="43.23731" lon="5.60907">
        <ele>353.9</ele>
        <time>2022-09-21T14:03:25Z</time>
      </trkpt>
      <trkpt lat="43.23726" lon="5.60908">
        <ele>352.5</ele>
        <time>2022-09-21T14:03:31Z</time>
      </trkpt>
      <trkpt lat="43.23722" lon="5.60907">
        <ele>351.3</ele>
        <time>2022-09-21T14:03:37Z</time>
      </trkpt>
      <trkpt lat="43.23717" lon="5.60905">
        <ele>350.8</ele>
        <time>2022-09-21T14:03:43Z</time>
      </trkpt>
      <trkpt lat="43.23711" lon="5.60903">
        <ele>350.3</ele>
        <time>2022-09-21T14:03:51Z</time>
      </trkpt>
      <trkpt lat="43.23707" lon="5.60904">
        <ele>349.8</ele>
        <time>2022-09-21T14:03:55Z</time>
      </trkpt>
      <trkpt lat="43.23702" lon="5.60904">
        <ele>349.2</ele>
        <time>2022-09-21T14:04:01Z</time>
      </trkpt>
      <trkpt lat="43.23697" lon="5.60905">
        <ele>348.5</ele>
        <time>2022-09-21T14:04:09Z</time>
      </trkpt>
      <trkpt lat="43.23692" lon="5.60908">
        <ele>347.5</ele>
        <time>2022-09-21T14:04:15Z</time>
      </trkpt>
      <trkpt lat="43.23687" lon="5.60909">
        <ele>346.6</ele>
        <time>2022-09-21T14:04:21Z</time>
      </trkpt>
      <trkpt lat="43.23681" lon="5.6091">
        <ele>345.5</ele>
        <time>2022-09-21T14:04:27Z</time>
      </trkpt>
      <trkpt lat="43.23675" lon="5.60908">
        <ele>345.2</ele>
        <time>2022-09-21T14:04:33Z</time>
      </trkpt>
      <trkpt lat="43.2367" lon="5.60909">
        <ele>344.1</ele>
        <time>2022-09-21T14:04:43Z</time>
      </trkpt>
      <trkpt lat="43.23664" lon="5.60911">
        <ele>343</ele>
        <time>2022-09-21T14:04:51Z</time>
      </trkpt>
      <trkpt lat="43.23658" lon="5.60913">
        <ele>341.6</ele>
        <time>2022-09-21T14:04:59Z</time>
      </trkpt>
      <trkpt lat="43.23653" lon="5.60913">
        <ele>340.8</ele>
        <time>2022-09-21T14:05:05Z</time>
      </trkpt>
      <trkpt lat="43.23647" lon="5.60912">
        <ele>340.3</ele>
        <time>2022-09-21T14:05:11Z</time>
      </trkpt>
      <trkpt lat="43.23642" lon="5.60909">
        <ele>340.1</ele>
        <time>2022-09-21T14:05:19Z</time>
      </trkpt>
      <trkpt lat="43.23637" lon="5.60908">
        <ele>339.4</ele>
        <time>2022-09-21T14:05:27Z</time>
      </trkpt>
      <trkpt lat="43.23631" lon="5.60909">
        <ele>338.1</ele>
        <time>2022-09-21T14:05:35Z</time>
      </trkpt>
      <trkpt lat="43.23626" lon="5.60911">
        <ele>336.3</ele>
        <time>2022-09-21T14:05:41Z</time>
      </trkpt>
      <trkpt lat="43.23621" lon="5.60914">
        <ele>334.5</ele>
        <time>2022-09-21T14:05:47Z</time>
      </trkpt>
      <trkpt lat="43.23615" lon="5.60914">
        <ele>333.3</ele>
        <time>2022-09-21T14:06:01Z</time>
      </trkpt>
      <trkpt lat="43.2361" lon="5.60917">
        <ele>331.9</ele>
        <time>2022-09-21T14:06:07Z</time>
      </trkpt>
      <trkpt lat="43.23606" lon="5.60914">
        <ele>331.6</ele>
        <time>2022-09-21T14:06:17Z</time>
      </trkpt>
      <trkpt lat="43.23599" lon="5.60914">
        <ele>330.2</ele>
        <time>2022-09-21T14:06:23Z</time>
      </trkpt>
      <trkpt lat="43.23594" lon="5.60913">
        <ele>329.5</ele>
        <time>2022-09-21T14:06:27Z</time>
      </trkpt>
      <trkpt lat="43.2359" lon="5.60912">
        <ele>328.7</ele>
        <time>2022-09-21T14:06:31Z</time>
      </trkpt>
      <trkpt lat="43.23585" lon="5.6091">
        <ele>328.1</ele>
        <time>2022-09-21T14:06:37Z</time>
      </trkpt>
      <trkpt lat="43.2358" lon="5.60906">
        <ele>327.8</ele>
        <time>2022-09-21T14:06:47Z</time>
      </trkpt>
      <trkpt lat="43.23574" lon="5.60904">
        <ele>327</ele>
        <time>2022-09-21T14:06:55Z</time>
      </trkpt>
      <trkpt lat="43.2357" lon="5.609">
        <ele>326.3</ele>
        <time>2022-09-21T14:07:05Z</time>
      </trkpt>
      <trkpt lat="43.23565" lon="5.60897">
        <ele>325.2</ele>
        <time>2022-09-21T14:07:13Z</time>
      </trkpt>
      <trkpt lat="43.2356" lon="5.60893">
        <ele>323.6</ele>
        <time>2022-09-21T14:07:19Z</time>
      </trkpt>
      <trkpt lat="43.23553" lon="5.60892">
        <ele>322.5</ele>
        <time>2022-09-21T14:07:25Z</time>
      </trkpt>
      <trkpt lat="43.23548" lon="5.60889">
        <ele>322</ele>
        <time>2022-09-21T14:07:31Z</time>
      </trkpt>
      <trkpt lat="43.23544" lon="5.60884">
        <ele>321.9</ele>
        <time>2022-09-21T14:07:37Z</time>
      </trkpt>
      <trkpt lat="43.23541" lon="5.60879">
        <ele>321.3</ele>
        <time>2022-09-21T14:07:43Z</time>
      </trkpt>
      <trkpt lat="43.23539" lon="5.60872">
        <ele>320.4</ele>
        <time>2022-09-21T14:07:53Z</time>
      </trkpt>
      <trkpt lat="43.23535" lon="5.60865">
        <ele>318.9</ele>
        <time>2022-09-21T14:08:01Z</time>
      </trkpt>
      <trkpt lat="43.23533" lon="5.6086">
        <ele>317.6</ele>
        <time>2022-09-21T14:08:07Z</time>
      </trkpt>
      <trkpt lat="43.2353" lon="5.60854">
        <ele>317.4</ele>
        <time>2022-09-21T14:08:15Z</time>
      </trkpt>
      <trkpt lat="43.23529" lon="5.60846">
        <ele>317.4</ele>
        <time>2022-09-21T14:08:23Z</time>
      </trkpt>
      <trkpt lat="43.23527" lon="5.60838">
        <ele>317.6</ele>
        <time>2022-09-21T14:08:29Z</time>
      </trkpt>
      <trkpt lat="43.23524" lon="5.60831">
        <ele>317.3</ele>
        <time>2022-09-21T14:08:37Z</time>
      </trkpt>
      <trkpt lat="43.2352" lon="5.60828">
        <ele>316.4</ele>
        <time>2022-09-21T14:08:49Z</time>
      </trkpt>
      <trkpt lat="43.23514" lon="5.60823">
        <ele>315</ele>
        <time>2022-09-21T14:08:55Z</time>
      </trkpt>
      <trkpt lat="43.2351" lon="5.60819">
        <ele>313.8</ele>
        <time>2022-09-21T14:09:01Z</time>
      </trkpt>
      <trkpt lat="43.23505" lon="5.60814">
        <ele>312.3</ele>
        <time>2022-09-21T14:09:07Z</time>
      </trkpt>
      <trkpt lat="43.23501" lon="5.6081">
        <ele>310.7</ele>
        <time>2022-09-21T14:09:13Z</time>
      </trkpt>
      <trkpt lat="43.23497" lon="5.60805">
        <ele>309.5</ele>
        <time>2022-09-21T14:09:19Z</time>
      </trkpt>
      <trkpt lat="43.23492" lon="5.60803">
        <ele>308.8</ele>
        <time>2022-09-21T14:09:25Z</time>
      </trkpt>
      <trkpt lat="43.23487" lon="5.60799">
        <ele>308.2</ele>
        <time>2022-09-21T14:09:31Z</time>
      </trkpt>
      <trkpt lat="43.23482" lon="5.60796">
        <ele>307.3</ele>
        <time>2022-09-21T14:09:37Z</time>
      </trkpt>
      <trkpt lat="43.23477" lon="5.60794">
        <ele>306</ele>
        <time>2022-09-21T14:09:43Z</time>
      </trkpt>
      <trkpt lat="43.23472" lon="5.60791">
        <ele>305</ele>
        <time>2022-09-21T14:09:51Z</time>
      </trkpt>
      <trkpt lat="43.23466" lon="5.60788">
        <ele>304.6</ele>
        <time>2022-09-21T14:09:57Z</time>
      </trkpt>
      <trkpt lat="43.2346" lon="5.60786">
        <ele>303.9</ele>
        <time>2022-09-21T14:10:07Z</time>
      </trkpt>
      <trkpt lat="43.23456" lon="5.60784">
        <ele>303.1</ele>
        <time>2022-09-21T14:10:11Z</time>
      </trkpt>
      <trkpt lat="43.23451" lon="5.60784">
        <ele>302.3</ele>
        <time>2022-09-21T14:10:15Z</time>
      </trkpt>
      <trkpt lat="43.23445" lon="5.60785">
        <ele>301.8</ele>
        <time>2022-09-21T14:10:21Z</time>
      </trkpt>
      <trkpt lat="43.23439" lon="5.60787">
        <ele>301.6</ele>
        <time>2022-09-21T14:10:29Z</time>
      </trkpt>
      <trkpt lat="43.23434" lon="5.60787">
        <ele>301.1</ele>
        <time>2022-09-21T14:10:39Z</time>
      </trkpt>
      <trkpt lat="43.23428" lon="5.60789">
        <ele>300.8</ele>
        <time>2022-09-21T14:10:43Z</time>
      </trkpt>
      <trkpt lat="43.23423" lon="5.60792">
        <ele>300.2</ele>
        <time>2022-09-21T14:10:49Z</time>
      </trkpt>
      <trkpt lat="43.23418" lon="5.60792">
        <ele>299.6</ele>
        <time>2022-09-21T14:10:55Z</time>
      </trkpt>
      <trkpt lat="43.23411" lon="5.60792">
        <ele>299</ele>
        <time>2022-09-21T14:11:03Z</time>
      </trkpt>
      <trkpt lat="43.23405" lon="5.6079">
        <ele>298.4</ele>
        <time>2022-09-21T14:11:13Z</time>
      </trkpt>
      <trkpt lat="43.234" lon="5.6079">
        <ele>298</ele>
        <time>2022-09-21T14:11:17Z</time>
      </trkpt>
      <trkpt lat="43.23395" lon="5.60788">
        <ele>297.3</ele>
        <time>2022-09-21T14:11:23Z</time>
      </trkpt>
      <trkpt lat="43.23389" lon="5.60787">
        <ele>296.7</ele>
        <time>2022-09-21T14:11:29Z</time>
      </trkpt>
      <trkpt lat="43.23382" lon="5.60787">
        <ele>296.1</ele>
        <time>2022-09-21T14:11:35Z</time>
      </trkpt>
      <trkpt lat="43.23377" lon="5.60788">
        <ele>295.9</ele>
        <time>2022-09-21T14:11:39Z</time>
      </trkpt>
      <trkpt lat="43.23372" lon="5.60789">
        <ele>295.5</ele>
        <time>2022-09-21T14:11:43Z</time>
      </trkpt>
      <trkpt lat="43.23366" lon="5.60787">
        <ele>294.8</ele>
        <time>2022-09-21T14:11:51Z</time>
      </trkpt>
      <trkpt lat="43.2336" lon="5.60785">
        <ele>293.8</ele>
        <time>2022-09-21T14:11:57Z</time>
      </trkpt>
      <trkpt lat="43.23355" lon="5.60783">
        <ele>292.8</ele>
        <time>2022-09-21T14:12:03Z</time>
      </trkpt>
      <trkpt lat="43.23348" lon="5.60782">
        <ele>292.2</ele>
        <time>2022-09-21T14:12:09Z</time>
      </trkpt>
      <trkpt lat="43.23342" lon="5.6078">
        <ele>291.4</ele>
        <time>2022-09-21T14:12:17Z</time>
      </trkpt>
      <trkpt lat="43.23337" lon="5.6078">
        <ele>290.9</ele>
        <time>2022-09-21T14:12:23Z</time>
      </trkpt>
      <trkpt lat="43.23331" lon="5.60779">
        <ele>290.1</ele>
        <time>2022-09-21T14:12:27Z</time>
      </trkpt>
      <trkpt lat="43.23326" lon="5.60777">
        <ele>289.3</ele>
        <time>2022-09-21T14:12:41Z</time>
      </trkpt>
      <trkpt lat="43.23322" lon="5.60774">
        <ele>289.7</ele>
        <time>2022-09-21T14:12:47Z</time>
      </trkpt>
      <trkpt lat="43.23316" lon="5.60773">
        <ele>289.6</ele>
        <time>2022-09-21T14:12:53Z</time>
      </trkpt>
      <trkpt lat="43.2331" lon="5.60772">
        <ele>289.2</ele>
        <time>2022-09-21T14:12:59Z</time>
      </trkpt>
      <trkpt lat="43.23305" lon="5.60772">
        <ele>288.8</ele>
        <time>2022-09-21T14:13:03Z</time>
      </trkpt>
      <trkpt lat="43.233" lon="5.60772">
        <ele>288.4</ele>
        <time>2022-09-21T14:13:09Z</time>
      </trkpt>
      <trkpt lat="43.23293" lon="5.60772">
        <ele>287.8</ele>
        <time>2022-09-21T14:13:15Z</time>
      </trkpt>
      <trkpt lat="43.23288" lon="5.60772">
        <ele>287.2</ele>
        <time>2022-09-21T14:13:21Z</time>
      </trkpt>
      <trkpt lat="43.23284" lon="5.60773">
        <ele>286.6</ele>
        <time>2022-09-21T14:13:27Z</time>
      </trkpt>
      <trkpt lat="43.23279" lon="5.60773">
        <ele>286.1</ele>
        <time>2022-09-21T14:13:31Z</time>
      </trkpt>
      <trkpt lat="43.23275" lon="5.60772">
        <ele>285.8</ele>
        <time>2022-09-21T14:13:39Z</time>
      </trkpt>
      <trkpt lat="43.23269" lon="5.60769">
        <ele>286.1</ele>
        <time>2022-09-21T14:13:47Z</time>
      </trkpt>
      <trkpt lat="43.23264" lon="5.60768">
        <ele>285.9</ele>
        <time>2022-09-21T14:13:51Z</time>
      </trkpt>
      <trkpt lat="43.2326" lon="5.60768">
        <ele>285.7</ele>
        <time>2022-09-21T14:13:55Z</time>
      </trkpt>
      <trkpt lat="43.23254" lon="5.60766">
        <ele>285.6</ele>
        <time>2022-09-21T14:14:01Z</time>
      </trkpt>
      <trkpt lat="43.23249" lon="5.60766">
        <ele>285.2</ele>
        <time>2022-09-21T14:14:07Z</time>
      </trkpt>
      <trkpt lat="43.23243" lon="5.60768">
        <ele>284.3</ele>
        <time>2022-09-21T14:14:13Z</time>
      </trkpt>
      <trkpt lat="43.23236" lon="5.60767">
        <ele>284.1</ele>
        <time>2022-09-21T14:14:19Z</time>
      </trkpt>
      <trkpt lat="43.23231" lon="5.60766">
        <ele>284.1</ele>
        <time>2022-09-21T14:14:25Z</time>
      </trkpt>
      <trkpt lat="43.23226" lon="5.60764">
        <ele>284.2</ele>
        <time>2022-09-21T14:14:29Z</time>
      </trkpt>
      <trkpt lat="43.23221" lon="5.60763">
        <ele>284.2</ele>
        <time>2022-09-21T14:14:33Z</time>
      </trkpt>
      <trkpt lat="43.23216" lon="5.60764">
        <ele>283.9</ele>
        <time>2022-09-21T14:14:43Z</time>
      </trkpt>
      <trkpt lat="43.23211" lon="5.60767">
        <ele>282.7</ele>
        <time>2022-09-21T14:14:49Z</time>
      </trkpt>
      <trkpt lat="43.23206" lon="5.60768">
        <ele>282.2</ele>
        <time>2022-09-21T14:14:57Z</time>
      </trkpt>
      <trkpt lat="43.23202" lon="5.60771">
        <ele>281.2</ele>
        <time>2022-09-21T14:15:11Z</time>
      </trkpt>
      <trkpt lat="43.23196" lon="5.60771">
        <ele>280.9</ele>
        <time>2022-09-21T14:15:17Z</time>
      </trkpt>
      <trkpt lat="43.23191" lon="5.60771">
        <ele>281</ele>
        <time>2022-09-21T14:15:25Z</time>
      </trkpt>
      <trkpt lat="43.23185" lon="5.60772">
        <ele>280.7</ele>
        <time>2022-09-21T14:15:35Z</time>
      </trkpt>
      <trkpt lat="43.2318" lon="5.60775">
        <ele>279.9</ele>
        <time>2022-09-21T14:15:39Z</time>
      </trkpt>
      <trkpt lat="43.23174" lon="5.60777">
        <ele>279.2</ele>
        <time>2022-09-21T14:15:43Z</time>
      </trkpt>
      <trkpt lat="43.2317" lon="5.60779">
        <ele>278.9</ele>
        <time>2022-09-21T14:15:47Z</time>
      </trkpt>
      <trkpt lat="43.23165" lon="5.6078">
        <ele>279.4</ele>
        <time>2022-09-21T14:15:51Z</time>
      </trkpt>
      <trkpt lat="43.2316" lon="5.60784">
        <ele>280.2</ele>
        <time>2022-09-21T14:15:55Z</time>
      </trkpt>
      <trkpt lat="43.23154" lon="5.60788">
        <ele>280.5</ele>
        <time>2022-09-21T14:16:01Z</time>
      </trkpt>
      <trkpt lat="43.23149" lon="5.60792">
        <ele>280.2</ele>
        <time>2022-09-21T14:16:07Z</time>
      </trkpt>
      <trkpt lat="43.23144" lon="5.60796">
        <ele>279.5</ele>
        <time>2022-09-21T14:16:13Z</time>
      </trkpt>
      <trkpt lat="43.23139" lon="5.60801">
        <ele>277.9</ele>
        <time>2022-09-21T14:16:23Z</time>
      </trkpt>
      <trkpt lat="43.23138" lon="5.60808">
        <ele>276.3</ele>
        <time>2022-09-21T14:16:33Z</time>
      </trkpt>
      <trkpt lat="43.23139" lon="5.60815">
        <ele>277</ele>
        <time>2022-09-21T14:18:39Z</time>
      </trkpt>
      <trkpt lat="43.23136" lon="5.6082">
        <ele>277.5</ele>
        <time>2022-09-21T14:19:41Z</time>
      </trkpt>
      <trkpt lat="43.23131" lon="5.60824">
        <ele>277.4</ele>
        <time>2022-09-21T14:20:07Z</time>
      </trkpt>
      <trkpt lat="43.23124" lon="5.60825">
        <ele>276.8</ele>
        <time>2022-09-21T14:20:13Z</time>
      </trkpt>
      <trkpt lat="43.23119" lon="5.60826">
        <ele>276.4</ele>
        <time>2022-09-21T14:20:17Z</time>
      </trkpt>
      <trkpt lat="43.23113" lon="5.60826">
        <ele>275.9</ele>
        <time>2022-09-21T10:34:25Z</time>
      </trkpt>
      <trkpt lat="43.23108" lon="5.60825">
        <ele>275.4</ele>
        <time>2022-09-21T14:20:27Z</time>
      </trkpt>
      <trkpt lat="43.23103" lon="5.60826">
        <ele>274.7</ele>
        <time>2022-09-21T14:20:31Z</time>
      </trkpt>
      <trkpt lat="43.23097" lon="5.60827">
        <ele>273.6</ele>
        <time>2022-09-21T14:20:37Z</time>
      </trkpt>
      <trkpt lat="43.23091" lon="5.60829">
        <ele>272.3</ele>
        <time>2022-09-21T14:20:43Z</time>
      </trkpt>
      <trkpt lat="43.23086" lon="5.60832">
        <ele>270.7</ele>
        <time>2022-09-21T14:20:49Z</time>
      </trkpt>
      <trkpt lat="43.23081" lon="5.60832">
        <ele>270.1</ele>
        <time>2022-09-21T14:20:55Z</time>
      </trkpt>
      <trkpt lat="43.23075" lon="5.60833">
        <ele>269.5</ele>
        <time>2022-09-21T14:21:01Z</time>
      </trkpt>
      <trkpt lat="43.23069" lon="5.60834">
        <ele>269.2</ele>
        <time>2022-09-21T14:21:07Z</time>
      </trkpt>
      <trkpt lat="43.23064" lon="5.60831">
        <ele>269.2</ele>
        <time>2022-09-21T14:21:13Z</time>
      </trkpt>
      <trkpt lat="43.23059" lon="5.60829">
        <ele>269.4</ele>
        <time>2022-09-21T14:21:23Z</time>
      </trkpt>
      <trkpt lat="43.23053" lon="5.60828">
        <ele>269.1</ele>
        <time>2022-09-21T14:21:29Z</time>
      </trkpt>
      <trkpt lat="43.23047" lon="5.60829">
        <ele>268.8</ele>
        <time>2022-09-21T14:21:35Z</time>
      </trkpt>
      <trkpt lat="43.23043" lon="5.60827">
        <ele>268.9</ele>
        <time>2022-09-21T14:21:39Z</time>
      </trkpt>
      <trkpt lat="43.23037" lon="5.60825">
        <ele>268.9</ele>
        <time>2022-09-21T14:21:43Z</time>
      </trkpt>
      <trkpt lat="43.23032" lon="5.60825">
        <ele>268.6</ele>
        <time>2022-09-21T14:21:47Z</time>
      </trkpt>
      <trkpt lat="43.23028" lon="5.60824">
        <ele>268.4</ele>
        <time>2022-09-21T14:21:51Z</time>
      </trkpt>
      <trkpt lat="43.23022" lon="5.60823">
        <ele>268.1</ele>
        <time>2022-09-21T14:21:57Z</time>
      </trkpt>
      <trkpt lat="43.23016" lon="5.60823">
        <ele>267.9</ele>
        <time>2022-09-21T14:22:05Z</time>
      </trkpt>
      <trkpt lat="43.2301" lon="5.60822">
        <ele>267.6</ele>
        <time>2022-09-21T14:22:11Z</time>
      </trkpt>
      <trkpt lat="43.23004" lon="5.60821">
        <ele>267.5</ele>
        <time>2022-09-21T14:22:17Z</time>
      </trkpt>
      <trkpt lat="43.22999" lon="5.60822">
        <ele>267</ele>
        <time>2022-09-21T14:22:23Z</time>
      </trkpt>
      <trkpt lat="43.22994" lon="5.60823">
        <ele>266.4</ele>
        <time>2022-09-21T14:22:27Z</time>
      </trkpt>
      <trkpt lat="43.2299" lon="5.60827">
        <ele>265.6</ele>
        <time>2022-09-21T14:22:31Z</time>
      </trkpt>
      <trkpt lat="43.22984" lon="5.60828">
        <ele>265</ele>
        <time>2022-09-21T14:22:37Z</time>
      </trkpt>
      <trkpt lat="43.22979" lon="5.60828">
        <ele>264.5</ele>
        <time>2022-09-21T14:22:43Z</time>
      </trkpt>
      <trkpt lat="43.22974" lon="5.60829">
        <ele>264.1</ele>
        <time>2022-09-21T14:22:49Z</time>
      </trkpt>
      <trkpt lat="43.22969" lon="5.60828">
        <ele>264.1</ele>
        <time>2022-09-21T14:22:59Z</time>
      </trkpt>
      <trkpt lat="43.22964" lon="5.60827">
        <ele>264.3</ele>
        <time>2022-09-21T14:23:09Z</time>
      </trkpt>
      <trkpt lat="43.22958" lon="5.60828">
        <ele>264.1</ele>
        <time>2022-09-21T14:23:13Z</time>
      </trkpt>
      <trkpt lat="43.22951" lon="5.60829">
        <ele>263.8</ele>
        <time>2022-09-21T14:23:17Z</time>
      </trkpt>
      <trkpt lat="43.22947" lon="5.60831">
        <ele>263.1</ele>
        <time>2022-09-21T14:23:21Z</time>
      </trkpt>
      <trkpt lat="43.22943" lon="5.60833">
        <ele>262.2</ele>
        <time>2022-09-21T14:23:27Z</time>
      </trkpt>
      <trkpt lat="43.22938" lon="5.60837">
        <ele>262.5</ele>
        <time>2022-09-21T14:23:31Z</time>
      </trkpt>
      <trkpt lat="43.22933" lon="5.60841">
        <ele>262.6</ele>
        <time>2022-09-21T14:23:35Z</time>
      </trkpt>
      <trkpt lat="43.22928" lon="5.60844">
        <ele>262.4</ele>
        <time>2022-09-21T14:23:39Z</time>
      </trkpt>
      <trkpt lat="43.22924" lon="5.60847">
        <ele>261.9</ele>
        <time>2022-09-21T14:23:43Z</time>
      </trkpt>
      <trkpt lat="43.22919" lon="5.6085">
        <ele>261.2</ele>
        <time>2022-09-21T14:23:49Z</time>
      </trkpt>
      <trkpt lat="43.22913" lon="5.60853">
        <ele>260.4</ele>
        <time>2022-09-21T14:23:55Z</time>
      </trkpt>
      <trkpt lat="43.22909" lon="5.60856">
        <ele>259.6</ele>
        <time>2022-09-21T14:23:59Z</time>
      </trkpt>
      <trkpt lat="43.22904" lon="5.60859">
        <ele>258.5</ele>
        <time>2022-09-21T14:24:05Z</time>
      </trkpt>
      <trkpt lat="43.22899" lon="5.60862">
        <ele>257.9</ele>
        <time>2022-09-21T14:24:11Z</time>
      </trkpt>
      <trkpt lat="43.22894" lon="5.60862">
        <ele>257.5</ele>
        <time>2022-09-21T14:24:17Z</time>
      </trkpt>
      <trkpt lat="43.22889" lon="5.60863">
        <ele>257.2</ele>
        <time>2022-09-21T14:24:31Z</time>
      </trkpt>
      <trkpt lat="43.22884" lon="5.60864">
        <ele>257.4</ele>
        <time>2022-09-21T14:25:31Z</time>
      </trkpt>
      <trkpt lat="43.22881" lon="5.60869">
        <ele>257.8</ele>
        <time>2022-09-21T14:26:35Z</time>
      </trkpt>
      <trkpt lat="43.22873" lon="5.60867">
        <ele>257.5</ele>
        <time>2022-09-21T14:26:59Z</time>
      </trkpt>
      <trkpt lat="43.22867" lon="5.60865">
        <ele>257.2</ele>
        <time>2022-09-21T14:27:03Z</time>
      </trkpt>
      <trkpt lat="43.22861" lon="5.60865">
        <ele>257.2</ele>
        <time>2022-09-21T14:27:09Z</time>
      </trkpt>
      <trkpt lat="43.22856" lon="5.60867">
        <ele>257.7</ele>
        <time>2022-09-21T14:27:13Z</time>
      </trkpt>
      <trkpt lat="43.22851" lon="5.60869">
        <ele>258.2</ele>
        <time>2022-09-21T14:27:19Z</time>
      </trkpt>
      <trkpt lat="43.22845" lon="5.60872">
        <ele>258.3</ele>
        <time>2022-09-21T14:27:25Z</time>
      </trkpt>
      <trkpt lat="43.2284" lon="5.60875">
        <ele>257.9</ele>
        <time>2022-09-21T14:27:31Z</time>
      </trkpt>
      <trkpt lat="43.22834" lon="5.60877">
        <ele>257.5</ele>
        <time>2022-09-21T14:27:37Z</time>
      </trkpt>
      <trkpt lat="43.22829" lon="5.6088">
        <ele>256.9</ele>
        <time>2022-09-21T14:27:47Z</time>
      </trkpt>
      <trkpt lat="43.22826" lon="5.60885">
        <ele>255.6</ele>
        <time>2022-09-21T14:27:51Z</time>
      </trkpt>
      <trkpt lat="43.22821" lon="5.60889">
        <ele>254.9</ele>
        <time>2022-09-21T14:27:59Z</time>
      </trkpt>
      <trkpt lat="43.22817" lon="5.60892">
        <ele>255.4</ele>
        <time>2022-09-21T14:28:03Z</time>
      </trkpt>
      <trkpt lat="43.22812" lon="5.60892">
        <ele>255.7</ele>
        <time>2022-09-21T14:28:07Z</time>
      </trkpt>
      <trkpt lat="43.22808" lon="5.60893">
        <ele>255.9</ele>
        <time>2022-09-21T14:28:11Z</time>
      </trkpt>
      <trkpt lat="43.22803" lon="5.60894">
        <ele>255.8</ele>
        <time>2022-09-21T14:28:17Z</time>
      </trkpt>
      <trkpt lat="43.22798" lon="5.60892">
        <ele>255.1</ele>
        <time>2022-09-21T14:28:23Z</time>
      </trkpt>
      <trkpt lat="43.22792" lon="5.60889">
        <ele>254.1</ele>
        <time>2022-09-21T14:28:29Z</time>
      </trkpt>
      <trkpt lat="43.22787" lon="5.60891">
        <ele>253.7</ele>
        <time>2022-09-21T14:28:35Z</time>
      </trkpt>
      <trkpt lat="43.22781" lon="5.60888">
        <ele>252.8</ele>
        <time>2022-09-21T14:28:41Z</time>
      </trkpt>
      <trkpt lat="43.22777" lon="5.60887">
        <ele>252.6</ele>
        <time>2022-09-21T14:28:47Z</time>
      </trkpt>
      <trkpt lat="43.22772" lon="5.60886">
        <ele>252.7</ele>
        <time>2022-09-21T14:28:53Z</time>
      </trkpt>
      <trkpt lat="43.22766" lon="5.60884">
        <ele>253</ele>
        <time>2022-09-21T14:28:59Z</time>
      </trkpt>
      <trkpt lat="43.22761" lon="5.60883">
        <ele>253</ele>
        <time>2022-09-21T14:29:05Z</time>
      </trkpt>
      <trkpt lat="43.22756" lon="5.60883">
        <ele>252.8</ele>
        <time>2022-09-21T14:29:13Z</time>
      </trkpt>
      <trkpt lat="43.2275" lon="5.60884">
        <ele>252.3</ele>
        <time>2022-09-21T14:29:25Z</time>
      </trkpt>
      <trkpt lat="43.22743" lon="5.60886">
        <ele>251.4</ele>
        <time>2022-09-21T14:29:31Z</time>
      </trkpt>
      <trkpt lat="43.22737" lon="5.60888">
        <ele>250.7</ele>
        <time>2022-09-21T14:29:35Z</time>
      </trkpt>
      <trkpt lat="43.22732" lon="5.60889">
        <ele>250.3</ele>
        <time>2022-09-21T14:29:39Z</time>
      </trkpt>
      <trkpt lat="43.22726" lon="5.60888">
        <ele>250.3</ele>
        <time>2022-09-21T14:29:43Z</time>
      </trkpt>
      <trkpt lat="43.22721" lon="5.60887">
        <ele>250.2</ele>
        <time>2022-09-21T14:29:47Z</time>
      </trkpt>
      <trkpt lat="43.22715" lon="5.60888">
        <ele>249.4</ele>
        <time>2022-09-21T14:29:53Z</time>
      </trkpt>
      <trkpt lat="43.22709" lon="5.60893">
        <ele>249.1</ele>
        <time>2022-09-21T14:29:59Z</time>
      </trkpt>
      <trkpt lat="43.22707" lon="5.60899">
        <ele>249.8</ele>
        <time>2022-09-21T14:30:23Z</time>
      </trkpt>
      <trkpt lat="43.22708" lon="5.60906">
        <ele>250.9</ele>
        <time>2022-09-21T14:30:37Z</time>
      </trkpt>
      <trkpt lat="43.22703" lon="5.60912">
        <ele>251.6</ele>
        <time>2022-09-21T14:30:43Z</time>
      </trkpt>
      <trkpt lat="43.22703" lon="5.60918">
        <ele>252.4</ele>
        <time>2022-09-21T14:30:47Z</time>
      </trkpt>
      <trkpt lat="43.22703" lon="5.60925">
        <ele>252.8</ele>
        <time>2022-09-21T14:30:53Z</time>
      </trkpt>
      <trkpt lat="43.22703" lon="5.60932">
        <ele>253.2</ele>
        <time>2022-09-21T14:30:59Z</time>
      </trkpt>
      <trkpt lat="43.22703" lon="5.6094">
        <ele>253.7</ele>
        <time>2022-09-21T14:31:09Z</time>
      </trkpt>
      <trkpt lat="43.22702" lon="5.60946">
        <ele>254.1</ele>
        <time>2022-09-21T14:31:17Z</time>
      </trkpt>
      <trkpt lat="43.22702" lon="5.60953">
        <ele>254.4</ele>
        <time>2022-09-21T14:31:27Z</time>
      </trkpt>
      <trkpt lat="43.22705" lon="5.60959">
        <ele>254.7</ele>
        <time>2022-09-21T14:31:33Z</time>
      </trkpt>
      <trkpt lat="43.22705" lon="5.60965">
        <ele>255</ele>
        <time>2022-09-21T14:31:37Z</time>
      </trkpt>
      <trkpt lat="43.22706" lon="5.60973">
        <ele>255.4</ele>
        <time>2022-09-21T14:31:41Z</time>
      </trkpt>
      <trkpt lat="43.22706" lon="5.60979">
        <ele>255.9</ele>
        <time>2022-09-21T14:31:45Z</time>
      </trkpt>
      <trkpt lat="43.22708" lon="5.60987">
        <ele>256.3</ele>
        <time>2022-09-21T14:31:51Z</time>
      </trkpt>
      <trkpt lat="43.22708" lon="5.60994">
        <ele>256.7</ele>
        <time>2022-09-21T14:32:01Z</time>
      </trkpt>
      <trkpt lat="43.22709" lon="5.61002">
        <ele>257</ele>
        <time>2022-09-21T14:32:07Z</time>
      </trkpt>
      <trkpt lat="43.22711" lon="5.6101">
        <ele>257</ele>
        <time>2022-09-21T14:32:13Z</time>
      </trkpt>
      <trkpt lat="43.2271" lon="5.61016">
        <ele>257.1</ele>
        <time>2022-09-21T14:32:19Z</time>
      </trkpt>
      <trkpt lat="43.2271" lon="5.61024">
        <ele>257.3</ele>
        <time>2022-09-21T14:32:25Z</time>
      </trkpt>
      <trkpt lat="43.22708" lon="5.61031">
        <ele>257.6</ele>
        <time>2022-09-21T14:32:29Z</time>
      </trkpt>
      <trkpt lat="43.22706" lon="5.61037">
        <ele>258</ele>
        <time>2022-09-21T14:32:33Z</time>
      </trkpt>
      <trkpt lat="43.22705" lon="5.61043">
        <ele>258.2</ele>
        <time>2022-09-21T14:32:39Z</time>
      </trkpt>
      <trkpt lat="43.22702" lon="5.61049">
        <ele>258.3</ele>
        <time>2022-09-21T14:32:43Z</time>
      </trkpt>
      <trkpt lat="43.22702" lon="5.61057">
        <ele>258.4</ele>
        <time>2022-09-21T14:32:47Z</time>
      </trkpt>
      <trkpt lat="43.22703" lon="5.61064">
        <ele>258.8</ele>
        <time>2022-09-21T14:32:53Z</time>
      </trkpt>
      <trkpt lat="43.22703" lon="5.61072">
        <ele>259.3</ele>
        <time>2022-09-21T14:33:01Z</time>
      </trkpt>
      <trkpt lat="43.22704" lon="5.61079">
        <ele>259.7</ele>
        <time>2022-09-21T14:33:07Z</time>
      </trkpt>
      <trkpt lat="43.22703" lon="5.61085">
        <ele>260</ele>
        <time>2022-09-21T14:33:13Z</time>
      </trkpt>
      <trkpt lat="43.22702" lon="5.61092">
        <ele>260.3</ele>
        <time>2022-09-21T14:33:19Z</time>
      </trkpt>
      <trkpt lat="43.22703" lon="5.61099">
        <ele>260.9</ele>
        <time>2022-09-21T14:33:25Z</time>
      </trkpt>
      <trkpt lat="43.22706" lon="5.61107">
        <ele>261.5</ele>
        <time>2022-09-21T14:33:31Z</time>
      </trkpt>
      <trkpt lat="43.22708" lon="5.61115">
        <ele>262.3</ele>
        <time>2022-09-21T14:33:41Z</time>
      </trkpt>
      <trkpt lat="43.22712" lon="5.61122">
        <ele>262.8</ele>
        <time>2022-09-21T14:33:47Z</time>
      </trkpt>
      <trkpt lat="43.22715" lon="5.61127">
        <ele>262.7</ele>
        <time>2022-09-21T14:33:53Z</time>
      </trkpt>
      <trkpt lat="43.22717" lon="5.61134">
        <ele>262.5</ele>
        <time>2022-09-21T14:34:01Z</time>
      </trkpt>
      <trkpt lat="43.22712" lon="5.61131">
        <ele>263.2</ele>
        <time>2022-09-21T14:34:17Z</time>
      </trkpt>
      <trkpt lat="43.2271" lon="5.61125">
        <ele>263.1</ele>
        <time>2022-09-21T14:34:23Z</time>
      </trkpt>
      <trkpt lat="43.22706" lon="5.6112">
        <ele>262.9</ele>
        <time>2022-09-21T14:34:29Z</time>
      </trkpt>
      <trkpt lat="43.22703" lon="5.61114">
        <ele>262.1</ele>
        <time>2022-09-21T14:34:37Z</time>
      </trkpt>
      <trkpt lat="43.22698" lon="5.61119">
        <ele>262.8</ele>
        <time>2022-09-21T14:34:43Z</time>
      </trkpt>
      <trkpt lat="43.22692" lon="5.61115">
        <ele>262.2</ele>
        <time>2022-09-21T14:34:51Z</time>
      </trkpt>
      <trkpt lat="43.22688" lon="5.61118">
        <ele>263.5</ele>
        <time>2022-09-21T14:34:57Z</time>
      </trkpt>
      <trkpt lat="43.22683" lon="5.61119">
        <ele>264.2</ele>
        <time>2022-09-21T14:35:05Z</time>
      </trkpt>
      <trkpt lat="43.22678" lon="5.61123">
        <ele>265.3</ele>
        <time>2022-09-21T14:35:13Z</time>
      </trkpt>
      <trkpt lat="43.22674" lon="5.61127">
        <ele>266.3</ele>
        <time>2022-09-21T14:35:23Z</time>
      </trkpt>
      <trkpt lat="43.22669" lon="5.61131">
        <ele>267</ele>
        <time>2022-09-21T14:35:27Z</time>
      </trkpt>
      <trkpt lat="43.22665" lon="5.61135">
        <ele>267.7</ele>
        <time>2022-09-21T14:35:31Z</time>
      </trkpt>
      <trkpt lat="43.22662" lon="5.61141">
        <ele>268.6</ele>
        <time>2022-09-21T14:35:39Z</time>
      </trkpt>
      <trkpt lat="43.22657" lon="5.61146">
        <ele>269.3</ele>
        <time>2022-09-21T14:35:47Z</time>
      </trkpt>
      <trkpt lat="43.22654" lon="5.61152">
        <ele>270.1</ele>
        <time>2022-09-21T14:35:53Z</time>
      </trkpt>
      <trkpt lat="43.2265" lon="5.61156">
        <ele>270.5</ele>
        <time>2022-09-21T14:35:59Z</time>
      </trkpt>
      <trkpt lat="43.22646" lon="5.6116">
        <ele>270.9</ele>
        <time>2022-09-21T14:36:05Z</time>
      </trkpt>
      <trkpt lat="43.22641" lon="5.61164">
        <ele>270.9</ele>
        <time>2022-09-21T14:36:15Z</time>
      </trkpt>
      <trkpt lat="43.22637" lon="5.61168">
        <ele>271.4</ele>
        <time>2022-09-21T14:36:21Z</time>
      </trkpt>
      <trkpt lat="43.22635" lon="5.61174">
        <ele>272.4</ele>
        <time>2022-09-21T14:36:27Z</time>
      </trkpt>
      <trkpt lat="43.22632" lon="5.61179">
        <ele>273.3</ele>
        <time>2022-09-21T14:36:33Z</time>
      </trkpt>
      <trkpt lat="43.22629" lon="5.61185">
        <ele>274</ele>
        <time>2022-09-21T14:36:41Z</time>
      </trkpt>
      <trkpt lat="43.22628" lon="5.61192">
        <ele>274.6</ele>
        <time>2022-09-21T14:36:47Z</time>
      </trkpt>
      <trkpt lat="43.22629" lon="5.61199">
        <ele>275.1</ele>
        <time>2022-09-21T14:36:53Z</time>
      </trkpt>
      <trkpt lat="43.22627" lon="5.61205">
        <ele>275.8</ele>
        <time>2022-09-21T14:37:01Z</time>
      </trkpt>
      <trkpt lat="43.22626" lon="5.61211">
        <ele>276.4</ele>
        <time>2022-09-21T14:37:07Z</time>
      </trkpt>
      <trkpt lat="43.22626" lon="5.61219">
        <ele>277.1</ele>
        <time>2022-09-21T14:37:13Z</time>
      </trkpt>
      <trkpt lat="43.22624" lon="5.61226">
        <ele>277.7</ele>
        <time>2022-09-21T14:37:19Z</time>
      </trkpt>
      <trkpt lat="43.22621" lon="5.61232">
        <ele>277.9</ele>
        <time>2022-09-21T14:37:25Z</time>
      </trkpt>
      <trkpt lat="43.22619" lon="5.61239">
        <ele>278.1</ele>
        <time>2022-09-21T14:37:31Z</time>
      </trkpt>
      <trkpt lat="43.22617" lon="5.61245">
        <ele>278.1</ele>
        <time>2022-09-21T14:37:39Z</time>
      </trkpt>
      <trkpt lat="43.22614" lon="5.61252">
        <ele>278.1</ele>
        <time>2022-09-21T14:37:55Z</time>
      </trkpt>
      <trkpt lat="43.22615" lon="5.6126">
        <ele>278.2</ele>
        <time>2022-09-21T14:38:03Z</time>
      </trkpt>
      <trkpt lat="43.22616" lon="5.61267">
        <ele>278.4</ele>
        <time>2022-09-21T14:38:09Z</time>
      </trkpt>
      <trkpt lat="43.22617" lon="5.61275">
        <ele>278.6</ele>
        <time>2022-09-21T14:38:15Z</time>
      </trkpt>
      <trkpt lat="43.22619" lon="5.61282">
        <ele>279</ele>
        <time>2022-09-21T14:38:21Z</time>
      </trkpt>
      <trkpt lat="43.22621" lon="5.61289">
        <ele>279.3</ele>
        <time>2022-09-21T14:38:27Z</time>
      </trkpt>
      <trkpt lat="43.22623" lon="5.61295">
        <ele>279.6</ele>
        <time>2022-09-21T14:38:33Z</time>
      </trkpt>
      <trkpt lat="43.22626" lon="5.61301">
        <ele>280</ele>
        <time>2022-09-21T14:38:43Z</time>
      </trkpt>
      <trkpt lat="43.22629" lon="5.61307">
        <ele>280.3</ele>
        <time>2022-09-21T14:38:51Z</time>
      </trkpt>
      <trkpt lat="43.2263" lon="5.61313">
        <ele>280.4</ele>
        <time>2022-09-21T14:40:29Z</time>
      </trkpt>
      <trkpt lat="43.22627" lon="5.61319">
        <ele>280.2</ele>
        <time>2022-09-21T14:42:03Z</time>
      </trkpt>
      <trkpt lat="43.22623" lon="5.61325">
        <ele>279.9</ele>
        <time>2022-09-21T14:42:09Z</time>
      </trkpt>
      <trkpt lat="43.22618" lon="5.61328">
        <ele>279.5</ele>
        <time>2022-09-21T14:42:15Z</time>
      </trkpt>
      <trkpt lat="43.22613" lon="5.61331">
        <ele>279.1</ele>
        <time>2022-09-21T14:42:33Z</time>
      </trkpt>
      <trkpt lat="43.22612" lon="5.61338">
        <ele>278.9</ele>
        <time>2022-09-21T14:42:39Z</time>
      </trkpt>
      <trkpt lat="43.22612" lon="5.61345">
        <ele>278.6</ele>
        <time>2022-09-21T14:42:49Z</time>
      </trkpt>
      <trkpt lat="43.22612" lon="5.61352">
        <ele>278.4</ele>
        <time>2022-09-21T14:42:55Z</time>
      </trkpt>
      <trkpt lat="43.2261" lon="5.61358">
        <ele>278.1</ele>
        <time>2022-09-21T14:43:03Z</time>
      </trkpt>
      <trkpt lat="43.22609" lon="5.61365">
        <ele>277.2</ele>
        <time>2022-09-21T14:43:09Z</time>
      </trkpt>
      <trkpt lat="43.22605" lon="5.61373">
        <ele>275.8</ele>
        <time>2022-09-21T14:43:17Z</time>
      </trkpt>
      <trkpt lat="43.22601" lon="5.61376">
        <ele>275.3</ele>
        <time>2022-09-21T14:43:23Z</time>
      </trkpt>
      <trkpt lat="43.22596" lon="5.61379">
        <ele>275.1</ele>
        <time>2022-09-21T14:43:29Z</time>
      </trkpt>
      <trkpt lat="43.22591" lon="5.61381">
        <ele>275</ele>
        <time>2022-09-21T14:43:35Z</time>
      </trkpt>
      <trkpt lat="43.22587" lon="5.61384">
        <ele>274.6</ele>
        <time>2022-09-21T14:43:43Z</time>
      </trkpt>
      <trkpt lat="43.22582" lon="5.61386">
        <ele>274.6</ele>
        <time>2022-09-21T14:43:49Z</time>
      </trkpt>
      <trkpt lat="43.22577" lon="5.61388">
        <ele>274.4</ele>
        <time>2022-09-21T14:43:57Z</time>
      </trkpt>
      <trkpt lat="43.22572" lon="5.61391">
        <ele>273.6</ele>
        <time>2022-09-21T14:44:05Z</time>
      </trkpt>
      <trkpt lat="43.22566" lon="5.61394">
        <ele>272.7</ele>
        <time>2022-09-21T14:44:13Z</time>
      </trkpt>
      <trkpt lat="43.22561" lon="5.61396">
        <ele>272.1</ele>
        <time>2022-09-21T14:44:21Z</time>
      </trkpt>
      <trkpt lat="43.22556" lon="5.61401">
        <ele>270.5</ele>
        <time>2022-09-21T14:44:27Z</time>
      </trkpt>
      <trkpt lat="43.22551" lon="5.61405">
        <ele>269.7</ele>
        <time>2022-09-21T14:44:33Z</time>
      </trkpt>
      <trkpt lat="43.22545" lon="5.61407">
        <ele>269.4</ele>
        <time>2022-09-21T14:44:45Z</time>
      </trkpt>
      <trkpt lat="43.2254" lon="5.61411">
        <ele>268.3</ele>
        <time>2022-09-21T14:44:51Z</time>
      </trkpt>
      <trkpt lat="43.22536" lon="5.61412">
        <ele>268</ele>
        <time>2022-09-21T14:44:59Z</time>
      </trkpt>
      <trkpt lat="43.22533" lon="5.61416">
        <ele>266.7</ele>
        <time>2022-09-21T14:45:05Z</time>
      </trkpt>
      <trkpt lat="43.2253" lon="5.61421">
        <ele>265.3</ele>
        <time>2022-09-21T14:45:11Z</time>
      </trkpt>
      <trkpt lat="43.22524" lon="5.61422">
        <ele>265.2</ele>
        <time>2022-09-21T14:45:15Z</time>
      </trkpt>
      <trkpt lat="43.22519" lon="5.61425">
        <ele>264.6</ele>
        <time>2022-09-21T14:45:19Z</time>
      </trkpt>
      <trkpt lat="43.22514" lon="5.61428">
        <ele>264.1</ele>
        <time>2022-09-21T14:45:29Z</time>
      </trkpt>
      <trkpt lat="43.22508" lon="5.61429">
        <ele>264.2</ele>
        <time>2022-09-21T14:45:37Z</time>
      </trkpt>
      <trkpt lat="43.22504" lon="5.61433">
        <ele>263.3</ele>
        <time>2022-09-21T14:45:41Z</time>
      </trkpt>
      <trkpt lat="43.225" lon="5.61438">
        <ele>262.1</ele>
        <time>2022-09-21T14:45:49Z</time>
      </trkpt>
      <trkpt lat="43.22495" lon="5.61441">
        <ele>261.7</ele>
        <time>2022-09-21T14:46:01Z</time>
      </trkpt>
      <trkpt lat="43.2249" lon="5.61446">
        <ele>261.1</ele>
        <time>2022-09-21T14:46:07Z</time>
      </trkpt>
      <trkpt lat="43.22488" lon="5.61452">
        <ele>259.6</ele>
        <time>2022-09-21T14:46:15Z</time>
      </trkpt>
      <trkpt lat="43.22482" lon="5.61456">
        <ele>259.5</ele>
        <time>2022-09-21T14:47:13Z</time>
      </trkpt>
      <trkpt lat="43.22479" lon="5.61461">
        <ele>258.3</ele>
        <time>2022-09-21T14:47:37Z</time>
      </trkpt>
      <trkpt lat="43.22476" lon="5.61466">
        <ele>257.7</ele>
        <time>2022-09-21T14:47:43Z</time>
      </trkpt>
      <trkpt lat="43.22471" lon="5.61468">
        <ele>258.1</ele>
        <time>2022-09-21T14:47:49Z</time>
      </trkpt>
      <trkpt lat="43.22466" lon="5.61474">
        <ele>257.1</ele>
        <time>2022-09-21T14:47:55Z</time>
      </trkpt>
      <trkpt lat="43.22462" lon="5.61478">
        <ele>256.4</ele>
        <time>2022-09-21T14:48:01Z</time>
      </trkpt>
      <trkpt lat="43.22458" lon="5.61483">
        <ele>255.7</ele>
        <time>2022-09-21T14:48:07Z</time>
      </trkpt>
      <trkpt lat="43.22454" lon="5.61486">
        <ele>255.4</ele>
        <time>2022-09-21T14:48:13Z</time>
      </trkpt>
      <trkpt lat="43.22448" lon="5.61489">
        <ele>255.6</ele>
        <time>2022-09-21T14:48:21Z</time>
      </trkpt>
      <trkpt lat="43.22444" lon="5.61494">
        <ele>255.1</ele>
        <time>2022-09-21T14:48:27Z</time>
      </trkpt>
      <trkpt lat="43.22442" lon="5.615">
        <ele>253.8</ele>
        <time>2022-09-21T14:48:33Z</time>
      </trkpt>
      <trkpt lat="43.22439" lon="5.61506">
        <ele>251.8</ele>
        <time>2022-09-21T14:48:39Z</time>
      </trkpt>
      <trkpt lat="43.22433" lon="5.61511">
        <ele>249.8</ele>
        <time>2022-09-21T14:48:47Z</time>
      </trkpt>
      <trkpt lat="43.22428" lon="5.61513">
        <ele>249</ele>
        <time>2022-09-21T14:48:53Z</time>
      </trkpt>
      <trkpt lat="43.22423" lon="5.61516">
        <ele>247.9</ele>
        <time>2022-09-21T14:49:03Z</time>
      </trkpt>
      <trkpt lat="43.22417" lon="5.61517">
        <ele>247.3</ele>
        <time>2022-09-21T14:49:09Z</time>
      </trkpt>
      <trkpt lat="43.22413" lon="5.61518">
        <ele>246.6</ele>
        <time>2022-09-21T14:49:13Z</time>
      </trkpt>
      <trkpt lat="43.22407" lon="5.61519">
        <ele>245.6</ele>
        <time>2022-09-21T14:49:19Z</time>
      </trkpt>
      <trkpt lat="43.22402" lon="5.61523">
        <ele>244.3</ele>
        <time>2022-09-21T14:49:27Z</time>
      </trkpt>
      <trkpt lat="43.22397" lon="5.61525">
        <ele>243.3</ele>
        <time>2022-09-21T14:49:33Z</time>
      </trkpt>
      <trkpt lat="43.2239" lon="5.61526">
        <ele>242.4</ele>
        <time>2022-09-21T14:49:41Z</time>
      </trkpt>
      <trkpt lat="43.22386" lon="5.61526">
        <ele>241.8</ele>
        <time>2022-09-21T14:49:45Z</time>
      </trkpt>
      <trkpt lat="43.2238" lon="5.61526">
        <ele>240.8</ele>
        <time>2022-09-21T14:49:51Z</time>
      </trkpt>
      <trkpt lat="43.22374" lon="5.61529">
        <ele>239.6</ele>
        <time>2022-09-21T14:49:55Z</time>
      </trkpt>
      <trkpt lat="43.22369" lon="5.61533">
        <ele>237.9</ele>
        <time>2022-09-21T14:50:03Z</time>
      </trkpt>
      <trkpt lat="43.22363" lon="5.61532">
        <ele>237.3</ele>
        <time>2022-09-21T14:50:09Z</time>
      </trkpt>
      <trkpt lat="43.22358" lon="5.61532">
        <ele>236.4</ele>
        <time>2022-09-21T14:50:15Z</time>
      </trkpt>
      <trkpt lat="43.22355" lon="5.61537">
        <ele>235</ele>
        <time>2022-09-21T14:51:07Z</time>
      </trkpt>
      <trkpt lat="43.22349" lon="5.61537">
        <ele>234.2</ele>
        <time>2022-09-21T14:51:13Z</time>
      </trkpt>
      <trkpt lat="43.22343" lon="5.61538">
        <ele>233.2</ele>
        <time>2022-09-21T14:51:19Z</time>
      </trkpt>
      <trkpt lat="43.22338" lon="5.61538">
        <ele>232.4</ele>
        <time>2022-09-21T14:51:23Z</time>
      </trkpt>
      <trkpt lat="43.22333" lon="5.6154">
        <ele>231.4</ele>
        <time>2022-09-21T14:51:27Z</time>
      </trkpt>
      <trkpt lat="43.22327" lon="5.61543">
        <ele>230.6</ele>
        <time>2022-09-21T14:51:33Z</time>
      </trkpt>
      <trkpt lat="43.22321" lon="5.61545">
        <ele>229.9</ele>
        <time>2022-09-21T14:51:37Z</time>
      </trkpt>
      <trkpt lat="43.22317" lon="5.61546">
        <ele>229.5</ele>
        <time>2022-09-21T14:51:41Z</time>
      </trkpt>
      <trkpt lat="43.22312" lon="5.61549">
        <ele>229.3</ele>
        <time>2022-09-21T14:51:47Z</time>
      </trkpt>
      <trkpt lat="43.22306" lon="5.6155">
        <ele>228.9</ele>
        <time>2022-09-21T14:51:53Z</time>
      </trkpt>
      <trkpt lat="43.22302" lon="5.61554">
        <ele>229.1</ele>
        <time>2022-09-21T14:52:39Z</time>
      </trkpt>
      <trkpt lat="43.22302" lon="5.61558">
        <ele>229.2</ele>
        <time>2022-09-21T14:53:07Z</time>
      </trkpt>
      <trkpt lat="43.22297" lon="5.61558">
        <ele>228.4</ele>
        <time>2022-09-21T14:53:16Z</time>
      </trkpt>
      <trkpt lat="43.22292" lon="5.6156">
        <ele>227.4</ele>
        <time>2022-09-21T14:53:22Z</time>
      </trkpt>
      <trkpt lat="43.22285" lon="5.6156">
        <ele>226.4</ele>
        <time>2022-09-21T14:53:26Z</time>
      </trkpt>
      <trkpt lat="43.22281" lon="5.61563">
        <ele>225.9</ele>
        <time>2022-09-21T14:53:36Z</time>
      </trkpt>
      <trkpt lat="43.22275" lon="5.61564">
        <ele>225.2</ele>
        <time>2022-09-21T14:53:42Z</time>
      </trkpt>
      <trkpt lat="43.22271" lon="5.61564">
        <ele>224.4</ele>
        <time>2022-09-21T14:53:48Z</time>
      </trkpt>
      <trkpt lat="43.22266" lon="5.61566">
        <ele>223.8</ele>
        <time>2022-09-21T14:53:56Z</time>
      </trkpt>
      <trkpt lat="43.22261" lon="5.61567">
        <ele>223.1</ele>
        <time>2022-09-21T14:54:02Z</time>
      </trkpt>
      <trkpt lat="43.22256" lon="5.6157">
        <ele>222.6</ele>
        <time>2022-09-21T14:54:10Z</time>
      </trkpt>
      <trkpt lat="43.22251" lon="5.61574">
        <ele>222.1</ele>
        <time>2022-09-21T14:54:16Z</time>
      </trkpt>
      <trkpt lat="43.22247" lon="5.61577">
        <ele>221.8</ele>
        <time>2022-09-21T14:54:22Z</time>
      </trkpt>
      <trkpt lat="43.22243" lon="5.61581">
        <ele>221.5</ele>
        <time>2022-09-21T14:54:38Z</time>
      </trkpt>
      <trkpt lat="43.22239" lon="5.61588">
        <ele>220.8</ele>
        <time>2022-09-21T14:54:46Z</time>
      </trkpt>
      <trkpt lat="43.22238" lon="5.61595">
        <ele>220</ele>
        <time>2022-09-21T14:54:52Z</time>
      </trkpt>
      <trkpt lat="43.22235" lon="5.61602">
        <ele>219</ele>
        <time>2022-09-21T14:55:00Z</time>
      </trkpt>
      <trkpt lat="43.22234" lon="5.61611">
        <ele>218.1</ele>
        <time>2022-09-21T14:55:06Z</time>
      </trkpt>
      <trkpt lat="43.22235" lon="5.61619">
        <ele>217.7</ele>
        <time>2022-09-21T14:55:10Z</time>
      </trkpt>
      <trkpt lat="43.22235" lon="5.61625">
        <ele>217.1</ele>
        <time>2022-09-21T14:55:14Z</time>
      </trkpt>
      <trkpt lat="43.22235" lon="5.61631">
        <ele>216.5</ele>
        <time>2022-09-21T14:55:20Z</time>
      </trkpt>
      <trkpt lat="43.22235" lon="5.61639">
        <ele>215.8</ele>
        <time>2022-09-21T14:55:26Z</time>
      </trkpt>
      <trkpt lat="43.22235" lon="5.61646">
        <ele>215.5</ele>
        <time>2022-09-21T14:55:30Z</time>
      </trkpt>
      <trkpt lat="43.22235" lon="5.61653">
        <ele>215.1</ele>
        <time>2022-09-21T14:55:34Z</time>
      </trkpt>
      <trkpt lat="43.22234" lon="5.61661">
        <ele>214.5</ele>
        <time>2022-09-21T14:55:40Z</time>
      </trkpt>
      <trkpt lat="43.22233" lon="5.61667">
        <ele>214.1</ele>
        <time>2022-09-21T14:55:44Z</time>
      </trkpt>
      <trkpt lat="43.22231" lon="5.61676">
        <ele>213.7</ele>
        <time>2022-09-21T14:55:50Z</time>
      </trkpt>
      <trkpt lat="43.22229" lon="5.61684">
        <ele>213.4</ele>
        <time>2022-09-21T14:55:56Z</time>
      </trkpt>
      <trkpt lat="43.22225" lon="5.61691">
        <ele>213.1</ele>
        <time>2022-09-21T14:56:02Z</time>
      </trkpt>
      <trkpt lat="43.22223" lon="5.61696">
        <ele>213.1</ele>
        <time>2022-09-21T14:56:06Z</time>
      </trkpt>
      <trkpt lat="43.22219" lon="5.617">
        <ele>212.7</ele>
        <time>2022-09-21T14:56:10Z</time>
      </trkpt>
      <trkpt lat="43.22215" lon="5.61707">
        <ele>212.2</ele>
        <time>2022-09-21T14:56:16Z</time>
      </trkpt>
      <trkpt lat="43.2221" lon="5.61712">
        <ele>211.6</ele>
        <time>2022-09-21T14:56:22Z</time>
      </trkpt>
      <trkpt lat="43.22207" lon="5.61717">
        <ele>211.4</ele>
        <time>2022-09-21T14:56:26Z</time>
      </trkpt>
      <trkpt lat="43.22201" lon="5.61719">
        <ele>210.7</ele>
        <time>2022-09-21T14:56:32Z</time>
      </trkpt>
      <trkpt lat="43.22196" lon="5.61723">
        <ele>210.2</ele>
        <time>2022-09-21T14:56:38Z</time>
      </trkpt>
      <trkpt lat="43.22192" lon="5.61727">
        <ele>209.7</ele>
        <time>2022-09-21T14:56:42Z</time>
      </trkpt>
      <trkpt lat="43.22188" lon="5.61731">
        <ele>209.2</ele>
        <time>2022-09-21T14:56:48Z</time>
      </trkpt>
      <trkpt lat="43.22183" lon="5.61735">
        <ele>208.6</ele>
        <time>2022-09-21T14:56:54Z</time>
      </trkpt>
      <trkpt lat="43.22178" lon="5.6174">
        <ele>208</ele>
        <time>2022-09-21T14:57:00Z</time>
      </trkpt>
      <trkpt lat="43.22172" lon="5.61742">
        <ele>207.3</ele>
        <time>2022-09-21T14:57:06Z</time>
      </trkpt>
      <trkpt lat="43.22167" lon="5.61745">
        <ele>206.8</ele>
        <time>2022-09-21T14:57:12Z</time>
      </trkpt>
      <trkpt lat="43.22162" lon="5.61749">
        <ele>206.2</ele>
        <time>2022-09-21T14:57:18Z</time>
      </trkpt>
      <trkpt lat="43.22157" lon="5.61751">
        <ele>205.7</ele>
        <time>2022-09-21T14:57:22Z</time>
      </trkpt>
      <trkpt lat="43.22152" lon="5.61755">
        <ele>205</ele>
        <time>2022-09-21T14:57:28Z</time>
      </trkpt>
      <trkpt lat="43.22147" lon="5.6176">
        <ele>204.7</ele>
        <time>2022-09-21T14:57:34Z</time>
      </trkpt>
      <trkpt lat="43.22141" lon="5.61762">
        <ele>204.1</ele>
        <time>2022-09-21T14:57:40Z</time>
      </trkpt>
      <trkpt lat="43.22136" lon="5.61764">
        <ele>203.6</ele>
        <time>2022-09-21T14:57:46Z</time>
      </trkpt>
      <trkpt lat="43.2213" lon="5.61767">
        <ele>203.2</ele>
        <time>2022-09-21T14:57:50Z</time>
      </trkpt>
      <trkpt lat="43.22124" lon="5.61769">
        <ele>202.6</ele>
        <time>2022-09-21T14:57:56Z</time>
      </trkpt>
      <trkpt lat="43.22118" lon="5.61771">
        <ele>202.1</ele>
        <time>2022-09-21T14:58:02Z</time>
      </trkpt>
      <trkpt lat="43.22113" lon="5.61775">
        <ele>202</ele>
        <time>2022-09-21T14:58:08Z</time>
      </trkpt>
      <trkpt lat="43.22108" lon="5.61779">
        <ele>201.4</ele>
        <time>2022-09-21T14:58:14Z</time>
      </trkpt>
      <trkpt lat="43.22103" lon="5.6178">
        <ele>200.7</ele>
        <time>2022-09-21T14:58:20Z</time>
      </trkpt>
      <trkpt lat="43.22098" lon="5.61776">
        <ele>200</ele>
        <time>2022-09-21T14:58:28Z</time>
      </trkpt>
      <trkpt lat="43.22093" lon="5.61772">
        <ele>199.1</ele>
        <time>2022-09-21T14:58:34Z</time>
      </trkpt>
      <trkpt lat="43.22089" lon="5.61771">
        <ele>198.4</ele>
        <time>2022-09-21T14:58:40Z</time>
      </trkpt>
      <trkpt lat="43.22083" lon="5.61769">
        <ele>197.6</ele>
        <time>2022-09-21T14:58:46Z</time>
      </trkpt>
      <trkpt lat="43.22078" lon="5.61767">
        <ele>196.8</ele>
        <time>2022-09-21T14:58:52Z</time>
      </trkpt>
      <trkpt lat="43.22073" lon="5.61766">
        <ele>196.1</ele>
        <time>2022-09-21T14:58:58Z</time>
      </trkpt>
      <trkpt lat="43.22067" lon="5.61766">
        <ele>195.3</ele>
        <time>2022-09-21T14:59:06Z</time>
      </trkpt>
      <trkpt lat="43.22062" lon="5.61769">
        <ele>194.7</ele>
        <time>2022-09-21T14:59:16Z</time>
      </trkpt>
      <trkpt lat="43.22058" lon="5.61774">
        <ele>194.2</ele>
        <time>2022-09-21T14:59:24Z</time>
      </trkpt>
      <trkpt lat="43.22055" lon="5.61781">
        <ele>193.7</ele>
        <time>2022-09-21T14:59:32Z</time>
      </trkpt>
      <trkpt lat="43.22055" lon="5.61789">
        <ele>193.1</ele>
        <time>2022-09-21T14:59:38Z</time>
      </trkpt>
      <trkpt lat="43.22057" lon="5.61796">
        <ele>192.9</ele>
        <time>2022-09-21T14:59:44Z</time>
      </trkpt>
      <trkpt lat="43.2206" lon="5.61802">
        <ele>193.2</ele>
        <time>2022-09-21T14:59:50Z</time>
      </trkpt>
      <trkpt lat="43.22063" lon="5.61808">
        <ele>193.1</ele>
        <time>2022-09-21T14:59:54Z</time>
      </trkpt>
      <trkpt lat="43.22066" lon="5.61814">
        <ele>193.1</ele>
        <time>2022-09-21T15:00:00Z</time>
      </trkpt>
      <trkpt lat="43.2207" lon="5.61819">
        <ele>193.4</ele>
        <time>2022-09-21T15:00:04Z</time>
      </trkpt>
      <trkpt lat="43.22072" lon="5.61824">
        <ele>193.5</ele>
        <time>2022-09-21T15:00:08Z</time>
      </trkpt>
      <trkpt lat="43.22075" lon="5.61829">
        <ele>193.9</ele>
        <time>2022-09-21T15:00:12Z</time>
      </trkpt>
      <trkpt lat="43.22078" lon="5.61836">
        <ele>193.9</ele>
        <time>2022-09-21T15:00:18Z</time>
      </trkpt>
      <trkpt lat="43.2208" lon="5.61841">
        <ele>193.8</ele>
        <time>2022-09-21T15:00:22Z</time>
      </trkpt>
      <trkpt lat="43.22082" lon="5.61848">
        <ele>193.3</ele>
        <time>2022-09-21T15:00:26Z</time>
      </trkpt>
      <trkpt lat="43.22086" lon="5.61854">
        <ele>193.2</ele>
        <time>2022-09-21T15:00:32Z</time>
      </trkpt>
      <trkpt lat="43.22091" lon="5.61855">
        <ele>193.1</ele>
        <time>2022-09-21T15:00:36Z</time>
      </trkpt>
      <trkpt lat="43.22095" lon="5.61857">
        <ele>193.1</ele>
        <time>2022-09-21T15:00:40Z</time>
      </trkpt>
      <trkpt lat="43.221" lon="5.61858">
        <ele>193.1</ele>
        <time>2022-09-21T15:00:44Z</time>
      </trkpt>
      <trkpt lat="43.22106" lon="5.61861">
        <ele>192.9</ele>
        <time>2022-09-21T15:00:50Z</time>
      </trkpt>
      <trkpt lat="43.22112" lon="5.61862">
        <ele>192.8</ele>
        <time>2022-09-21T15:00:56Z</time>
      </trkpt>
      <trkpt lat="43.22116" lon="5.61862">
        <ele>192.5</ele>
        <time>2022-09-21T15:01:00Z</time>
      </trkpt>
      <trkpt lat="43.22121" lon="5.61862">
        <ele>192.5</ele>
        <time>2022-09-21T15:01:04Z</time>
      </trkpt>
      <trkpt lat="43.22127" lon="5.61861">
        <ele>192.4</ele>
        <time>2022-09-21T15:01:10Z</time>
      </trkpt>
      <trkpt lat="43.22132" lon="5.61861">
        <ele>192.3</ele>
        <time>2022-09-21T15:01:16Z</time>
      </trkpt>
      <trkpt lat="43.22137" lon="5.61861">
        <ele>192.1</ele>
        <time>2022-09-21T15:01:22Z</time>
      </trkpt>
      <trkpt lat="43.22142" lon="5.61861">
        <ele>192.4</ele>
        <time>2022-09-21T15:01:28Z</time>
      </trkpt>
      <trkpt lat="43.22149" lon="5.61862">
        <ele>192.9</ele>
        <time>2022-09-21T15:01:34Z</time>
      </trkpt>
      <trkpt lat="43.22154" lon="5.61867">
        <ele>192.6</ele>
        <time>2022-09-21T15:01:40Z</time>
      </trkpt>
      <trkpt lat="43.22158" lon="5.61869">
        <ele>192.7</ele>
        <time>2022-09-21T15:01:44Z</time>
      </trkpt>
      <trkpt lat="43.22164" lon="5.6187">
        <ele>193.3</ele>
        <time>2022-09-21T15:01:50Z</time>
      </trkpt>
      <trkpt lat="43.22168" lon="5.61871">
        <ele>193.9</ele>
        <time>2022-09-21T15:02:00Z</time>
      </trkpt>
      <trkpt lat="43.22169" lon="5.61879">
        <ele>192.8</ele>
        <time>2022-09-21T15:02:08Z</time>
      </trkpt>
      <trkpt lat="43.2217" lon="5.61887">
        <ele>192</ele>
        <time>2022-09-21T15:02:14Z</time>
      </trkpt>
      <trkpt lat="43.22171" lon="5.61893">
        <ele>191.4</ele>
        <time>2022-09-21T15:02:18Z</time>
      </trkpt>
      <trkpt lat="43.22174" lon="5.61899">
        <ele>191.2</ele>
        <time>2022-09-21T15:02:24Z</time>
      </trkpt>
      <trkpt lat="43.22175" lon="5.61905">
        <ele>190.6</ele>
        <time>2022-09-21T15:02:30Z</time>
      </trkpt>
      <trkpt lat="43.22175" lon="5.61912">
        <ele>189.7</ele>
        <time>2022-09-21T15:02:38Z</time>
      </trkpt>
      <trkpt lat="43.22172" lon="5.61918">
        <ele>188.1</ele>
        <time>2022-09-21T15:02:48Z</time>
      </trkpt>
      <trkpt lat="43.2217" lon="5.61926">
        <ele>186.7</ele>
        <time>2022-09-21T15:02:56Z</time>
      </trkpt>
      <trkpt lat="43.22167" lon="5.61934">
        <ele>185.3</ele>
        <time>2022-09-21T15:03:04Z</time>
      </trkpt>
      <trkpt lat="43.22165" lon="5.6194">
        <ele>183.8</ele>
        <time>2022-09-21T15:03:10Z</time>
      </trkpt>
      <trkpt lat="43.2216" lon="5.61943">
        <ele>181.5</ele>
        <time>2022-09-21T15:03:16Z</time>
      </trkpt>
      <trkpt lat="43.22158" lon="5.61951">
        <ele>180.3</ele>
        <time>2022-09-21T15:03:24Z</time>
      </trkpt>
      <trkpt lat="43.22155" lon="5.61957">
        <ele>179</ele>
        <time>2022-09-21T15:03:30Z</time>
      </trkpt>
      <trkpt lat="43.22153" lon="5.61963">
        <ele>177.9</ele>
        <time>2022-09-21T15:03:38Z</time>
      </trkpt>
      <trkpt lat="43.22152" lon="5.61969">
        <ele>177.1</ele>
        <time>2022-09-21T15:03:44Z</time>
      </trkpt>
      <trkpt lat="43.22146" lon="5.61974">
        <ele>175</ele>
        <time>2022-09-21T15:03:52Z</time>
      </trkpt>
      <trkpt lat="43.22144" lon="5.6198">
        <ele>174.2</ele>
        <time>2022-09-21T15:03:58Z</time>
      </trkpt>
      <trkpt lat="43.22141" lon="5.61987">
        <ele>173.5</ele>
        <time>2022-09-21T15:04:04Z</time>
      </trkpt>
      <trkpt lat="43.22138" lon="5.61993">
        <ele>172.6</ele>
        <time>2022-09-21T15:04:10Z</time>
      </trkpt>
      <trkpt lat="43.22135" lon="5.61998">
        <ele>171.6</ele>
        <time>2022-09-21T15:04:16Z</time>
      </trkpt>
      <trkpt lat="43.2213" lon="5.62001">
        <ele>170.2</ele>
        <time>2022-09-21T15:04:22Z</time>
      </trkpt>
      <trkpt lat="43.22126" lon="5.62005">
        <ele>169.2</ele>
        <time>2022-09-21T15:04:28Z</time>
      </trkpt>
      <trkpt lat="43.22122" lon="5.62007">
        <ele>168.1</ele>
        <time>2022-09-21T15:04:34Z</time>
      </trkpt>
      <trkpt lat="43.22117" lon="5.6201">
        <ele>166.9</ele>
        <time>2022-09-21T15:04:42Z</time>
      </trkpt>
      <trkpt lat="43.22113" lon="5.62013">
        <ele>165.9</ele>
        <time>2022-09-21T15:04:46Z</time>
      </trkpt>
      <trkpt lat="43.2211" lon="5.62019">
        <ele>165.8</ele>
        <time>2022-09-21T15:04:50Z</time>
      </trkpt>
      <trkpt lat="43.22105" lon="5.62024">
        <ele>165.2</ele>
        <time>2022-09-21T15:04:56Z</time>
      </trkpt>
      <trkpt lat="43.221" lon="5.62029">
        <ele>164.4</ele>
        <time>2022-09-21T15:05:00Z</time>
      </trkpt>
      <trkpt lat="43.22096" lon="5.62032">
        <ele>163.6</ele>
        <time>2022-09-21T15:05:04Z</time>
      </trkpt>
      <trkpt lat="43.22091" lon="5.62036">
        <ele>162.8</ele>
        <time>2022-09-21T15:05:08Z</time>
      </trkpt>
      <trkpt lat="43.22088" lon="5.62041">
        <ele>162.5</ele>
        <time>2022-09-21T15:05:12Z</time>
      </trkpt>
      <trkpt lat="43.22083" lon="5.62047">
        <ele>162.1</ele>
        <time>2022-09-21T15:05:18Z</time>
      </trkpt>
      <trkpt lat="43.2208" lon="5.62055">
        <ele>162.3</ele>
        <time>2022-09-21T15:05:24Z</time>
      </trkpt>
      <trkpt lat="43.22079" lon="5.62063">
        <ele>162.9</ele>
        <time>2022-09-21T15:05:30Z</time>
      </trkpt>
      <trkpt lat="43.22077" lon="5.62069">
        <ele>163.5</ele>
        <time>2022-09-21T15:05:36Z</time>
      </trkpt>
      <trkpt lat="43.22079" lon="5.62077">
        <ele>164.7</ele>
        <time>2022-09-21T15:05:46Z</time>
      </trkpt>
      <trkpt lat="43.22082" lon="5.62083">
        <ele>165.8</ele>
        <time>2022-09-21T15:05:56Z</time>
      </trkpt>
      <trkpt lat="43.22077" lon="5.62084">
        <ele>165.4</ele>
        <time>2022-09-21T15:06:40Z</time>
      </trkpt>
      <trkpt lat="43.22071" lon="5.62086">
        <ele>165.2</ele>
        <time>2022-09-21T15:06:46Z</time>
      </trkpt>
      <trkpt lat="43.22065" lon="5.6209">
        <ele>165.4</ele>
        <time>2022-09-21T10:47:03Z</time>
      </trkpt>
      <trkpt lat="43.2206" lon="5.62093">
        <ele>165.5</ele>
        <time>2022-09-21T15:06:58Z</time>
      </trkpt>
      <trkpt lat="43.22055" lon="5.62094">
        <ele>165.3</ele>
        <time>2022-09-21T15:07:02Z</time>
      </trkpt>
      <trkpt lat="43.2205" lon="5.62095">
        <ele>165.4</ele>
        <time>2022-09-21T15:07:06Z</time>
      </trkpt>
      <trkpt lat="43.22044" lon="5.62096">
        <ele>165.4</ele>
        <time>2022-09-21T15:07:12Z</time>
      </trkpt>
      <trkpt lat="43.22038" lon="5.62098">
        <ele>165.5</ele>
        <time>2022-09-21T15:07:16Z</time>
      </trkpt>
      <trkpt lat="43.22032" lon="5.62096">
        <ele>164.9</ele>
        <time>2022-09-21T15:07:22Z</time>
      </trkpt>
      <trkpt lat="43.22028" lon="5.62095">
        <ele>164.5</ele>
        <time>2022-09-21T15:07:28Z</time>
      </trkpt>
      <trkpt lat="43.22022" lon="5.62093">
        <ele>163.9</ele>
        <time>2022-09-21T15:07:34Z</time>
      </trkpt>
      <trkpt lat="43.22016" lon="5.62091">
        <ele>163.2</ele>
        <time>2022-09-21T15:07:40Z</time>
      </trkpt>
      <trkpt lat="43.22011" lon="5.6209">
        <ele>162.7</ele>
        <time>2022-09-21T15:07:46Z</time>
      </trkpt>
      <trkpt lat="43.22004" lon="5.6209">
        <ele>162.5</ele>
        <time>2022-09-21T15:07:52Z</time>
      </trkpt>
      <trkpt lat="43.21999" lon="5.62088">
        <ele>162</ele>
        <time>2022-09-21T15:07:56Z</time>
      </trkpt>
      <trkpt lat="43.21995" lon="5.62086">
        <ele>161.4</ele>
        <time>2022-09-21T15:08:00Z</time>
      </trkpt>
      <trkpt lat="43.21989" lon="5.62082">
        <ele>160.7</ele>
        <time>2022-09-21T15:08:06Z</time>
      </trkpt>
      <trkpt lat="43.21984" lon="5.6208">
        <ele>160.3</ele>
        <time>2022-09-21T15:08:12Z</time>
      </trkpt>
      <trkpt lat="43.21979" lon="5.62079">
        <ele>160</ele>
        <time>2022-09-21T15:08:16Z</time>
      </trkpt>
      <trkpt lat="43.21973" lon="5.62078">
        <ele>159.7</ele>
        <time>2022-09-21T15:08:22Z</time>
      </trkpt>
      <trkpt lat="43.21969" lon="5.62077">
        <ele>159.4</ele>
        <time>2022-09-21T15:08:26Z</time>
      </trkpt>
      <trkpt lat="43.21963" lon="5.62076">
        <ele>159.3</ele>
        <time>2022-09-21T15:08:32Z</time>
      </trkpt>
      <trkpt lat="43.21958" lon="5.62074">
        <ele>159.1</ele>
        <time>2022-09-21T15:08:38Z</time>
      </trkpt>
      <trkpt lat="43.21952" lon="5.62072">
        <ele>158.7</ele>
        <time>2022-09-21T15:08:44Z</time>
      </trkpt>
      <trkpt lat="43.21947" lon="5.6207">
        <ele>158.5</ele>
        <time>2022-09-21T15:08:50Z</time>
      </trkpt>
      <trkpt lat="43.21943" lon="5.62068">
        <ele>158.2</ele>
        <time>2022-09-21T15:08:54Z</time>
      </trkpt>
      <trkpt lat="43.21938" lon="5.62067">
        <ele>158.2</ele>
        <time>2022-09-21T15:08:58Z</time>
      </trkpt>
      <trkpt lat="43.21933" lon="5.62067">
        <ele>158.4</ele>
        <time>2022-09-21T15:09:02Z</time>
      </trkpt>
      <trkpt lat="43.21928" lon="5.62066">
        <ele>158.4</ele>
        <time>2022-09-21T15:09:06Z</time>
      </trkpt>
      <trkpt lat="43.21921" lon="5.62067">
        <ele>158.7</ele>
        <time>2022-09-21T15:09:12Z</time>
      </trkpt>
      <trkpt lat="43.21915" lon="5.62069">
        <ele>158.8</ele>
        <time>2022-09-21T15:09:18Z</time>
      </trkpt>
      <trkpt lat="43.2191" lon="5.62071">
        <ele>158.5</ele>
        <time>2022-09-21T15:09:24Z</time>
      </trkpt>
      <trkpt lat="43.21905" lon="5.62073">
        <ele>158.1</ele>
        <time>2022-09-21T15:09:28Z</time>
      </trkpt>
      <trkpt lat="43.21899" lon="5.62074">
        <ele>157.7</ele>
        <time>2022-09-21T15:09:32Z</time>
      </trkpt>
      <trkpt lat="43.21894" lon="5.62074">
        <ele>157.2</ele>
        <time>2022-09-21T15:09:36Z</time>
      </trkpt>
      <trkpt lat="43.2189" lon="5.62073">
        <ele>156.7</ele>
        <time>2022-09-21T15:09:40Z</time>
      </trkpt>
      <trkpt lat="43.21884" lon="5.62073">
        <ele>156</ele>
        <time>2022-09-21T15:09:46Z</time>
      </trkpt>
      <trkpt lat="43.2188" lon="5.62075">
        <ele>155.3</ele>
        <time>2022-09-21T15:09:50Z</time>
      </trkpt>
      <trkpt lat="43.21875" lon="5.62073">
        <ele>154.5</ele>
        <time>2022-09-21T15:09:56Z</time>
      </trkpt>
      <trkpt lat="43.21871" lon="5.62067">
        <ele>154</ele>
        <time>2022-09-21T15:10:04Z</time>
      </trkpt>
      <trkpt lat="43.21867" lon="5.62064">
        <ele>153.4</ele>
        <time>2022-09-21T15:10:10Z</time>
      </trkpt>
      <trkpt lat="43.21862" lon="5.6206">
        <ele>153</ele>
        <time>2022-09-21T15:10:16Z</time>
      </trkpt>
      <trkpt lat="43.21858" lon="5.62057">
        <ele>152.3</ele>
        <time>2022-09-21T15:10:22Z</time>
      </trkpt>
      <trkpt lat="43.21852" lon="5.62056">
        <ele>151.3</ele>
        <time>2022-09-21T15:10:30Z</time>
      </trkpt>
      <trkpt lat="43.21847" lon="5.62056">
        <ele>150.4</ele>
        <time>2022-09-21T15:10:36Z</time>
      </trkpt>
      <trkpt lat="43.2184" lon="5.62054">
        <ele>149.1</ele>
        <time>2022-09-21T15:10:42Z</time>
      </trkpt>
      <trkpt lat="43.21836" lon="5.6205">
        <ele>148.1</ele>
        <time>2022-09-21T15:10:48Z</time>
      </trkpt>
      <trkpt lat="43.21831" lon="5.62054">
        <ele>147.3</ele>
        <time>2022-09-21T15:10:54Z</time>
      </trkpt>
      <trkpt lat="43.21829" lon="5.62059">
        <ele>146.4</ele>
        <time>2022-09-21T15:11:30Z</time>
      </trkpt>
      <trkpt lat="43.21824" lon="5.62061">
        <ele>145.1</ele>
        <time>2022-09-21T15:12:40Z</time>
      </trkpt>
      <trkpt lat="43.21819" lon="5.62063">
        <ele>143.5</ele>
        <time>2022-09-21T15:12:48Z</time>
      </trkpt>
      <trkpt lat="43.21814" lon="5.62067">
        <ele>142.3</ele>
        <time>2022-09-21T15:12:54Z</time>
      </trkpt>
      <trkpt lat="43.21809" lon="5.62072">
        <ele>141.2</ele>
        <time>2022-09-21T15:13:00Z</time>
      </trkpt>
      <trkpt lat="43.21807" lon="5.62079">
        <ele>141</ele>
        <time>2022-09-21T15:13:04Z</time>
      </trkpt>
      <trkpt lat="43.21803" lon="5.62083">
        <ele>140</ele>
        <time>2022-09-21T15:13:10Z</time>
      </trkpt>
      <trkpt lat="43.21799" lon="5.62088">
        <ele>138.9</ele>
        <time>2022-09-21T15:13:18Z</time>
      </trkpt>
      <trkpt lat="43.21796" lon="5.62095">
        <ele>137.7</ele>
        <time>2022-09-21T15:13:26Z</time>
      </trkpt>
      <trkpt lat="43.21793" lon="5.621">
        <ele>136.8</ele>
        <time>2022-09-21T15:13:34Z</time>
      </trkpt>
      <trkpt lat="43.21789" lon="5.62105">
        <ele>135.7</ele>
        <time>2022-09-21T15:13:40Z</time>
      </trkpt>
      <trkpt lat="43.21784" lon="5.62107">
        <ele>134.4</ele>
        <time>2022-09-21T15:13:54Z</time>
      </trkpt>
      <trkpt lat="43.21779" lon="5.62108">
        <ele>133.1</ele>
        <time>2022-09-21T15:14:02Z</time>
      </trkpt>
      <trkpt lat="43.21772" lon="5.62112">
        <ele>131.8</ele>
        <time>2022-09-21T15:14:08Z</time>
      </trkpt>
      <trkpt lat="43.21768" lon="5.62113">
        <ele>130.7</ele>
        <time>2022-09-21T15:14:12Z</time>
      </trkpt>
      <trkpt lat="43.21764" lon="5.62117">
        <ele>130</ele>
        <time>2022-09-21T15:14:16Z</time>
      </trkpt>
      <trkpt lat="43.21762" lon="5.62123">
        <ele>129.5</ele>
        <time>2022-09-21T15:14:22Z</time>
      </trkpt>
      <trkpt lat="43.2176" lon="5.62129">
        <ele>128.9</ele>
        <time>2022-09-21T15:14:40Z</time>
      </trkpt>
      <trkpt lat="43.21755" lon="5.62134">
        <ele>128</ele>
        <time>2022-09-21T15:14:52Z</time>
      </trkpt>
      <trkpt lat="43.21751" lon="5.62136">
        <ele>127.1</ele>
        <time>2022-09-21T15:14:58Z</time>
      </trkpt>
      <trkpt lat="43.21745" lon="5.6214">
        <ele>126</ele>
        <time>2022-09-21T15:15:06Z</time>
      </trkpt>
      <trkpt lat="43.2174" lon="5.62142">
        <ele>125</ele>
        <time>2022-09-21T15:15:12Z</time>
      </trkpt>
      <trkpt lat="43.21735" lon="5.62142">
        <ele>124.1</ele>
        <time>2022-09-21T15:15:20Z</time>
      </trkpt>
      <trkpt lat="43.2173" lon="5.62141">
        <ele>123.2</ele>
        <time>2022-09-21T15:15:26Z</time>
      </trkpt>
      <trkpt lat="43.21725" lon="5.62139">
        <ele>122.5</ele>
        <time>2022-09-21T15:15:32Z</time>
      </trkpt>
      <trkpt lat="43.21718" lon="5.62137">
        <ele>121.1</ele>
        <time>2022-09-21T15:15:38Z</time>
      </trkpt>
      <trkpt lat="43.21713" lon="5.62139">
        <ele>120.4</ele>
        <time>2022-09-21T15:15:42Z</time>
      </trkpt>
      <trkpt lat="43.21708" lon="5.62139">
        <ele>119.5</ele>
        <time>2022-09-21T15:15:46Z</time>
      </trkpt>
      <trkpt lat="43.21704" lon="5.62143">
        <ele>118.7</ele>
        <time>2022-09-21T15:15:50Z</time>
      </trkpt>
      <trkpt lat="43.21698" lon="5.62148">
        <ele>117.7</ele>
        <time>2022-09-21T15:15:56Z</time>
      </trkpt>
      <trkpt lat="43.21693" lon="5.62148">
        <ele>116.8</ele>
        <time>2022-09-21T15:16:02Z</time>
      </trkpt>
      <trkpt lat="43.21688" lon="5.62149">
        <ele>115.5</ele>
        <time>2022-09-21T15:16:08Z</time>
      </trkpt>
      <trkpt lat="43.21682" lon="5.62152">
        <ele>114.2</ele>
        <time>2022-09-21T15:16:14Z</time>
      </trkpt>
      <trkpt lat="43.21676" lon="5.62155">
        <ele>113.2</ele>
        <time>2022-09-21T15:16:20Z</time>
      </trkpt>
      <trkpt lat="43.21671" lon="5.62158">
        <ele>112.3</ele>
        <time>2022-09-21T15:16:26Z</time>
      </trkpt>
      <trkpt lat="43.21665" lon="5.62159">
        <ele>111.3</ele>
        <time>2022-09-21T15:16:30Z</time>
      </trkpt>
      <trkpt lat="43.21661" lon="5.62165">
        <ele>111</ele>
        <time>2022-09-21T15:16:34Z</time>
      </trkpt>
      <trkpt lat="43.21658" lon="5.6217">
        <ele>110.8</ele>
        <time>2022-09-21T15:16:40Z</time>
      </trkpt>
      <trkpt lat="43.21653" lon="5.62172">
        <ele>110.1</ele>
        <time>2022-09-21T15:16:48Z</time>
      </trkpt>
      <trkpt lat="43.21649" lon="5.62173">
        <ele>109.4</ele>
        <time>2022-09-21T15:16:52Z</time>
      </trkpt>
      <trkpt lat="43.21643" lon="5.62176">
        <ele>108.6</ele>
        <time>2022-09-21T15:16:58Z</time>
      </trkpt>
      <trkpt lat="43.21638" lon="5.62173">
        <ele>107.8</ele>
        <time>2022-09-21T15:17:10Z</time>
      </trkpt>
      <trkpt lat="43.21633" lon="5.6217">
        <ele>106.9</ele>
        <time>2022-09-21T15:17:20Z</time>
      </trkpt>
      <trkpt lat="43.21627" lon="5.62168">
        <ele>105.9</ele>
        <time>2022-09-21T15:17:28Z</time>
      </trkpt>
      <trkpt lat="43.21622" lon="5.62165">
        <ele>104.9</ele>
        <time>2022-09-21T15:17:34Z</time>
      </trkpt>
      <trkpt lat="43.21615" lon="5.62165">
        <ele>103.7</ele>
        <time>2022-09-21T15:17:40Z</time>
      </trkpt>
      <trkpt lat="43.2161" lon="5.62166">
        <ele>102.6</ele>
        <time>2022-09-21T15:17:44Z</time>
      </trkpt>
      <trkpt lat="43.21603" lon="5.62167">
        <ele>101</ele>
        <time>2022-09-21T15:17:48Z</time>
      </trkpt>
      <trkpt lat="43.21599" lon="5.6217">
        <ele>99.6</ele>
        <time>2022-09-21T15:17:54Z</time>
      </trkpt>
      <trkpt lat="43.21598" lon="5.62177">
        <ele>98.8</ele>
        <time>2022-09-21T15:18:10Z</time>
      </trkpt>
      <trkpt lat="43.21598" lon="5.62183">
        <ele>98.1</ele>
        <time>2022-09-21T15:18:16Z</time>
      </trkpt>
      <trkpt lat="43.21598" lon="5.6219">
        <ele>97.8</ele>
        <time>2022-09-21T15:18:22Z</time>
      </trkpt>
      <trkpt lat="43.216" lon="5.62196">
        <ele>98</ele>
        <time>2022-09-21T15:18:30Z</time>
      </trkpt>
      <trkpt lat="43.21602" lon="5.62203">
        <ele>98</ele>
        <time>2022-09-21T15:18:36Z</time>
      </trkpt>
      <trkpt lat="43.21603" lon="5.6221">
        <ele>97.9</ele>
        <time>2022-09-21T15:18:42Z</time>
      </trkpt>
      <trkpt lat="43.21605" lon="5.62218">
        <ele>98</ele>
        <time>2022-09-21T15:18:48Z</time>
      </trkpt>
      <trkpt lat="43.21607" lon="5.62224">
        <ele>97.9</ele>
        <time>2022-09-21T15:18:52Z</time>
      </trkpt>
      <trkpt lat="43.2161" lon="5.62232">
        <ele>98.1</ele>
        <time>2022-09-21T15:18:58Z</time>
      </trkpt>
      <trkpt lat="43.21614" lon="5.62238">
        <ele>97.6</ele>
        <time>2022-09-21T15:19:04Z</time>
      </trkpt>
      <trkpt lat="43.21617" lon="5.62245">
        <ele>97.4</ele>
        <time>2022-09-21T15:19:10Z</time>
      </trkpt>
      <trkpt lat="43.2162" lon="5.62251">
        <ele>97.2</ele>
        <time>2022-09-21T15:19:16Z</time>
      </trkpt>
      <trkpt lat="43.21623" lon="5.62256">
        <ele>97.2</ele>
        <time>2022-09-21T15:19:20Z</time>
      </trkpt>
      <trkpt lat="43.21626" lon="5.62261">
        <ele>96.9</ele>
        <time>2022-09-21T15:19:24Z</time>
      </trkpt>
      <trkpt lat="43.2163" lon="5.62267">
        <ele>96.7</ele>
        <time>2022-09-21T15:19:30Z</time>
      </trkpt>
      <trkpt lat="43.21633" lon="5.62273">
        <ele>96.2</ele>
        <time>2022-09-21T15:19:34Z</time>
      </trkpt>
      <trkpt lat="43.21636" lon="5.62278">
        <ele>95.6</ele>
        <time>2022-09-21T15:19:38Z</time>
      </trkpt>
      <trkpt lat="43.21639" lon="5.62286">
        <ele>95.2</ele>
        <time>2022-09-21T15:19:44Z</time>
      </trkpt>
      <trkpt lat="43.21639" lon="5.62292">
        <ele>94.4</ele>
        <time>2022-09-21T15:19:50Z</time>
      </trkpt>
      <trkpt lat="43.21635" lon="5.62296">
        <ele>93.9</ele>
        <time>2022-09-21T15:19:56Z</time>
      </trkpt>
      <trkpt lat="43.2163" lon="5.62298">
        <ele>93.5</ele>
        <time>2022-09-21T15:20:02Z</time>
      </trkpt>
      <trkpt lat="43.21626" lon="5.62301">
        <ele>93.2</ele>
        <time>2022-09-21T15:20:06Z</time>
      </trkpt>
      <trkpt lat="43.21621" lon="5.62304">
        <ele>93</ele>
        <time>2022-09-21T15:20:12Z</time>
      </trkpt>
      <trkpt lat="43.21615" lon="5.62305">
        <ele>93</ele>
        <time>2022-09-21T15:20:18Z</time>
      </trkpt>
      <trkpt lat="43.21607" lon="5.62301">
        <ele>93.4</ele>
        <time>2022-09-21T15:20:29Z</time>
      </trkpt>
      <trkpt lat="43.21612" lon="5.62303">
        <ele>92.9</ele>
        <time>2022-09-21T15:20:35Z</time>
      </trkpt>
      <trkpt lat="43.21609" lon="5.6231">
        <ele>92.9</ele>
        <time>2022-09-21T15:20:55Z</time>
      </trkpt>
      <trkpt lat="43.21604" lon="5.62312">
        <ele>93.5</ele>
        <time>2022-09-21T15:20:59Z</time>
      </trkpt>
      <trkpt lat="43.21598" lon="5.62315">
        <ele>94.3</ele>
        <time>2022-09-21T15:21:05Z</time>
      </trkpt>
      <trkpt lat="43.21593" lon="5.62316">
        <ele>95.2</ele>
        <time>2022-09-21T15:21:11Z</time>
      </trkpt>
      <trkpt lat="43.21588" lon="5.62318">
        <ele>96.1</ele>
        <time>2022-09-21T15:21:17Z</time>
      </trkpt>
      <trkpt lat="43.21584" lon="5.62322">
        <ele>96.9</ele>
        <time>2022-09-21T15:21:21Z</time>
      </trkpt>
      <trkpt lat="43.21579" lon="5.62325">
        <ele>97.6</ele>
        <time>2022-09-21T15:21:27Z</time>
      </trkpt>
      <trkpt lat="43.21573" lon="5.62329">
        <ele>98.4</ele>
        <time>2022-09-21T15:21:35Z</time>
      </trkpt>
      <trkpt lat="43.21567" lon="5.62333">
        <ele>99.3</ele>
        <time>2022-09-21T15:21:41Z</time>
      </trkpt>
      <trkpt lat="43.21562" lon="5.62338">
        <ele>100.1</ele>
        <time>2022-09-21T15:21:47Z</time>
      </trkpt>
      <trkpt lat="43.21557" lon="5.62342">
        <ele>100.8</ele>
        <time>2022-09-21T15:21:55Z</time>
      </trkpt>
      <trkpt lat="43.21553" lon="5.62347">
        <ele>101</ele>
        <time>2022-09-21T15:22:01Z</time>
      </trkpt>
      <trkpt lat="43.21549" lon="5.62349">
        <ele>101</ele>
        <time>2022-09-21T15:22:05Z</time>
      </trkpt>
      <trkpt lat="43.21545" lon="5.62353">
        <ele>101</ele>
        <time>2022-09-21T15:22:11Z</time>
      </trkpt>
      <trkpt lat="43.21541" lon="5.62357">
        <ele>101</ele>
        <time>2022-09-21T15:22:19Z</time>
      </trkpt>
      <trkpt lat="43.21545" lon="5.62362">
        <ele>101</ele>
        <time>2022-09-21T15:22:25Z</time>
      </trkpt>
      <trkpt lat="43.21549" lon="5.62368">
        <ele>100.9</ele>
        <time>2022-09-21T15:22:31Z</time>
      </trkpt>
      <trkpt lat="43.21553" lon="5.62374">
        <ele>101</ele>
        <time>2022-09-21T15:22:39Z</time>
      </trkpt>
      <trkpt lat="43.21556" lon="5.62378">
        <ele>101</ele>
        <time>2022-09-21T15:22:45Z</time>
      </trkpt>
      <trkpt lat="43.2156" lon="5.62383">
        <ele>100.9</ele>
        <time>2022-09-21T15:22:51Z</time>
      </trkpt>
      <trkpt lat="43.21563" lon="5.62388">
        <ele>101</ele>
        <time>2022-09-21T15:22:57Z</time>
      </trkpt>
      <trkpt lat="43.21567" lon="5.62393">
        <ele>101.2</ele>
        <time>2022-09-21T15:23:03Z</time>
      </trkpt>
      <trkpt lat="43.21569" lon="5.624">
        <ele>101.6</ele>
        <time>2022-09-21T15:23:13Z</time>
      </trkpt>
      <trkpt lat="43.21574" lon="5.62405">
        <ele>101.9</ele>
        <time>2022-09-21T15:23:23Z</time>
      </trkpt>
      <trkpt lat="43.21578" lon="5.6241">
        <ele>102.3</ele>
        <time>2022-09-21T15:23:29Z</time>
      </trkpt>
      <trkpt lat="43.21582" lon="5.62415">
        <ele>102.8</ele>
        <time>2022-09-21T15:23:37Z</time>
      </trkpt>
    </trkseg>
  </trk>
</gpx>